     2.11           OBSERVATION DATA    G (GPS)             RINEX VERSION / TYPE
teqc 2010Oct21 OPUS Account 20111027 15:05:05UTC            PGM / RUN BY / DATE
60041226                                                    MARKER NAME
3001                                                        MARKER NUMBER
CSMIDDLETON NGS                                             OBSERVER / AGENCY
0220269730 TRIMBLE 5700 NP 1.22 / SP 1.22                   REC # / TYPE / VERS
60041226 TRM41249.00 NONE                                   ANT # / TYPE
  -761288.2901 -5536250.2746  3064137.3304                  APPROX POSITION XYZ
        2.0010        0.0000        0.0000                  ANTENNA: DELTA H/E/N
     1     1                                                WAVELENGTH FACT L1/2
     5    L1    L2    C1    P1    P2                        # / TYPES OF OBSERV
    15                                                      LEAP SECONDS
  2011     8    14     0     0   30.0000000     GPS         TIME OF FIRST OBS
                                                            END OF HEADER
 11  8 14  0  0 30.0000000  0  8G09G12G02G17G10G05G28G04
 -30189681.82457 -23498822.73554  22465663.9534                   22465664.7544
 -18491864.22357 -14384868.58655  22623162.7734                   22623161.9224
 -41080998.77358 -31985614.62856  20781858.1254                   20781854.9694
 -41399066.89857 -32239065.85755  22295920.6414                   22295918.4804
 -32715244.48057 -25469451.81655  21302968.5704                   21302968.1994
  -8848090.09457  -6869618.43954  23631767.5394                   23631770.7584
 -32402260.84456 -25235698.35353  23614074.8364                   23614076.2734
 -55460270.89558 -43188891.18756  20468287.8524                   20468286.9804
 11  8 14  0  1  0.0000000  0  8G09G12G02G17G10G05G28G04
 -30209866.64147 -23514551.24144  22461821.9844                   22461823.6994
 -18650914.04747 -14508803.50445  22592897.3594                   22592896.0984
 -41182347.59848 -32064587.68646  20762571.8204                   20762568.9774
 -41428754.96147 -32262199.40345  22290270.3524                   22290270.0554
 -32839429.58647 -25566219.37045  21279336.8364                   21279336.6174
  -9024707.85947  -7007242.42544  23598157.9844                   23598161.0904
 -32378851.66446 -25217457.48843  23618529.3674                   23618530.8134
 -55476216.32848 -43201316.21046  20465253.4534                   20465252.7664
 11  8 14  0  1 30.0000000  0  8G09G12G02G17G10G05G28G04
 -30229525.23447 -23529869.66044  22458081.7034                   22458082.3754
 -18809684.60947 -14632520.82745  22562683.8984                   22562683.0984
 -41283260.99248 -32143221.45846  20743368.6884                   20743365.9964
 -41458267.35547 -32285196.09545  22284654.4534                   22284653.7894
 -32963047.21948 -25662544.75045  21255812.9534                   21255812.9924
  -9201214.43047  -7144779.73544  23564569.3444                   23564572.6174
 -32355117.00846 -25198963.09243  23623045.6024                   23623048.0984
 -55491747.47348 -43213418.38946  20462298.1484                   20462297.1054
 11  8 14  0  2  0.0000000  0  8G09G12G02G17G10G05G28G04
 -30248662.87147 -23544782.15444  22454439.8984                   22454440.9104
 -18968175.91047 -14756020.51845  22532523.8444                   22532522.9104
 -41383742.04348 -32221518.34846  20724247.4924                   20724244.6844
 -41487605.87147 -32308057.28645  22279071.9304                   22279070.7704
 -33086096.92648 -25758427.58745  21232397.5704                   21232397.1334
  -9377609.69947  -7282230.32744  23531002.3594                   23531005.0944
 -32331061.31246 -25180218.57143  23627623.8754                   23627625.9264
 -55506869.11748 -43225201.49446  20459420.4694                   20459419.7624
 11  8 14  0  2 30.0000000  0  8G09G12G02G17G10G05G28G04
 -30267280.30547 -23559289.29044  22450897.6334                   22450898.2774
 -19126382.89147 -14879298.67345  22502418.1564                   22502417.0164
 -41483788.89147 -32299476.88446  20705209.2274                   20705206.3754
 -41516767.89847 -32330780.97645  22273522.6094                   22273521.3484
 -33208574.61347 -25853864.69345  21209090.8984                   21209090.4344
  -9553888.63747  -7419590.24344  23497458.0474                   23497460.0084
 -32306683.93446 -25161223.31343  23632262.8914                   23632264.2584
 -55521581.68048 -43236665.82946  20456620.6484                   20456620.0394
 11  8 14  0  3  0.0000000  0  8G09G12G02G17G10G05G28G04
 -30285384.02347 -23573396.15144  22447452.0234                   22447453.3554
 -19284306.44947 -15002355.98845  22472366.0944                   22472365.9024
 -41583405.27748 -32377100.00846  20686252.9064                   20686249.8054
 -41545756.40247 -32353369.44645  22268005.9924                   22268004.8244
 -33330480.87547 -25948856.53545  21185893.0084                   21185892.4884
  -9730051.91847  -7556860.05744  23463934.2814                   23463936.6174
 -32281990.08246 -25141981.44743  23636962.2114                   23636963.3524
 -55535890.88348 -43247815.87046  20453897.6644                   20453896.9924
 11  8 14  0  3 30.0000000  0  8G09G12G02G17G10G05G28G04
 -28727550.17647 -22359499.73544  22743898.5554                   22743899.3754
 -17866512.99647 -13897581.85645  22742163.2194                   22742162.5984
 -40107162.44147 -31226780.86246  20967172.2504                   20967169.5824
 -39999143.71547 -31148216.72845  22562316.7424                   22562316.1454
 -31876383.11347 -24815793.28645  21462598.1414                   21462597.9924
  -8330664.74246  -6466428.22444  23730229.0634                   23730231.4384
 -30681556.50446 -23894890.39443  23941514.7894                   23941516.7074
 -53974372.37548 -42031048.20046  20751044.7034                   20751044.0314
 11  8 14  0  4  0.0000000  0  8G09G12G02G17G10G05G28G04
 -28744627.34847 -22372806.71544  22740648.6484                   22740649.8364
 -18023854.93747 -14020185.95345  22712221.9924                   22712221.3524
 -40205911.76647 -31303728.34846  20948380.9064                   20948378.3014
 -40027775.68447 -31170527.38245  22556868.3204                   22556867.1134
 -31997131.30947 -24909882.74746  21439620.5944                   21439620.1914
  -8506580.23046  -6603504.91544  23696752.4064                   23696756.0434
 -30656227.57846 -23875153.70143  23946334.2034                   23946336.0164
 -53987874.09048 -42041569.01846  20748475.6024                   20748475.1334
 11  8 14  0  4 30.0000000  0  8G09G12G02G17G10G05G28G04
 -28761196.86347 -22385718.10644  22737495.6724                   22737496.4964
 -18180903.23447 -14142561.22045  22682336.9774                   22682335.6764
 -40304229.20347 -31380339.30346  20929672.1254                   20929668.9184
 -40056229.44547 -31192699.17445  22551453.3054                   22551453.0354
 -32117298.06647 -25003519.12045  21416753.1254                   21416753.4264
  -8682368.54347  -6740482.53444  23663300.9384                   23663304.0864
 -30630585.06646 -23855172.53443  23951214.4384                   23951215.1764
 -54000976.93748 -42051779.02446  20745982.1954                   20745981.1884
 11  8 14  0  5  0.0000000  0  8G09G12G02G17G10G05G28G04
 -28777259.35547 -22398234.39744  22734438.8674                   22734440.1994
 -18337652.34847 -14264703.35545  22652508.4304                   22652507.3324
 -40402112.73448 -31456612.15146  20911044.9694                   20911042.3444
 -40084502.23447 -31214729.90745  22546073.1094                   22546072.9844
 -32236878.19547 -25096698.40146  21393998.1564                   21393998.0164
  -8858024.57847  -6877357.09844  23629874.8594                   23629877.5634
 -30604628.20346 -23834946.46843  23956153.8674                   23956153.9804
 -54013680.37547 -42061677.80946  20743564.8364                   20743563.8244
 11  8 14  0  5 30.0000000  0  8G09G12G02G17G10G05G28G04
 -28792822.01247 -22410361.21544  22731477.1564                   22731478.9844
 -18494104.71947 -14386614.25945  22622736.7114                   22622735.2034
 -40499567.23847 -31532550.67646  20892499.7664                   20892497.2704
 -40112597.71947 -31236622.52145  22540727.1484                   22540726.6414
 -32355873.66847 -25189422.11645  21371354.2894                   21371353.7704
  -9033549.51247  -7014129.52544  23596473.4454                   23596476.6994
 -30578363.32846 -23814480.37243  23961152.2974                   23961152.2114
 -54025991.42248 -42071270.82846  20741222.3054                   20741221.1294
 11  8 14  0  6  0.0000000  0  8G09G12G02G17G10G05G28G04
 -28807882.74647 -22422096.92844  22728611.6254                   22728612.6094
 -18650252.86747 -14508288.09945  22593022.3284                   22593021.2734
 -40596588.47748 -31608151.60946  20874037.5084                   20874034.7114
 -40140510.39147 -31258372.66945  22535415.4144                   22535414.9774
 -32474277.29347 -25281684.62845  21348822.5944                   21348822.4884
  -9208935.66847  -7150793.80344  23563097.7504                   23563101.3794
 -30551787.08646 -23793771.61843  23966208.8204                   23966208.7734
 -54037907.56248 -42080556.12346  20738953.9844                   20738953.6024
 11  8 14  0  6 30.0000000  0  8G09G12G02G17G10G05G28G04
 -28822448.09047 -22433446.64144  22725840.2274                   22725841.4654
 -18806096.78547 -14629724.88145  22563366.5474                   22563365.5354
 -40693179.48448 -31683417.28146  20855657.1254                   20855654.0354
 -40168242.86747 -31279982.40845  22530138.0704                   22530137.3954
 -32592089.62147 -25373486.39245  21326403.7974                   21326403.0514
  -9384183.00847  -7287349.91844  23529750.1254                   23529752.1294
 -30524904.36346 -23772824.15443  23971324.8674                   23971325.7154
 -54049434.11348 -42089537.86446  20736760.9774                   20736760.4804
 11  8 14  0  7  0.0000000  0  8G09G12G02G17G10G05G28G04
 -28836517.93047 -22444410.21544  22723163.1094                   22723164.0434
 -18961631.12147 -14750920.42245  22533769.1094                   22533768.0434
 -40789338.05148 -31758346.00246  20837358.5944                   20837355.4614
 -40195791.47347 -31301448.86845  22524896.2734                   22524894.7424
 -32709305.26648 -25464823.22545  21304098.2274                   21304097.7664
  -9559285.63347  -7423793.24544  23496429.1884                   23496431.3444
 -30497714.22746 -23751637.08243  23976497.8364                   23976499.8834
 -54060570.50048 -42098215.56646  20734641.9614                   20734641.2034
 11  8 14  0  7 30.0000000  0  8G09G12G02G17G10G05G28G04
 -28850098.84847 -22454992.83744  22720578.4454                   22720579.8674
 -19116857.52347 -14871876.02445  22504230.7274                   22504229.1484
 -40885068.60948 -31832941.20146  20819141.8054                   20819138.6414
 -40223159.63347 -31322774.73045  22519688.0474                   22519686.7624
 -32825925.83647 -25555696.36245  21281906.2424                   21281905.6684
  -9734244.63747  -7560124.70944  23463135.6174                   23463137.4884
 -30470222.23446 -23730214.89843  23981730.8834                   23981731.5274
 -54071323.09448 -42106594.21046  20732595.5634                   20732594.8754
 11  8 14  0  8  0.0000000  0  8G09G12G02G17G10G05G28G04
 -28863188.44947 -22465192.58944  22718087.3754                   22718088.4454
 -19271767.65647 -14992585.16745  22474752.0704                   22474750.8634
 -40980365.94548 -31907198.82946  20801007.3134                   20801004.3634
 -40250341.16447 -31343955.14545  22514515.6334                   22514514.8594
 -32941943.19547 -25646099.44945  21259828.7034                   21259828.0474
  -9909051.32447  -7696337.48144  23429870.1334                   23429872.0124
 -30442424.96946 -23708554.79643  23987019.3204                   23987021.1334
 -54081688.40248 -42114671.07246  20730623.5394                   20730622.4304
 11  8 14  0  8 30.0000000  0  8G09G12G02G17G10G05G28G04
 -28875792.78947 -22475014.22544  22715689.0474                   22715690.3714
 -19426361.75047 -15113048.05145  22445333.8364                   22445332.1644
 -41075233.35248 -31981121.46246  20782954.6484                   20782951.6254
 -40277338.22347 -31364991.84145  22509378.2034                   22509377.1764
 -33057358.14847 -25736033.14645  21237866.0944                   21237865.5394
 -10083705.90247  -7832431.71944  23396634.8754                   23396636.4844
 -30414327.23446 -23686660.63543  23992366.8054                   23992368.4264
 -54091671.78948 -42122450.34746  20728723.6414                   20728722.9264
 11  8 14  0  9  0.0000000  0  8G09G12G02G17G10G05G28G04
 -28887918.12147 -22484462.60644  22713381.6484                   22713383.5704
 -19580640.40247 -15233265.13345  22415975.5634                   22415974.1644
 -41169675.02348 -32054712.35146  20764982.9144                   20764979.5314
 -40304153.31647 -31385886.71945  22504275.5554                   22504274.7464
 -33172171.84447 -25825498.31446  21216017.8134                   21216017.0664
 -10258208.82847  -7968407.78444  23363427.3914                   23363429.1564
 -30385934.34046 -23664536.32343  23997770.3834                   23997771.6024
 -54101278.93748 -42129936.43746  20726895.5084                   20726894.2234
 11  8 14  0  9 30.0000000  0  8G09G12G02G17G10G05G28G04
 -28899564.46547 -22493537.74244  22711165.3984                   22711167.2774
 -19734598.14847 -15353232.18645  22386678.0944                   22386677.5864
 -41263688.49648 -32127969.57046  20747092.6484                   20747089.2974
 -40330783.14847 -31406637.25245  22499208.1334                   22499207.0314
 -33286378.64848 -25914490.58645  21194284.6724                   21194284.0784
 -10432554.24247  -8104261.15944  23330250.7344                   23330251.7704
 -30357244.58646 -23642180.74543  24003229.1254                   24003231.1844
 -54110509.27748 -42137128.91946  20725138.9534                   20725137.7304
 11  8 14  0 10  0.0000000  0  8G09G12G02G17G10G05G28G04
 -28910729.93047 -22502238.18844  22709040.8444                   22709042.7384
 -19888227.50047 -15472943.31445  22357443.3984                   22357442.9414
 -41357268.86748 -32200889.31046  20729284.6884                   20729281.9844
 -40357222.18747 -31427239.11945  22494176.9844                   22494175.1334
 -33399971.65248 -26003004.56646  21172668.8674                   21172668.4384
 -10606733.52047  -8239985.01944  23297104.9614                   23297106.8134
 -30328255.00846 -23619591.58643  24008746.6644                   24008747.8834
 -54119360.04348 -42144025.62346  20723454.7194                   20723453.8014
 11  8 14  0 10 30.0000000  0  8G09G12G02G17G10G05G28G04
 -28921423.49247 -22510570.92344  22707006.3594                   22707007.4574
 -20041531.37547 -15592400.83845  22328270.8524                   22328269.6954
 -41450422.75047 -32273476.74046  20711558.1414                   20711555.4774
 -40383475.50047 -31447696.25345  22489180.7274                   22489179.7734
 -33512954.16847 -26091042.85846  21151168.8524                   21151168.0904
 -10780749.82847  -8375581.93644  23263990.5234                   23263992.9734
 -30298973.61746 -23596774.97643  24014318.4774                   24014319.8364
 -54127839.26248 -42150632.82346  20721841.0234                   20721840.0234
 11  8 14  0 11  0.0000000  0  8G09G12G02G17G10G05G28G04
 -28931647.22347 -22518537.54744  22705060.8134                   22705062.0554
 -20194506.19147 -15711601.93645  22299160.4614                   22299158.5554
 -41543149.53148 -32345731.35146  20693912.7114                   20693909.9694
 -40409541.37947 -31468007.35945  22484220.4924                   22484219.7894
 -33625323.20747 -26178603.09045  21129785.9144                   21129785.2274
 -10954599.39847  -8511048.95244  23230908.1484                   23230909.5394
 -30269401.41846 -23573731.81743  24019946.2424                   24019946.7734
 -54135948.54348 -42156951.74846  20720298.1954                   20720297.5044
 11  8 14  0 11 30.0000000  0  8G09G12G02G17G10G05G28G04
 -28941407.73047 -22526143.19144  22703203.5394                   22703204.8714
 -20347152.83647 -15830547.33345  22270112.8134                   22270111.7624
 -41635453.42248 -32417656.44346  20676348.0234                   20676345.1994
 -40435422.63747 -31488174.59145  22479295.5164                   22479294.3324
 -33737079.77348 -26265686.07646  21108518.7734                   21108518.3164
 -11128282.56247  -8646386.24444  23197857.4064                   23197858.8594
 -30239543.57046 -23550466.09442  24025628.2504                   24025628.8134
 -54143693.52748 -42162986.80746  20718824.2504                   20718823.3014
 11  8 14  0 12  0.0000000  0  8G09G12G02G17G10G05G28G04
 -28950701.68746 -22533385.30144  22701434.7194                   22701436.0004
 -20499462.58247 -15949230.18845  22241128.8054                   22241127.7814
 -41727328.89548 -32489247.69546  20658864.3204                   20658861.7274
 -40461112.45747 -31508192.67445  22474406.4924                   22474406.2034
 -33848215.74248 -26352285.48645  21087371.0634                   21087369.5554
 -11301790.07847  -8781586.70344  23164839.1644                   23164841.1214
 -30209395.82846 -23526974.36342  24031364.4064                   24031365.4454
 -54151070.49248 -42168735.10546  20717420.1414                   20717419.4534
 11  8 14  0 12 30.0000000  0  8G09G12G02G17G10G05G28G04
 -28959533.50847 -22540267.31044  22699754.0554                   22699755.2074
 -20651434.20347 -16067649.60345  22212209.9844                   22212208.7774
 -41818777.79748 -32560506.57046  20641462.6644                   20641459.3444
 -40486611.79347 -31528062.32745  22469554.4534                   22469553.8244
 -33958729.85948 -26438400.35445  21066340.4304                   21066339.4654
 -11475120.38347  -8916649.07144  23131856.4064                   23131857.6884
 -30178961.32446 -23503259.26242  24037156.2814                   24037156.8914
 -54158082.93748 -42174199.36446  20716085.7504                   20716085.1054
 11  8 14  0 13  0.0000000  0  8G09G12G02G17G10G05G28G04
 -28967905.59046 -22546791.08444  22698161.6644                   22698162.3134
 -20803063.88747 -16185802.52445  22183355.9144                   22183355.0864
 -41909799.57848 -32631432.60946  20624141.6884                   20624138.4734
 -40511918.93047 -31547782.18245  22464738.9384                   22464737.8794
 -34068619.24648 -26524028.40145  21045428.8204                   21045428.1954
 -11648269.59847  -9051570.33044  23098906.6724                   23098907.7154
 -30148240.79745 -23479321.34442  24043000.9774                   24043002.3914
 -54164732.37548 -42179380.74946  20714820.5704                   20714819.9924
 11  8 14  0 13 30.0000000  0  8G09G12G02G17G10G05G28G04
 -28975824.91447 -22552962.04944  22696653.9844                   22696655.4104
 -20954353.31247 -16303690.33945  22154566.1954                   22154565.1414
 -42000398.85248 -32702029.41946  20606901.1644                   20606898.1914
 -40537037.21147 -31567354.89645  22459959.2274                   22459957.7464
 -34177885.78948 -26609171.12846  21024636.4924                   21024635.5704
 -11821238.49647  -9186351.07545  23065991.1174                   23065992.9844
 -30117240.66445 -23455165.47342  24048901.2974                   24048901.9414
 -54171024.95748 -42184284.06946  20713623.0394                   20713622.2934
 11  8 14  0 14  0.0000000  0  8G09G12G02G17G10G05G28G04
 -28983294.02347 -22558782.19044  22695233.6094                   22695234.0274
 -21105298.48047 -16421309.88645  22125842.3054                   22125841.2464
 -42090575.36748 -32772296.81946  20589741.4384                   20589738.4384
 -40561964.75047 -31586778.99345  22455215.4774                   22455214.5164
 -34286526.52748 -26693826.22345  21003962.8054                   21003962.2854
 -11994023.47347  -9320988.53844  23033111.3594                   23033112.2384
 -30085961.79746 -23430792.44443  24054853.6334                   24054855.4184
 -54176962.25448 -42188910.55546  20712493.6644                   20712492.8134
 11  8 14  0 14 30.0000000  0  8G09G12G02G17G10G05G28G04
 -28990314.85246 -22564253.03144  22693896.7894                   22693898.2154
 -21255896.17647 -16538658.68145  22097184.4534                   22097183.6524
 -42180328.60248 -32842234.37846  20572661.6644                   20572658.2664
 -40586700.07847 -31606053.30045  22450508.3674                   22450507.5664
 -34394538.39548 -26777991.27946  20983408.8364                   20983408.0124
 -12166620.31647  -9455479.40345  23000266.5944                   23000268.1524
 -30054405.09446 -23406202.86543  24060858.6804                   24060861.0514
 -54182545.46147 -42193261.12246  20711430.6884                   20711430.1094
 11  8 14  0 15  0.0000000  0  8G09G12G02G17G10G05G28G04
 -27421473.11747 -21341779.03344  22992437.4064                   22992439.1604
 -19830721.28147 -15428132.73145  22368386.5474                   22368385.5084
 -40694239.23047 -31684242.63846  20855454.7974                   20855451.8634
 -39035824.77047 -30397579.09045  22745630.8754                   22745629.4614
 -32926498.59848 -25634064.13246  21262767.3914                   21262766.5554
 -10763603.07847  -8362219.00845  23267252.4774                   23267254.0514
 -28447156.30546 -22153801.36943  24366709.0474                   24366710.3134
 -52612359.29748 -40969739.44446  21010227.5234                   21010226.5204
 11  8 14  0 15 30.0000000  0  8G09G12G02G17G10G05G28G04
 -27427611.26647 -21346562.05644  22991269.4694                   22991271.7074
 -19980619.64547 -15544936.60745  22339861.3134                   22339859.9774
 -40783152.53148 -31753525.70546  20838535.5864                   20838532.0664
 -39060178.43047 -30416556.01845  22740996.0234                   22740994.9804
 -33033251.05948 -25717247.84546  21242453.1414                   21242452.3674
 -10935818.94547  -8496412.99645  23234480.6884                   23234481.7344
 -28415054.17646 -22128786.85543  24372818.5864                   24372819.1764
 -52617245.54348 -40973546.93446  21009297.7664                   21009296.8364
 11  8 14  0 16  0.0000000  0  8G09G12G02G17G10G05G28G04
 -27433313.49646 -21351005.43444  22990184.1884                   22990186.0164
 -20130165.65247 -15661465.90845  22311403.2974                   22311402.2934
 -40871647.40648 -31822482.70746  20821695.0634                   20821692.1914
 -39084340.96147 -30435383.97545  22736398.2734                   22736396.8954
 -33139371.25048 -25799938.87246  21222258.9844                   21222258.1454
 -11107840.47747  -8630455.57144  23201745.3914                   23201746.9804
 -28382682.78546 -22103562.53543  24378977.8134                   24378979.6724
 -52621787.52748 -40977086.13546  21008433.3984                   21008432.4184
 11  8 14  0 16 30.0000000  0  8G09G12G02G17G10G05G28G04
 -27438579.07446 -21355108.56044  22989182.6804                   22989183.8484
 -20279352.66847 -15777715.49645  22283014.6724                   22283012.8204
 -40959720.44948 -31891111.02346  20804935.7664                   20804932.4494
 -39108308.00447 -30454059.64745  22731837.0634                   22731836.5744
 -33244853.25048 -25882132.61846  21202186.2504                   21202185.3874
 -11279660.98847  -8764341.50344  23169049.4614                   23169050.3404
 -28350040.25046 -22078126.86543  24385189.2424                   24385191.3134
 -52625983.69547 -40980355.90446  21007635.0474                   21007633.9844
 11  8 14  0 17  0.0000000  0  8G09G12G02G17G10G05G28G04
 -27443414.32447 -21358876.34244  22988262.4694                   22988264.0904
 -20428180.82847 -15893685.46345  22254693.2274                   22254691.9774
 -41047375.73048 -31959413.81346  20788255.7894                   20788252.1094
 -39132081.70747 -30472584.65345  22727313.5864                   22727312.6684
 -33349698.22348 -25963829.96746  21182235.4304                   21182234.2894
 -11451280.44547  -8898070.79445  23136391.3914                   23136392.1844
 -28317131.63746 -22052483.91043  24391451.7814                   24391453.8954
 -52629839.52348 -40983360.45946  21006901.3834                   21006900.2274
 11  8 14  0 17 30.0000000  0  7G09G12G02G17G10G05G04
 -27447820.85246 -21362310.07744  22987423.6254                   22987425.5044
 -20576645.69947 -16009372.33445  22226441.3134                   22226439.6644
 -41134612.27748 -32027390.30546  20771654.6724                   20771651.7424
 -39155659.55947 -30490957.02945  22722827.2734                   22722826.2074
 -33453902.55547 -26045028.12045  21162405.5164                   21162405.1024
 -11622694.21947  -9031639.80244  23103771.6954                   23103773.2584
 -52633355.44548 -40986100.15146  21006232.2114                   21006231.0594
 11  8 14  0 18  0.0000000  0  7G09G12G02G17G10G05G04
 -27451799.08247 -21365410.05644  22986667.2424                   22986668.7664
 -20724742.32847 -16124772.28245  22198259.4924                   22198257.8674
 -41221427.80548 -32095038.74146  20755134.1564                   20755131.0394
 -39179038.22747 -30509174.19445  22718378.0474                   22718377.4384
 -33557461.66848 -26125723.51845  21142698.8984                   21142697.9924
 -11793896.30547  -9165043.84045  23071192.8134                   23071194.7034
 -52636531.09048 -40988574.68646  21005627.6724                   21005626.5904
 11  8 14  0 18 30.0000000  0  7G09G12G02G17G10G05G04
 -27455341.10547 -21368170.17744  22985993.1804                   22985994.1604
 -20872456.88347 -16239874.51645  22170149.9694                   22170148.7234
 -41307812.22348 -32162351.24046  20738696.0234                   20738692.7814
 -39202206.64147 -30527227.52945  22713969.3834                   22713968.2854
 -33660362.83247 -26205906.21345  21123117.5864                   21123116.8094
 -11964873.19147  -9298272.43045  23038657.3134                   23038658.6174
 -52639358.04748 -40990777.52746  21005089.9694                   21005088.9804
 11  8 14  0 19  0.0000000  0  7G09G12G02G17G10G05G04
 -27458443.91447 -21370588.02744  22985402.6334                   22985404.0314
 -21019780.35547 -16354672.02345  22142115.4304                   22142114.4924
 -41393759.67248 -32229323.24146  20722340.7424                   20722337.3204
 -39225157.42647 -30545111.28745  22709601.8524                   22709600.5634
 -33762597.73847 -26285569.74146  21103663.1254                   21103661.8714
 -12135615.13347  -9431317.92745  23006165.9844                   23006167.4964
 -52641831.88748 -40992705.19646  21004619.2424                   21004618.0904
 11  8 14  0 19 30.0000000  0  7G09G12G02G17G10G05G04
 -27461113.03547 -21372667.92344  22984894.8754                   22984896.1954
 -21166712.55147 -16469164.60845  22114155.2584                   22114154.5044
 -41479273.17248 -32295957.09146  20706067.7814                   20706064.9224
 -39247892.19947 -30562826.73145  22705276.1414                   22705274.4184
 -33864166.80947 -26364714.44146  21084335.0474                   21084334.0554
 -12306121.64547  -9564179.98745  22973719.6094                   22973721.0394
 -52643957.27348 -40994361.34246  21004214.7504                   21004213.6334
 11  8 14  0 20  0.0000000  0  7G09G12G02G17G10G05G04
 -27463352.85947 -21374413.36944  22984468.5314                   22984470.3204
 -21313251.96947 -16583351.13845  22086269.5554                   22086268.9144
 -41564354.42248 -32362254.14446  20689877.4384                   20689874.1764
 -39270411.74647 -30580374.47645  22700990.6484                   22700989.1804
 -33965069.54747 -26443339.92845  21065133.8754                   21065132.6134
 -12476390.22347  -9696856.64245  22941318.4924                   22941319.0394
 -52645737.82048 -40995748.79146  21003875.6484                   21003874.9694
 11  8 14  0 20 30.0000000  0  7G09G12G02G17G10G05G04
 -27465167.88747 -21375827.72244  22984122.9614                   22984125.1564
 -21459396.60547 -16697230.06045  22058459.4534                   22058458.4574
 -41649005.44548 -32428215.95146  20673769.2274                   20673765.4844
 -39292715.98047 -30597754.37345  22696746.7814                   22696744.8164
 -34065305.11347 -26521445.52646  21046059.2424                   21046058.3874
 -12646419.59447  -9829346.90745  22908962.6564                   22908964.2074
 -52647176.45348 -40996869.81346  21003602.0474                   21003600.9304
 11  8 14  0 21  0.0000000  0  7G09G12G02G17G10G05G04
 -27466566.35247 -21376917.54244  22983857.3444                   22983858.4384
 -21605149.32847 -16810803.60445  22030723.6024                   22030721.9694
 -41733232.24248 -32493847.19046  20657741.0634                   20657737.5434
 -39314809.62147 -30614970.21645  22692541.4224                   22692541.2344
 -34164876.77047 -26599033.80346  21027111.8754                   21027110.9104
 -12816211.47347  -9961652.11045  22876651.8284                   22876653.2734
 -52648280.93748 -40997730.45446  21003391.8364                   21003390.9414
 11  8 14  0 21 30.0000000  0  7G09G12G02G17G10G05G04
 -27467546.71947 -21377681.52244  22983671.3284                   22983672.5944
 -21750502.78147 -16924066.01345  22003063.3444                   22003062.2464
 -41817030.77748 -32559144.72046  20641794.4774                   20641791.3874
 -39336687.19547 -30632017.70445  22688378.6334                   22688377.4844
 -34263778.38747 -26676099.96446  21008290.8674                   21008290.4384
 -12985758.08647 -10093766.18545  22844388.3594                   22844389.7544
 -52649048.72748 -40998328.73946  21003245.7344                   21003245.5164
 11  8 14  0 22  0.0000000  0  7G09G12G02G17G10G05G04
 -27468117.88347 -21378126.68744  22983562.5004                   22983564.3094
 -21895459.93747 -17037019.62245  21975479.2974                   21975478.0084
 -41900407.46948 -32624113.54446  20625928.5474                   20625925.2664
 -39358353.54747 -30648900.61945  22684255.9384                   22684254.8404
 -34362013.72348 -26752646.94046  20989597.5784                   20989597.0084
 -13155062.37947 -10225691.43145  22812171.3834                   22812171.5784
                                  21003162.6484                   21003161.2274
 11  8 14  0 22 30.0000000  0  7G09G12G02G17G10G05G04
 -27468281.91847 -21378254.54344  22983532.4064                   22983533.4224
 -22040017.14147 -17149661.58945  21947970.7974                   21947969.6724
 -41983361.61748 -32688753.12846  20610142.7894                   20610139.7664
 -39379807.34447 -30665617.90045  22680173.1884                   22680172.3444
 -34459579.78547 -26828672.41846  20971031.4384                   20971030.4924
 -13324120.05947 -10357424.51045  22779999.9304                   22780001.2704
 -52649599.30148 -40998757.78646  21003140.8834                   21003140.5394
 11  8 14  0 23  0.0000000  0  7G09G12G02G17G10G05G04
 -27468047.07847 -21378071.66644  22983575.4224                   22983578.1604
 -22184176.38747 -17261993.42645  21920538.1254                   21920537.4384
 -42065899.00848 -32753067.94046  20594436.4304                   20594433.2974
 -39401052.76247 -30682172.79345  22676130.3284                   22676129.0394
 -34556480.14847 -26904179.16146  20952591.7344                   20952591.0664
 -13492932.88747 -10488966.83745  22747875.8204                   22747877.2734
 -52649390.42248 -40998595.02946  21003180.9454                   21003180.2274
 11  8 14  0 23 30.0000000  0  7G09G12G02G17G10G05G04
 -27467414.67247 -21377579.00744  22983696.7504                   22983697.9804
 -22327933.04347 -17374011.59545  21893182.0704                   21893180.6644
 -42148018.82447 -32817057.39746  20578809.4534                   20578806.2814
 -39422086.96547 -30698563.12145  22672127.7194                   22672126.4344
 -34652710.69947 -26979163.97846  20934279.5784                   20934278.6054
 -13661495.90247 -10620314.46645  22715799.3134                   22715800.3554
 -52648861.30948 -40998182.73646  21003281.4614                   21003280.9774
 11  8 14  0 24  0.0000000  0  7G09G12G02G17G10G05G04
 -27466384.56647 -21376776.32944  22983892.7424                   22983893.8914
 -22471281.37947 -17485711.55445  21865903.9694                   21865902.7664
 -42229718.04348 -32880719.09546  20563263.0084                   20563259.3674
 -39442905.67247 -30714785.50145  22668166.2504                   22668164.5594
 -34748266.54748 -27053623.02246  20916095.9304                   20916094.9614
 -13829802.61347 -10751462.40345  22683771.5474                   22683772.4454
 -52648010.51648 -40997519.78346  21003443.3204                   21003443.3014
 11  8 14  0 24 30.0000000  0  7G09G12G02G17G10G05G04
 -27464964.53547 -21375669.93344  22984162.7734                   22984164.4064
 -22614223.18047 -17597094.76045  21838702.8674                   21838701.8444
 -42311001.72748 -32944057.02746  20547795.3524                   20547792.0004
 -39463512.90247 -30730843.11545  22664244.3444                   22664243.7544
 -34843150.55148 -27127558.59046  20898040.3364                   20898038.9844
 -13997854.35547 -10882411.65545  22651791.9144                   22651793.2624
 -52646845.21548 -40996611.77046  21003665.0944                   21003664.5314
 11  8 14  0 25  0.0000000  0  7G09G12G02G17G10G05G04
 -27463158.87147 -21374262.98944  22984506.7894                   22984508.2274
 -22756756.49247 -17708159.65645  21811579.9924                   21811578.7664
 -42391871.71148 -33007072.58546  20532406.3054                   20532402.7774
 -39483908.74247 -30746736.01145  22660363.2974                   22660362.2584
 -34937362.28148 -27200970.30246  20880112.8204                   20880111.6454
 -14165649.08647 -11013160.62645  22619862.1094                   22619862.8984
 -52645368.25448 -40995460.90846  21003946.5704                   21003945.5474
 11  8 14  0 25 30.0000000  0  7G09G12G02G17G10G05G04
 -27460966.94947 -21372555.05944  22984923.7734                   22984924.8444
 -22898874.86347 -17818901.21545  21784535.5004                   21784534.4414
 -42472325.30148 -33069763.69046  20517096.3984                   20517092.7154
 -39504088.65647 -30762460.66145  22656523.3134                   22656522.8204
 -35030896.39848 -27273853.97146  20862313.2894                   20862312.7894
 -14333179.51247 -11143703.66945  22587981.6254                   22587982.2114
 -52643578.14548 -40994065.99946  21004286.9224                   21004286.8484
 11  8 14  0 26  0.0000000  0  7G09G12G02G17G10G05G04
 -27458396.58247 -21370552.23944  22985412.8444                   22985415.0664
 -23040580.02747 -17929320.80045  21757570.1024                   21757568.8554
 -42552367.47348 -33132134.20646  20501864.6254                   20501860.7934
 -39524056.66447 -30778020.17745  22652723.6644                   22652723.1414
 -35123755.46547 -27346211.66046  20844642.6564                   20844641.9574
 -14500447.47747 -11274042.21045  22556151.8204                   22556152.3364
 -52641481.49648 -40992432.26646  21004685.7034                   21004685.4414
 11  8 14  0 26 30.0000000  0  7G09G12G02G17G10G05G04
 -25880034.34447 -20140659.64644  23285764.7664                   23285767.1454
 -21606448.28147 -16811815.50045  22030476.3204                   22030474.8954
 -41056579.62548 -31966585.22846  20786503.6414                   20786500.0634
 -37968394.73847 -29565816.13045  22948756.0784                   22948755.3054
 -33640518.15248 -26190442.30546  21126893.5234                   21126892.6024
 -13092027.87947 -10176572.25645  22824164.8284                   22824165.8164
 -51063663.94948 -39762964.04746  21304934.5474                   21304933.8594
 11  8 14  0 27  0.0000000  0  7G09G12G02G17G10G05G04
 -25876719.06247 -20138076.38944  23286396.5474                   23286397.6764
 -21747322.22747 -16921587.37545  22003668.5554                   22003667.7734
 -41135803.55548 -32028318.14746  20771427.7504                   20771424.2074
 -37987939.35546 -29581045.73645  22945036.6724                   22945036.0554
 -33732025.32448 -26261746.55746  21109480.0704                   21109479.1174
 -13258764.53147 -10306496.77845  22792435.9534                   22792436.1914
 -51060963.44548 -39760859.75346  21305448.6564                   21305447.9304
 11  8 14  0 27 30.0000000  0  7G09G12G02G17G10G05G04
 -25873035.98847 -20135206.47844  23287096.9144                   23287098.9224
 -21887775.78947 -17031031.69245  21976940.9454                   21976939.6214
 -41214619.57047 -32089733.22246  20756429.5004                   20756426.0904
 -38007270.85546 -29596109.30345  22941358.2974                   22941357.7934
 -33822854.05148 -26332522.16746  21092195.8754                   21092194.9224
 -13425230.11347 -10436210.06845  22760758.4064                   22760759.0354
 -51057963.93748 -39758522.47846  21306018.9694                   21306018.4224
 11  8 14  0 28  0.0000000  0  7G09G12G02G17G10G05G04
 -25868989.92247 -20132053.75844  23287867.1334                   23287869.0984
 -22027808.59047 -17140148.14546  21950293.9384                   21950292.6454
 -41293030.14147 -32150832.37146  20741508.5864                   20741505.1994
 -38026390.28146 -29611007.57844  22937719.9844                   22937719.4804
 -33913004.69147 -26402769.38546  21075041.1024                   21075039.7544
 -13591423.51647 -10565711.29845  22729133.0314                   22729133.3794
 -51054669.12548 -39755955.08746  21306646.4224                   21306645.5394
 11  8 14  0 28 30.0000000  0  7G09G12G02G17G10G05G04
 -25864582.25847 -20128619.28344  23288705.7734                   23288707.5124
 -22167415.94947 -17248933.08345  21923727.4924                   21923726.3164
 -41371033.79748 -32211614.44446  20726664.8204                   20726661.5204
 -38045294.27747 -29625738.02945  22934122.7194                   22934122.4574
 -34002473.55148 -26472485.35646  21058015.6564                   21058014.5744
 -13757339.27047 -10694996.13645  22697559.9064                   22697560.5004
 -51051079.29348 -39753157.80846  21307329.3204                   21307328.7274
 11  8 14  0 29  0.0000000  0  7G09G12G02G17G10G05G04
 -25859818.68046 -20124907.43744  23289611.8284                   23289614.1954
 -22306596.84047 -17357385.69446  21897242.4144                   21897240.9734
 -41448633.39147 -32272081.66546  20711898.1484                   20711894.6294
 -38063984.95747 -29640302.25844  22930566.2114                   22930565.4304
 -34091261.68748 -26541670.89746  21041119.6414                   21041118.5984
 -13922976.72347 -10824064.13945  22666040.1254                   22666040.7234
 -51047198.75447 -39750134.02946  21308067.6484                   21308066.6604
 11  8 14  0 29 30.0000000  0  7G09G12G02G17G10G05G04
 -25854699.07446 -20120918.21944  23290586.7734                   23290588.3874
 -22445345.31247 -17465501.37745  21870839.0704                   21870837.5744
 -41525826.65648 -32332232.25746  20697208.6024                   20697205.6844
 -38082457.99247 -29654696.86345  22927051.1804                   22927050.0204
 -34179364.07048 -26610322.06846  21024354.0864                   21024353.6804
 -14088329.62547 -10952910.41345  22634574.3364                   22634574.7154
 -51043025.99647 -39746882.51846  21308862.0164                   21308860.9734
 11  8 14  0 30  0.0000000  0  7G09G12G02G17G10G05G04
 -25849228.96947 -20116655.90044  23291627.1804                   23291629.4964
 -22583661.53147 -17573280.23245  21844518.5084                   21844516.9924
 -41602616.70747 -32392068.66146  20682596.2664                   20682592.7894
 -38100715.21947 -29668923.32045  22923576.4774                   22923576.3554
 -34266781.82047 -26678439.78046  21007719.5864                   21007718.2344
 -14253396.95747 -11081534.18145  22603163.0704                   22603163.5514
 -51038565.93047 -39743407.14645  21309710.6564                   21309709.7234
 11  8 14  0 30 30.0000000  0  7G09G12G02G17G10G05G04
 -25843410.99247 -20112122.46744  23292734.5634                   23292736.0944
 -22721542.15247 -17680719.67445  21818280.6414                   21818279.5664
 -41679003.68747 -32451590.99646  20668060.0704                   20668056.5164
 -38118755.41047 -29682980.66544  22920143.5314                   22920142.6174
 -34353513.37547 -26746022.77646  20991214.8204                   20991214.0084
 -14418175.60947 -11209932.98245  22571806.7894                   22571807.3634
 -51033819.99647 -39739709.03346  21310613.9614                   21310612.6294
 11  8 14  0 31  0.0000000  0  7G09G12G02G17G10G05G04
 -25837250.69947 -20107322.28544  23293907.2194                   23293909.2934
 -22858986.99647 -17787819.52045  21792125.5234                   21792124.5434
 -41754991.10948 -32510801.94946  20653599.8834                   20653596.6454
 -38136579.92247 -29696869.95145  22916751.8984                   22916751.3094
 -34439559.57447 -26813071.73346  20974840.8524                   20974839.4924
 -14582664.43447 -11338105.96945  22540505.2114                   22540505.7774
 -51028792.68047 -39735791.63445  21311570.5864                   21311569.7344
 11  8 14  0 31 30.0000000  0  8G09G12G02G17G10G05G25G04
 -25830751.92646 -20102258.38244  23295144.1414                   23295145.6334
 -22995993.71547 -17894577.97545  21766054.1254                   21766053.0164
 -41830580.04347 -32569702.41846  20639216.2814                   20639212.6914
 -38154188.77347 -29710591.19645  22913401.2114                   22913400.9184
 -34524919.69948 -26879586.09746  20958597.0704                   20958596.5514
 -14746860.65247 -11466050.94145  22509259.5944                   22509260.2194
   4478340.01256   3504815.05653  24657933.0004                   24657935.1914
 -51023486.54747 -39731657.00345  21312580.1564                   21312578.9804
 11  8 14  0 32  0.0000000  0  8G09G12G02G17G10G05G25G04
 -25823928.66847 -20096941.61844  23296442.1484                   23296444.0554
 -23132570.23847 -18001001.20445  21740064.7504                   21740063.1644
 -41905781.69547 -32628301.09546  20624905.5944                   20624902.5784
 -38171591.83647 -29724152.07845  22910089.8754                   22910089.1024
 -34609602.79748 -26945572.90646  20942482.6024                   20942481.2734
 -14910771.70347 -11593773.71445  22478068.1564                   22478069.1214
   4308593.91046   3372545.55643  24625631.3834                   24625633.6054
 -51017914.27748 -39727314.98545  21313640.4614                   21313639.2664
 11  8 14  0 32 30.0000000  0  8G09G12G02G17G10G05G25G04
 -25816793.66447 -20091381.96344  23297800.1954                   23297801.7624
 -23268723.15247 -18107094.36346  21714155.8984                   21714153.8984
 -41980606.80948 -32686606.36946  20610667.4224                   20610663.5204
 -38188797.59847 -29737559.19745  22906815.5784                   22906814.6214
 -34693617.36748 -27011038.79146  20926495.1174                   20926494.0664
 -15074404.13747 -11721279.39845  22446929.5784                   22446930.3834
   4139010.95346   3240403.03643  24593360.0164                   24593362.6844
 -51012087.12147 -39722774.36645  21314749.1414                   21314748.3594
 11  8 14  0 33  0.0000000  0  8G09G12G02G17G10G05G25G04
 -25809349.48047 -20085581.36844  23299217.0864                   23299218.3364
 -23404449.08247 -18212854.79845  21688327.5634                   21688326.0514
 -42055055.12548 -32744618.03146  20596500.0004                   20596496.8914
 -38205804.62547 -29750811.47845  22903579.5944                   22903578.6024
 -34776961.49647 -27075982.25446  20910635.2274                   20910634.2384
 -15237754.21947 -11848565.06145  22415845.5864                   22415845.8164
   3969594.32446   3108390.21143  24561121.7274                   24561123.8674
 -51006006.73847 -39718036.42645  21315906.5704                   21315905.3014
 11  8 14  0 33 30.0000000  0  8G09G12G02G17G10G05G25G04
 -25801594.57446 -20079538.68844  23300692.6094                   23300694.8554
 -23539741.05547 -18318277.05746  21662582.2814                   21662581.1094
 -42129122.78948 -32802333.06646  20582405.3834                   20582402.0274
 -38222607.59447 -29763904.71145  22900382.0944                   22900380.8324
 -34859629.02747 -27140398.48846  20894903.9924                   20894902.9734
 -15400813.80547 -11975624.38545  22384816.1334                   22384816.3914
   3800351.30546   2976512.66743  24528915.1724                   24528917.3244
 -50999670.47747 -39713099.08645  21317112.2424                   21317111.1524
 11  8 14  0 34  0.0000000  0  8G09G12G02G17G10G05G25G04
 -25793534.59846 -20073258.26644  23302226.0554                   23302228.2974
 -23674598.62547 -18423360.81145  21636919.7974                   21636918.3094
 -42202813.27348 -32859754.20246  20568382.5084                   20568378.9614
 -38239208.03947 -29776840.16345  22897222.9694                   22897221.9384
 -34941621.18447 -27204288.46246  20879301.0314                   20879300.4844
 -15563582.48047 -12102456.99645  22353842.0004                   22353842.5824
   3631282.33646   2844770.63643  24496742.4454                   24496744.5634
 -50993082.60947 -39707965.70545  21318365.6884                   21318364.7584
 11  8 14  0 34 30.0000000  0  8G09G12G02G17G10G05G25G04
 -25785164.40646 -20066736.15344  23303819.1484                   23303821.0394
 -23809010.97747 -18528097.65946  21611342.0474                   21611340.7504
 -42276119.01248 -32916875.53146  20554432.9304                   20554429.3794
 -38255596.75847 -29789610.63544  22894103.8674                   22894103.5984
 -35022928.64148 -27267644.90146  20863829.0164                   20863827.7234
 -15726048.57447 -12229053.84945  22322925.8984                   22322926.0554
   3462398.27346   2713172.85043  24464603.7194                   24464607.9884
 -50986236.93747 -39702631.44345  21319668.5704                   21319667.8164
 11  8 14  0 35  0.0000000  0  8G09G12G02G17G10G05G25G04
 -25776486.69546 -20059974.42544  23305470.5634                   23305473.0124
 -23942974.98847 -18632485.12745  21585849.1644                   21585847.6684
 -42349040.23048 -32973697.24546  20540556.5004                   20540553.0204
 -38271772.57047 -29802215.16245  22891025.8984                   22891024.7894
 -35103549.99647 -27330466.71145  20848487.3594                   20848486.1294
 -15888208.67647 -12355412.26545  22292067.5944                   22292067.5744
   3293702.41046   2581721.64043  24432503.2894                   24432506.2814
 -50979134.90247 -39697097.42145  21321019.9454                   21321019.1414
 11  8 14  0 35 30.0000000  0  8G09G12G02G17G10G05G25G04
 -25767506.48047 -20052976.97244  23307179.4774                   23307181.6764
 -24076489.18747 -18736522.10246  21560442.5394                   21560441.1644
 -42421579.20748 -33030221.07646  20526752.8444                   20526749.2154
 -38287736.41047 -29814654.56944  22887987.7974                   22887987.0124
 -35183485.12948 -27392753.81245  20833276.0944                   20833274.8794
 -16050060.91447 -12481530.79345  22261268.2584                   22261268.1254
   3125195.85246   2450417.85743  24400438.0004                   24400440.5704
 -50971780.03148 -39691366.38445  21322419.3834                   21322419.1804
 11  8 14  0 36  0.0000000  0  8G09G12G02G17G10G05G25G04
 -25758230.66047 -20045749.16344  23308944.7194                   23308946.6254
 -24209554.96547 -18840209.65346  21535120.6024                   21535119.3874
 -42493740.39148 -33086450.54146  20513021.0704                   20513017.4844
 -38303491.25847 -29826931.09345  22884989.9304                   22884989.4574
 -35262737.10947 -27454508.56746  20818194.8134                   20818193.5824
 -16211605.77347 -12607409.79045  22230526.9924                   22230527.7384
   2956877.49646   2319260.78743  24368407.4454                   24368410.5004
 -50964178.13348 -39685442.85145  21323866.2814                   21323865.3164
 11  8 14  0 36 30.0000000  0  8G09G12G02G17G10G05G25G04
 -25748657.10947 -20038289.38944  23310767.2034                   23310768.6174
 -24342164.37947 -18943541.62145  21509886.0164                   21509884.1334
 -42565519.82447 -33142382.53846  20499361.7734                   20499358.0204
 -38319031.23047 -29839040.18444  22882033.0314                   22882032.6054
 -35341299.85548 -27515726.29046  20803245.0474                   20803244.1454
 -16372835.29747 -12733043.07845  22199845.6884                   22199846.0204
   2788755.18446   2188256.43444  24336414.7114                   24336418.0744
 -50956325.96148 -39679324.32145  21325360.6254                   21325359.7114
 11  8 14  0 37  0.0000000  0  8G09G12G02G17G10G05G25G04
 -25738795.58647 -20030605.18944  23312643.3054                   23312645.9384
 -24474321.25847 -19046520.94146  21484737.4774                   21484736.2664
 -42636924.45748 -33198022.47746  20485773.6094                   20485770.0474
 -38334361.75847 -29850986.05844  22879115.7664                   22879114.8444
 -35419178.53548 -27576410.94346  20788425.2274                   20788424.1414
 -16533752.45747 -12858432.97545  22169224.5314                   22169224.1024
   2620825.30546   2057402.05244  24304458.8834                   24304462.0704
 -50948231.77348 -39673017.21745  21326900.7814                   21326900.1684
 11  8 14  0 37 30.0000000  0  8G09G12G02G17G10G05G25G04
 -25728646.05147 -20022696.61744  23314574.6804                   23314577.0084
 -24606019.53947 -19149142.92146  21459676.1884                   21459674.7274
 -42707952.02748 -33253368.61446  20472257.5084                   20472254.1254
 -38349478.78147 -29862765.56644  22876239.0394                   22876238.5354
 -35496368.99247 -27636559.33646  20773736.7814                   20773735.2544
 -16694351.25047 -12983574.78545  22138663.4144                   22138663.0744
   2453093.78946   1926702.18544  24272540.7974                   24272543.6524
 -50939894.26248 -39666520.49545  21328487.7194                   21328486.3914
 11  8 14  0 38  0.0000000  0  8G09G12G02G17G10G05G25G04
 -25718207.21546 -20014562.61844  23316561.4384                   23316563.3524
 -24737252.00847 -19251401.94046  21434703.1174                   21434701.9574
 -42778598.96948 -33308418.16246  20458813.8524                   20458810.6524
 -38364377.17646 -29874374.74344  22873404.0864                   22873402.8484
 -35572865.90247 -27696167.29645  20759179.3134                   20759178.4024
 -16854623.72747 -13108462.30945  22108164.4774                   22108164.7734
   2285567.75846   1796162.46643  24240661.3284                   24240664.3444
 -50931310.96148 -39659832.26745  21330120.5704                   21330119.8954
 11  8 14  0 38 30.0000000  0  8G09G12G02G17G10G05G25G04
 -24132065.91046 -18778608.46643  23618394.0234                   23618397.0164
 -23292595.02747 -18125695.16546  21709612.7034                   21709610.4534
 -41273446.76248 -32135572.25946  20745234.9224                   20745231.5984
 -36803638.55147 -28658214.77744  23170402.2274                   23170401.5204
 -34073248.32448 -26527634.09946  21044547.0394                   21044545.8444
 -15439144.34047 -12005491.23145  22377520.6724                   22377520.9574
   3693672.47746   2893386.96943  24508614.7424                   24508617.9654
 -49347067.17648 -38425356.63245  21631592.3444                   21631591.6174
 11  8 14  0 39  0.0000000  0  8G09G12G02G17G10G05G25G04
 -24121063.26646 -18770035.08844  23620487.9064                   23620490.4654
 -23422893.44147 -18227226.36846  21684818.0004                   21684815.5904
 -41343339.74648 -32190034.30246  20731934.8134                   20731930.8674
 -36818101.83247 -28669484.90544  23167650.1254                   23167649.5084
 -34148359.68448 -26586162.40245  21030254.0554                   21030252.6914
 -15598759.96547 -12129866.94245  22347146.8524                   22347147.2734
   3526560.87546   2763170.16244  24476814.3594                   24476817.4344
 -49338003.11748 -38418293.77245  21633317.2504                   21633316.6764
 11  8 14  0 39 30.0000000  0  8G09G12G02G17G10G05G25G04
 -24109784.18046 -18761246.33543  23622633.9694                   23622636.9614
 -23552721.38347 -18328390.98546  21660111.6954                   21660110.2424
 -41412857.30147 -32244203.80146  20718705.8914                   20718702.4264
 -36832347.06247 -28680585.12844  23164940.1724                   23164938.5274
 -34222777.47747 -26644150.28546  21016092.7274                   21016091.7034
 -15758042.87947 -12253983.38345  22316836.5474                   22316836.7234
   3359660.03546   2633117.63843  24445054.4614                   24445057.2734
 -49328702.09848 -38411046.26045  21635087.1254                   21635086.8554
 11  8 14  0 40  0.0000000  0  8G09G12G02G17G10G05G25G04
 -24098230.12946 -18752243.33244  23624833.2114                   23624835.5664
 -23682074.74247 -18429185.78746  21635496.9844                   21635495.2384
 -41481998.84848 -32298080.32346  20705548.7504                   20705545.0084
 -36846372.36347 -28691513.95444  23162270.6254                   23162269.7344
 -34296499.43747 -26701595.95846  21002064.0234                   21002063.1374
 -15916988.50847 -12377837.01845  22286590.3444                   22286590.0944
   3192974.29347   2503232.61744  24413335.7344                   24413337.7624
 -49319164.44948 -38403614.38345  21636902.5554                   21636901.5634
 11  8 14  0 40 30.0000000  0  8G09G12G02G17G10G05G25G04
 -24086407.35946 -18743030.91044  23627083.2034                   23627085.5704
 -23810953.82447 -18529611.04146  21610972.0394                   21610970.6644
 -41550768.64848 -32351667.16346  20692461.9774                   20692458.5314
 -36860179.60947 -28702272.88044  23159642.7584                   23159642.4534
 -34369527.72347 -26758501.10146  20988167.1254                   20988166.0784
 -16075596.53547 -12501427.57545  22256408.4614                   22256408.0514
   3026503.25047   2373514.95744  24381657.0004                   24381659.4734
 -49309395.11348 -38396001.94445  21638761.3914                   21638760.7814
 11  8 14  0 41  0.0000000  0  8G09G12G02G17G10G05G25G04
 -24074315.61346 -18733608.90444  23629384.8984                   23629386.3594
 -23939352.48847 -18629661.94246  21586538.6724                   21586537.0944
 -41619163.84848 -32404962.11446  20679446.9454                   20679443.6024
 -36873764.53947 -28712858.58944  23157057.9614                   23157057.9844
 -34441857.87947 -26814862.25346  20974403.1254                   20974401.8714
 -16233860.46547 -12624750.02045  22226291.2584                   22226291.1294
   2860253.32846   2243969.59843  24350020.6484                   24350022.8834
 -49299392.35947 -38388207.61745  21640664.5864                   21640664.3874
 11  8 14  0 41 30.0000000  0  8G09G12G02G17G10G05G25G04
 -24061961.07447 -18723982.11144  23631734.7114                   23631737.8874
 -24067271.23847 -18729338.88346  21562196.1724                   21562194.8484
 -41687188.22348 -32457968.10346  20666502.2034                   20666498.9344
 -36887129.30547 -28723272.71544  23154515.2664                   23154514.7894
 -34513492.50848 -26870681.40646  20960771.5944                   20960770.4614
 -16391780.06247 -12747804.14345  22196240.3204                   22196240.5164
   2694224.14847   2114596.29644  24318426.2664                   24318429.1454
 -49289161.10248 -38380235.22845  21642611.8284                   21642611.2304
 11  8 14  0 42  0.0000000  0  8G09G12G02G17G10G05G25G04
 -24049348.56247 -18714154.29444  23634135.3914                   23634138.2504
 -24194709.21547 -18828641.20146  21537945.6334                   21537943.6884
 -41754844.14548 -32510686.98946  20653627.7974                   20653624.5704
 -36900274.81247 -28733516.01144  23152013.7894                   23152013.3714
 -34584432.01247 -26925958.93646  20947271.9534                   20947270.8674
 -16549354.02347 -12870588.94645  22166254.5704                   22166254.5554
   2528416.97346   1985395.98944  24286874.3984                   24286876.2664
 -49278704.94548 -38372087.60545  21644601.8444                   21644601.1174
 11  8 14  0 42 30.0000000  0  8G09G12G02G17G10G05G25G04
 -24036486.15646 -18704131.78444  23636582.8754                   23636586.0164
 -24321667.97347 -18927570.13346  21513786.3284                   21513784.4654
 -41822137.47747 -32563123.34646  20640822.4454                   20640819.3324
 -36913204.81247 -28743591.39244  23149553.4774                   23149552.7504
 -34654680.63748 -26980698.11946  20933904.2664                   20933903.1804
 -16706583.62947 -12993105.43745  22136334.6254                   22136334.5594
   2362829.83247   1856367.18543  24255363.6884                   24255365.8244
 -49268030.26647 -38363769.70645  21646633.4224                   21646632.3324
 11  8 14  0 43  0.0000000  0  8G09G12G02G17G10G05G25G04
 -24023375.58247 -18693915.87444  23639078.0704                   23639081.0514
 -24448144.04347 -19026122.91746  21489718.8054                   21489717.1094
 -41889067.36748 -32615276.50246  20628086.0474                   20628082.6914
 -36925917.42647 -28753497.37644  23147133.7424                   23147133.2934
 -34724236.15648 -27034897.20446  20920668.3054                   20920667.2464
 -16863464.75847 -13115350.33445  22106481.4224                   22106480.9064
   2197467.05147   1727513.06943  24223896.1334                   24223898.6174
 -49257137.46148 -38355281.82545  21648705.8524                   21648705.1804
 11  8 14  0 43 30.0000000  0  8G09G12G02G17G10G05G25G04
 -24010019.05546 -18683508.28644  23641619.6484                   23641621.9344
 -24574133.89147 -19124296.83046  21465743.9224                   21465742.3594
 -41955633.90648 -32667146.52246  20615418.8204                   20615415.0514
 -36938410.64147 -28763232.41044  23144756.1564                   23144755.5514
 -34793096.98048 -27088554.96746  20907564.6334                   20907563.5164
 -17019993.02047 -13237320.33845  22076695.3444                   22076694.4694
   2032332.31647   1598836.79643  24192472.3134                   24192474.5944
 -49246027.48448 -38346624.71645  21650820.0784                   21650819.2234
 11  8 14  0 44  0.0000000  0  8G09G12G02G17G10G05G25G04
 -23996417.76246 -18672909.97343  23644207.8834                   23644210.3204
 -24699632.63747 -19222088.07446  21441861.8674                   21441860.2464
 -42021835.91847 -32718732.50846  20602821.0394                   20602817.6214
 -36950681.70347 -28772794.34244  23142421.9454                   23142420.9774
 -34861260.37947 -27141669.29046  20894593.1724                   20894592.2504
 -17176163.25847 -13359011.33945  22046976.7814                   22046976.2934
   1867430.51246   1470342.00543  24161092.4534                   24161095.2974
 -49234699.99647 -38337798.11445  21652975.8134                   21652974.8204
 11  8 14  0 44 30.0000000  0  8G09G12G02G17G10G05G25G04
 -23982575.44546 -18662123.84343  23646841.9774                   23646844.9104
 -24824638.54347 -19319495.27946  21418074.1094                   21418072.9414
 -42087674.86747 -32770035.57146  20590292.3754                   20590289.0044
 -36962730.65647 -28782183.20644  23140128.3134                   23140128.2074
 -34928726.20747 -27194240.05046  20881755.0084                   20881754.1294
 -17331973.23847 -13480421.60045  22017326.7664                   22017326.4344
   1702763.76247   1342030.33243  24129757.2114                   24129760.1524
 -49223157.71147 -38328804.12645  21655172.0704                   21655171.0004
 11  8 14  0 45  0.0000000  0  8G09G12G02G17G10G05G25G04
 -23968497.95747 -18651154.44244  23649520.7734                   23649523.6174
 -24949151.69547 -19416518.51746  21394380.3204                   21394378.6454
 -42153154.55148 -32821058.70446  20577831.8984                   20577828.3754
 -36974559.07447 -28791400.20344  23137878.2424                   23137878.2894
 -34995496.68047 -27246268.96746  20869049.2344                   20869048.0984
 -17487422.14147 -13601550.53045  21987746.4384                   21987745.2774
   1538332.23447   1213901.99143  24098466.9384                   24098469.5784
 -49211404.94947 -38319646.13945  21657408.1414                   21657407.7384
 11  8 14  0 45 30.0000000  0  8G09G12G02G17G10G05G25G04
 -23954190.74247 -18640006.11544  23652244.3204                   23652246.4344
 -25073171.96147 -19513157.68046  21370779.4224                   21370778.4304
 -42218278.01647 -32871804.25446  20565438.9454                   20565435.8284
 -36986168.90247 -28800446.88945  23135669.3754                   23135669.3204
 -35061573.93047 -27297757.70946  20856474.6254                   20856473.8524
 -17642509.39547 -13722397.65445  21958233.7734                   21958233.5864
   1374136.25446   1085957.17643  24067220.9694                   24067223.5904
 -49199445.98847 -38310327.46545  21659683.8204                   21659683.4964
 11  8 14  0 46  0.0000000  0  8G09G12G02G17G10G05G25G04
 -23939653.15246 -18628678.18943  23655010.9454                   23655013.4224
 -25196692.77747 -19609407.65146  21347274.2194                   21347272.8094
 -42283042.10947 -32922269.76846  20553115.3364                   20553111.8524
 -36997555.16047 -28809319.34345  23133501.8204                   23133502.7664
 -35126953.27347 -27348702.64746  20844033.5864                   20844032.4184
 -17797228.00447 -13842957.49445  21928791.5084                   21928790.9774
   1210182.69147    958201.26243  24036021.3524                   24036024.0904
 -49187278.62547 -38300846.39745  21661999.3284                   21661998.6484
 11  8 14  0 46 30.0000000  0  8G09G12G02G17G10G05G25G04
 -23924893.98846 -18617177.64843  23657819.3754                   23657821.6604
 -25319717.34047 -19705270.92846  21323864.0234                   21323862.5634
 -42347453.56647 -32972460.50846  20540858.2344                   20540854.6294
 -37008722.93447 -28818021.53945  23131377.2504                   23131377.6294
 -35191639.83647 -27399107.73046  20831724.0084                   20831723.1294
 -17951580.52047 -13963232.09145  21899419.4694                   21899418.5634
   1046468.55546    830631.89143  24004867.5704                   24004870.4534
 -49174910.23847 -38291208.71045  21664352.9144                   21664352.6374
 11  8 14  0 47  0.0000000  0  8G09G12G02G17G10G05G25G04
 -23909918.40246 -18605508.50443  23660668.9304                   23660671.4884
 -25442244.77347 -19800746.83746  21300547.6174                   21300546.2154
 -42411514.89548 -33022378.41846  20528667.5634                   20528663.9654
 -37019673.09447 -28826554.16745  23129293.3134                   23129293.2544
 -35255634.87547 -27448973.98746  20819546.2584                   20819545.4414
 -18105565.48447 -14083220.30145  21870117.0234                   21870116.8674
    882995.05947    703250.07044  23973760.1644                   23973762.6764
 -49162344.34847 -38281417.10745  21666744.3914                   21666743.5164
 11  8 14  0 47 30.0000000  0  8G09G12G02G17G10G05G25G04
 -23894724.24646 -18593669.01143  23663560.2894                   23663563.5824
 -25564267.55147 -19895829.50246  21277327.3284                   21277325.6334
 -42475221.85947 -33072020.19446  20516544.7034                   20516540.6294
 -37030399.98447 -28834912.81244  23127252.1414                   23127251.6914
 -35318933.09847 -27498297.25346  20807500.8834                   20807500.1564
 -18259174.82847 -14202915.79946  21840885.9384                   21840885.4654
    719770.14147    576061.90944  23942698.9454                   23942701.6844
 -49149577.80947 -38271469.14945  21669173.7584                   21669173.5234
 11  8 14  0 48  0.0000000  0  8G09G12G02G17G10G05G25G04
 -23879314.43046 -18581661.41043  23666492.1484                   23666495.2624
 -25685782.87147 -19990516.75046  21254203.5554                   21254202.2624
 -42538575.20747 -33121386.42046  20504488.7114                   20504485.2034
 -37040902.31647 -28843096.44844  23125253.8444                   23125252.7464
 -35381533.47347 -27547076.74646  20795588.6254                   20795587.6994
 -18412405.39847 -14322316.15646  21811727.1804                   21811726.4104
    556796.96147    449069.92844  23911685.8134                   23911688.9024
 -49136611.87947 -38261365.82545  21671641.4454                   21671640.4614
 11  8 14  0 48 30.0000000  0  8G09G12G02G17G10G05G25G04
 -23863695.82846 -18569491.20943  23669465.1724                   23669467.3554
 -25806792.08247 -20084809.62346  21231176.6484                   21231174.7774
 -42601579.55948 -33170480.70046  20492499.5704                   20492495.9344
 -37051183.15647 -28851107.53144  23123297.3674                   23123295.5204
 -35443439.30947 -27595315.03446  20783808.1174                   20783807.2464
 -18565257.57047 -14441421.65845  21782640.2194                   21782640.0744
    394074.62947    322273.41244  23880721.0864                   23880723.7774
 -49123451.97747 -38251111.36045  21674145.3364                   21674145.0634
 11  8 14  0 49  0.0000000  0  8G09G12G02G17G10G05G25G04
 -23847873.06646 -18557161.85543  23672475.4454                   23672478.4574
 -25927294.21547 -20178707.37246  21208245.4454                   21208243.8364
 -42664237.17248 -33219304.79446  20480576.4064                   20480572.6724
 -37061243.33647 -28858946.64144  23121383.0704                   23121381.5044
 -35504651.74247 -27643013.00846  20772160.0554                   20772159.1134
 -18717729.52747 -14560230.88246  21753626.1094                   21753625.4614
    231604.61347    195673.50844  23849804.2194                   23849806.8324
 -49110101.44547 -38240708.35145  21676685.5554                   21676685.3134
 11  8 14  0 49 30.0000000  0  8G09G12G02G17G10G05G25G04
 -23831846.65646 -18544673.85743  23675524.6484                   23675528.7194
 -26047283.91447 -20272205.81546  21185412.3204                   21185410.6484
 -42726546.25048 -33267857.30146  20468718.9144                   20468715.4924
 -37071078.70347 -28866610.57344  23119511.4614                   23119511.7274
 -35565168.15247 -27690168.62846  20760643.9694                   20760643.0744
 -18869815.95747 -14678739.70646  21724684.3674                   21724684.1684
     69392.34847     69274.42244  23818935.8754                   23818938.1884
 -49096559.16847 -38230155.91545  21679262.4694                   21679262.1174
 11  8 14  0 50  0.0000000  0  8G09G12G02G17G10G05G25G04
 -23815621.89846 -18532031.26143  23678612.8754                   23678616.1454
 -26166761.11347 -20365304.91646  21162676.9774                   21162675.0704
 -42788509.97347 -33316140.70546  20456927.8054                   20456924.1174
 -37080691.81647 -28874101.30844  23117681.8134                   23117681.5664
 -35624990.29747 -27736783.26046  20749260.1564                   20749259.0434
 -19021515.81647 -14796947.30446  21695817.0474                   21695816.3834
    -92561.38347    -56923.17944  23788117.0944                   23788119.5594
 -49082829.15247 -38219457.22745  21681875.2114                   21681874.9454
 11  8 14  0 50 30.0000000  0  8G09G12G02G17G10G05G25G04
 -22223781.64546 -17291636.39043  23981530.7894                   23981533.0204
 -24710298.03147 -19230398.59046  21439832.2274                   21439830.7894
 -41274706.60947 -32136553.64846  20744994.7734                   20744991.1254
 -35514660.12147 -27653816.88544  23415688.3594                   23415687.9384
 -34108695.14547 -26555254.54945  21037801.4534                   21037800.5234
 -17597399.99247 -13687246.57046  21966816.9064                   21966816.3954
   1321172.43047   1044687.71444  24057141.6954                   24057144.0354
 -47493492.69547 -36981013.22945  21984316.2504                   21984315.5314
 11  8 14  0 51  0.0000000  0  8G09G12G02G17G10G05G25G04
 -22207169.82446 -17278692.17543  23984691.1724                   23984694.5124
 -24828742.66048 -19322693.10646  21417293.1804                   21417291.8404
 -41335982.72348 -32184301.25746  20733334.3054                   20733330.9804
 -35523825.45747 -27660958.68444  23413943.8914                   23413943.5634
 -34167127.85548 -26600786.51246  21026682.1954                   21026681.1254
 -17748317.50447 -13804844.56846  21938098.4064                   21938097.8524
   1159744.17246    918899.55244  24026422.7664                   24026424.9224
 -47479392.38347 -36970026.00245  21986999.6024                   21986999.1914
 11  8 14  0 51 30.0000000  0  8G09G12G02G17G10G05G25G04
 -22190369.17247 -17265600.82044  23987888.8524                   23987891.8754
 -24946667.52347 -19414582.57446  21394852.5004                   21394851.3094
 -41396916.32448 -32231781.97246  20721739.1954                   20721735.9534
 -35532765.87147 -27667925.22644  23412242.0784                   23412241.8094
 -34224865.46547 -26645776.82946  21015695.0704                   21015693.8834
 -17898839.32447 -13922134.20546  21909454.6884                   21909454.9614
    998582.94546    793319.48544  23995754.7584                   23995756.8634
 -47465109.35247 -36958896.38145  21989717.4454                   21989716.6174
 11  8 14  0 52  0.0000000  0  8G09G12G02G17G10G05G25G04
 -22173384.96547 -17252366.46944  23991120.9224                   23991124.2074
 -25064072.27047 -19506066.79146  21372511.2114                   21372509.3554
 -41457510.60248 -32278998.28646  20710208.7344                   20710204.3754
 -35541482.66447 -27674717.52844  23410583.0004                   23410583.0824
 -34281909.85547 -26690226.98446  21004839.4774                   21004838.5944
 -18048964.45747 -14039114.76246  21880887.0634                   21880886.3714
    837689.52047    667948.07944  23965137.2344                   23965139.4144
 -47450647.53947 -36947627.44845  21992469.6484                   21992468.8364
 11  8 14  0 52 30.0000000  0  8G09G12G02G17G10G05G25G04
 -22156221.02046 -17238992.07743  23994386.5084                   23994390.6134
 -25180955.13747 -19597144.34146  21350269.3444                   21350267.4654
 -41517766.75848 -32325951.12146  20698742.2274                   20698738.1724
 -35549975.75447 -27681335.51444  23408967.3984                   23408967.1024
 -34338261.78947 -26734137.55745  20994116.4144                   20994115.4844
 -18198690.78147 -14155784.55846  21852395.1094                   21852394.7074
    677066.11747    542787.08744  23934572.0474                   23934574.3984
 -47436009.07047 -36936220.87245  21995255.2584                   21995254.3714
 11  8 14  0 53  0.0000000  0  8G09G12G02G17G10G05G25G04
 -22138876.32846 -17225476.87843  23997687.7274                   23997691.1484
 -25297309.60547 -19687810.14146  21328127.3674                   21328126.0554
 -41577681.64548 -32372638.03946  20687340.2194                   20687336.8164
 -35558240.57447 -27687775.65244  23407394.5084                   23407394.0594
 -34393916.80147 -26777505.07646  20983525.6644                   20983524.3794
 -18348010.99247 -14272137.89646  21823980.5394                   21823979.4024
    516719.69147    417841.95744  23904058.9384                   23904061.4024
 -47421191.59847 -36924674.80445  21998075.0394                   21998074.2854
 11  8 14  0 53 30.0000000  0  8G09G12G02G17G10G05G25G04
 -22121354.52346 -17211823.60643  24001021.9774                   24001025.1844
 -25413133.79747 -19778062.74446  21306086.8674                   21306085.3914
 -41637257.01248 -32419060.37946  20676003.8674                   20676000.3204
 -35566276.65646 -27694037.55944  23405864.4064                   23405864.4144
 -34448875.60247 -26820330.07346  20973067.3204                   20973066.2194
 -18496922.68447 -14388172.90646  21795642.9614                   21795642.9414
    356652.53947    293114.36544  23873599.2114                   23873601.7114
 -47406197.44547 -36912991.06945  22000927.4304                   22000927.5554
 11  8 14  0 54  0.0000000  0  8G09G12G02G17G10G05G25G04
 -22103666.10546 -17198040.60043  24004388.1334                   24004390.7074
 -25528433.04747 -19867906.30246  21284146.3674                   21284144.7194
 -41696501.22748 -32465224.69246  20664730.0314                   20664726.4964
 -35574090.71546 -27700126.48444  23404377.9534                   23404378.1094
 -34503145.48847 -26862618.28745  20962740.2894                   20962738.9574
 -18645430.07047 -14503892.87846  21767383.1174                   21767382.7154
    196860.13347    168600.90444  23843191.8444                   23843193.5634
 -47391035.37947 -36901176.50345  22003812.9144                   22003812.8404
 11  8 14  0 54 30.0000000  0  8G09G12G02G17G10G05G25G04
 -22085811.78546 -17184128.24143  24007785.7344                   24007788.7934
 -25643202.19547 -19957336.79446  21262306.4774                   21262305.0004
 -41755412.52048 -32511129.58146  20653519.5944                   20653516.2734
 -35581679.39547 -27706039.75444  23402934.6414                   23402933.6094
 -34556723.56647 -26904367.41146  20952544.4694                   20952543.3444
 -18793527.79347 -14619293.62346  21739200.9534                   21739200.5004
     37348.06647     44305.83944  23812837.4924                   23812838.8324
 -47375704.57447 -36889230.40945  22006730.4224                   22006730.2234
 11  8 14  0 55  0.0000000  0  8G09G12G02G17G10G05G25G04
 -22067794.88346 -17170089.23143  24011214.4774                   24011217.3984
 -25757439.32447 -20046352.72746  21240567.7504                   21240566.0554
 -41813992.10248 -32556775.99346  20642372.1564                   20642368.4224
 -35589042.54747 -27711777.31944  23401534.0164                   23401533.1764
 -34609610.22747 -26945577.77546  20942480.7584                   20942479.5004
 -18941213.20747 -14734373.10446  21711097.4774                   21711097.0744
   -121881.30947    -79768.93944  23782537.0634                   23782538.6414
 -47360207.18747 -36877154.56345  22009679.3594                   22009678.7504
 11  8 14  0 55 30.0000000  0  8G09G12G02G17G10G05G25G04
 -22049619.52346 -17155926.71543  24014673.8284                   24014676.7974
 -25871143.03548 -20134953.01946  21218930.8364                   21218928.8794
 -41872242.12548 -32602165.59746  20631287.2114                   20631283.9414
 -35596180.77346 -27717339.59444  23400175.0314                   23400175.5124
 -34661806.85247 -26986250.42746  20932547.8284                   20932546.4024
 -19088484.30547 -14849129.72446  21683072.5784                   21683072.0664
   -280825.95747   -203621.87144  23752290.9534                   23752292.4224
 -47344545.65247 -36864950.81345  22012660.3594                   22012659.2074
 11  8 14  0 56  0.0000000  0  8G09G12G02G17G10G05G25G04
 -22031285.50847 -17141640.56344  24018162.3524                   24018164.9454
 -25984308.06648 -20223133.55846  21197396.0164                   21197393.9384
 -41930160.18047 -32647296.53046  20620266.0084                   20620262.6484
 -35603089.53947 -27722723.07044  23398859.8594                   23398860.9344
 -34713310.03948 -27026382.76946  20922746.6484                   20922745.8444
 -19235334.81247 -14963558.61746  21655127.9384                   21655127.2974
   -439479.79747   -327248.19644  23722100.0944                   23722101.9884
 -47328718.29747 -36852617.84345  22015672.0394                   22015671.4734
 11  8 14  0 56 30.0000000  0  8G09G12G02G17G10G05G25G04
 -22012799.43747 -17127235.95444  24021680.3754                   24021683.1884
 -26096935.32048 -20310895.05046  21175963.9844                   21175962.5664
 -41987750.43447 -32692172.03346  20609306.9144                   20609303.2424
 -35609771.60546 -27727929.87444  23397588.5704                   23397589.7194
 -34764123.22747 -27065977.44346  20913077.7814                   20913076.3794
 -19381765.09847 -15077660.07646  21627262.9844                   21627262.2774
   -597843.28947   -450648.25144  23691964.2814                   23691966.7194
 -47312730.09047 -36840159.50845  22018714.1414                   22018713.6414
 11  8 14  0 57  0.0000000  0  8G09G12G02G17G10G05G25G04
 -21994163.76247 -17112714.68643  24025226.5634                   24025229.2384
 -26209021.78148 -20398235.13046  21154634.6254                   21154632.8914
 -42045013.28548 -32736792.42246  20598410.2664                   20598406.9614
 -35616225.61747 -27732958.95644  23396360.4694                   23396361.5204
 -34814245.78948 -27105033.96946  20903539.5784                   20903538.1524
 -19527771.62147 -15191431.32646  21599478.4924                   21599478.3284
   -755912.91047   -573819.33744  23661884.3594                   23661887.3484
 -47296582.10547 -36827576.66945  22021787.2194                   22021785.9224
 11  8 14  0 57 30.0000000  0  8G09G12G02G17G10G05G25G04
 -21975382.80547 -17098080.29343  24028800.6804                   24028803.1764
 -26320566.71148 -20485153.24746  21133408.3134                   21133406.6804
 -42101951.38747 -32781159.75546  20587575.5944                   20587572.0124
 -35622452.63347 -27737811.21344  23395175.4924                   23395176.3054
 -34863679.73848 -27143553.91346  20894132.7584                   20894131.8244
 -19673352.83247 -15304871.15946  21571775.6254                   21571775.2234
   -913687.09847   -696760.23644  23631860.9844                   23631862.6914
 -47280277.09447 -36814871.47945  22024889.6644                   22024889.5204
 11  8 14  0 58  0.0000000  0  8G09G12G02G17G10G05G25G04
 -21956457.95347 -17083333.67643  24032401.2034                   24032404.3984
 -26431566.00848 -20571646.18246  21112285.7584                   21112284.1994
 -42158563.53547 -32825273.07846  20576802.2814                   20576798.7854
 -35628449.87947 -27742484.35544  23394034.5314                   23394034.6804
 -34912422.98848 -27181535.64746  20884857.1564                   20884855.8244
 -19818504.19947 -15417976.05246  21544154.4304                   21544153.7504
  -1071161.18446   -819467.25744  23601894.7344                   23601896.6684
 -47263814.96547 -36802043.87345  22028022.6334                   22028021.6174
 11  8 14  0 58 30.0000000  0  8G09G12G02G17G10G05G25G04
 -21937397.07447 -17068481.08643  24036028.8364                   24036031.5514
 -26542022.38348 -20657716.06046  21091266.6094                   21091265.0864
 -42214855.58247 -32869137.00046  20566089.9534                   20566086.3754
 -35634221.47747 -27746981.71744  23392936.8204                   23392935.7504
 -34960480.45748 -27218983.00846  20875711.7194                   20875710.4964
 -19963227.60947 -15530747.46146  21516614.3444                   21516613.3874
  -1228336.94147   -941941.82044  23571985.1804                   23571987.3404
 -47247201.94547 -36789098.67545  22031183.4844                   22031183.3524
 11  8 14  0 59  0.0000000  0  8G09G12G02G17G10G05G25G04
 -21918202.23446 -17053524.20543  24039682.1484                   24039684.5234
 -26651932.70348 -20743360.44046  21070351.3834                   21070349.9144
 -42270827.75847 -32912751.65046  20555439.0554                   20555435.6294
 -35639766.02047 -27751302.15244  23391880.9694                   23391880.3524
 -35007851.49648 -27255895.48846  20866697.6334                   20866696.3714
 -20107518.96947 -15643182.23446  21489156.6334                   21489155.6094
  -1385210.72746  -1064181.07744  23542132.4384                   23542135.0004
 -47230438.66847 -36776036.41445  22034373.9774                   22034373.2074
 11  8 14  0 59 30.0000000  0  8G09G12G02G17G10G05G25G04
 -21898877.43446 -17038465.96843  24043358.6174                   24043361.3834
 -26761295.39848 -20828578.08646  21049540.2504                   21049538.9454
 -42326481.60548 -32956118.27046  20544848.9844                   20544844.8914
 -35645083.66047 -27755445.70844  23390868.9224                   23390868.0864
 -35054537.60248 -27292274.24346  20857813.3754                   20857812.0314
 -20251376.39147 -15755278.85546  21461780.9694                   21461780.3674
  -1541780.46147  -1186183.40944  23512338.7424                   23512341.0164
 -47213527.48447 -36762858.89445  22037592.0864                   22037591.3244
 11  8 14  1  0  0.0000000  0  8G09G12G02G17G10G05G25G04
 -21879424.97746 -17023308.27143  24047060.8984                   24047064.0164
 -26870107.52048 -20913366.70546  21028834.5234                   21028832.3674
 -42381817.39848 -32999237.04846  20534318.3984                   20534315.0004
 -35650172.67646 -27759411.20044  23389900.7344                   23389900.7974
 -35100538.09848 -27328118.76546  20849060.1564                   20849058.2464
 -20394795.89147 -15867034.23746  21434489.0474                   21434488.7974
  -1698042.26246  -1307945.80144  23482602.6334                   23482605.5354
 -47196469.37547 -36749566.85245  22040837.6804                   22040837.1134
 11  8 14  1  0 30.0000000  0  8G09G12G02G17G10G05G25G04
 -21859847.02346 -17008052.72743  24050786.4304                   24050789.3674
 -26978366.21548 -20997724.10246  21008233.1644                   21008231.4414
 -42436835.00048 -33042107.89546  20523849.0864                   20523845.4534
 -35655031.80546 -27763197.53444  23388975.4774                   23388975.4924
 -35145852.67648 -27363428.81746  20840436.7894                   20840435.3324
 -20537774.02347 -15978445.70446  21407281.1954                   21407281.0124
  -1853992.52047  -1429465.40844  23452926.4694                   23452929.3204
 -47179264.88347 -36736160.75945  22044111.7424                   22044111.6374
 11  8 14  1  1  0.0000000  0  8G09G12G02G17G10G05G25G04
 -21840147.78946 -16992702.90642  24054534.6024                   24054538.8094
 -27086070.39848 -21081649.38246  20987737.2114                   20987735.9304
 -42491536.91048 -33084732.74046  20513439.3364                   20513436.3754
 -35659661.62146 -27766805.15744  23388095.2734                   23388095.1524
 -35190482.49247 -27398205.28846  20831944.2194                   20831942.6564
 -20680309.13747 -16089511.96246  21380158.0394                   21380157.3204
  -2009629.55147  -1550740.94844  23423309.9614                   23423312.4534
 -47161916.41047 -36722642.46345  22047413.7734                   22047412.7854
 11  8 14  1  1 30.0000000  0  8G09G12G02G17G10G05G25G04
 -21820328.52346 -16977259.43443  24058306.6804                   24058310.3914
 -27193216.23448 -21165139.60746  20967348.3444                   20967346.7274
 -42545922.21148 -33127110.88646  20503090.3754                   20503086.7274
 -35664059.63746 -27770232.18144  23387257.8284                   23387258.1214
 -35234426.43448 -27432447.29746  20823581.6414                   20823580.4774
 -20822396.53947 -16200229.35046  21353119.1564                   21353118.5944
  -2164948.64547  -1671768.75244  23393753.7734                   23393755.8014
 -47144424.07847 -36709012.09145  22050742.1414                   22050741.5274
 11  8 14  1  2  0.0000000  0  8G09G12G02G17G10G05G25G04
 -21800395.83246 -16961727.71043  24062099.4224                   24062103.5634
 -27299805.03548 -21248195.76946  20947065.0234                   20947063.3754
 -42599995.41448 -33169245.83546  20492800.6954                   20492797.1914
 -35668228.59846 -27773480.74843  23386464.8444                   23386464.0904
 -35277688.33648 -27466157.85346  20815349.3284                   20815347.9344
 -20964036.89547 -16310598.39046  21326166.0704                   21326165.8484
  -2319950.34047  -1792549.22044  23364257.4304                   23364259.8164
 -47126792.69547 -36695273.38245  22054096.8834                   22054096.7974
 11  8 14  1  2 30.0000000  0  8G09G12G02G17G10G05G25G04
 -21780353.04346 -16946110.13143  24065913.6254                   24065917.0514
 -27405835.06648 -21330816.54046  20926888.7504                   20926886.6604
 -42653757.78548 -33211138.58646  20482570.0704                   20482566.4614
 -35672168.23846 -27776550.62143  23385714.8364                   23385714.7274
 -35320268.65248 -27499337.29946  20807246.9694                   20807245.2424
 -21105227.57448 -16420617.03946  21299298.3204                   21299297.6684
  -2474632.11747  -1913080.41944  23334822.4774                   23334824.4884
 -47109024.10947 -36681427.73745  22057478.6644                   22057477.9184
 11  8 14  1  3  0.0000000  0  8G09G12G02G17G10G05G25G04
 -20184779.10946 -15702805.97943  24369542.4534                   24369545.4224
 -25935875.94148 -20185393.79246  21206612.0944                   21206610.5004
 -41131783.62148 -32025184.66946  20772191.9454                   20772188.3484
 -34100453.16446 -26551837.56944  23684802.2504                   23684801.8054
 -33786741.91848 -26304381.39246  21099066.8674                   21099065.4414
 -19670536.43047 -15302675.82146  21572311.1884                   21572310.3014
  -1053561.09847   -805752.27544  23605243.8594                   23605245.7704
 -45515695.37547 -35439872.88345  22360678.9614                   22360678.3284
 11  8 14  1  3 30.0000000  0  8G09G12G02G17G10G05G25G04
 -20164517.53546 -15687017.96243  24373397.7274                   24373401.1724
 -26040774.41048 -20267132.81746  21186650.5704                   21186649.1724
 -41184919.03548 -32066588.88646  20762080.7424                   20762077.4264
 -34103924.27346 -26554542.34744  23684142.5784                   23684141.9454
 -33827952.93748 -26336493.85646  21091224.9774                   21091223.7504
 -19810811.52048 -15411981.01846  21545617.1334                   21545616.9884
  -1207586.28147   -925771.82644  23575933.1024                   23575935.3674
 -45497648.43747 -35425810.34945  22364113.1954                   22364112.0664
 11  8 14  1  4  0.0000000  0  8G09G12G02G17G10G05G25G04
 -20144153.63346 -15671150.19843  24377272.9534                   24377276.6954
 -26145106.78548 -20348430.74646  21166796.7974                   21166795.2624
 -41237745.26648 -32107752.17146  20752028.2034                   20752024.8914
 -34107163.11746 -26557066.10944  23683525.6884                   23683524.5004
 -33868482.98447 -26368075.70346  21083512.2734                   21083510.8874
 -19950627.65648 -15520928.59346  21519011.1484                   21519010.5164
  -1361281.62547  -1045534.37044  23546686.2114                   23546688.1724
 -45479467.51647 -35411643.39145  22367572.3594                   22367572.0394
 11  8 14  1  4 30.0000000  0  8G09G12G02G17G10G05G25G04
 -20123691.73446 -15655206.19143  24381167.6094                   24381170.4694
 -26248872.09048 -20429286.82146  21147050.9384                   21147049.1024
 -41290264.50048 -32148676.24746  20742033.8204                   20742030.6884
 -34110170.14546 -26559409.29244  23682953.9454                   23682953.0704
 -33908333.91447 -26399128.37046  21075928.9614                   21075927.6954
 -20089982.91048 -15629517.04746  21492492.8444                   21492491.8284
  -1514645.49247  -1165038.60844  23517502.1644                   23517503.9384
 -45461155.10247 -35397374.00145  22371057.4534                   22371056.8404
 11  8 14  1  5  0.0000000  0  8G09G12G02G17G10G05G25G04
 -20103134.13346 -15639187.45944  24385079.7274                   24385083.1564
 -26352067.62948 -20509698.91146  21127413.2814                   21127411.4574
 -41342477.23448 -32189361.48946  20732098.4064                   20732094.7814
 -34112943.73447 -26561570.52844  23682425.9224                   23682425.7934
 -33947505.23847 -26429651.47346  21068474.6884                   21068473.3524
 -20228873.69947 -15737743.57046  21466062.9774                   21466062.0204
  -1667674.16047  -1284281.68344  23488381.4144                   23488383.5044
 -45442711.94947 -35383002.70344  22374567.4224                   22374566.8364
 11  8 14  1  5 30.0000000  0  8G09G12G02G17G10G05G25G04
 -20082484.90646 -15623097.51444  24389008.9454                   24389013.1804
 -26454692.43448 -20589666.25946  21107884.6254                   21107882.6724
 -41394384.95348 -32229809.04846  20722220.6564                   20722217.0394
 -34115485.08247 -26563550.83044  23681942.3834                   23681941.8834
 -33985998.55948 -26459646.25046  21061149.7034                   21061148.6804
 -20367298.50848 -15845606.99246  21439721.1414                   21439720.1374
  -1820365.72347  -1403262.03144  23459325.3134                   23459327.5434
 -45424140.57047 -35368531.50245  22378101.5554                   22378100.7704
 11  8 14  1  6  0.0000000  0  8G09G12G02G17G10G05G25G04
 -20061748.39146 -15606939.50844  24392955.6564                   24392959.5634
 -26556745.82848 -20669188.38546  21088464.4614                   21088462.4024
 -41445990.29348 -32270020.99346  20712400.1484                   20712396.7814
 -34117794.38347 -26565350.29544  23681502.7194                   23681503.0164
 -34023816.22348 -26489114.55446  21053953.3054                   21053952.0634
 -20505255.83648 -15953106.14846  21413468.7814                   21413467.7464
  -1972718.57447  -1521978.49044  23430333.2584                   23430335.4534
 -45405443.48447 -35353962.35045  22381658.9064                   22381658.6684
 11  8 14  1  6 30.0000000  0  8G09G12G02G17G10G05G25G04
 -20040924.43446 -15590713.34744  24396918.4144                   24396922.0164
 -26658222.94148 -20748261.44046  21069154.0634                   21069152.4614
 -41497290.99248 -32309995.57446  20702637.9384                   20702634.9924
 -34119867.80946 -26566965.91744  23681108.3754                   23681108.4694
 -34060955.41448 -26518054.18246  21046885.8834                   21046884.4964
 -20642739.75448 -16060236.41046  21387306.5164                   21387305.4964
  -2124726.78147  -1640426.36644  23401406.8594                   23401408.7624
 -45386619.03147 -35339293.98545  22385241.8674                   22385241.2114
 11  8 14  1  7  0.0000000  0  8G09G12G02G17G10G05G25G04
 -20020019.85546 -15574424.42243  24400896.7584                   24400899.9844
 -26759125.99248 -20826887.19846  21049952.7664                   21049951.3094
 -41548292.09848 -32349736.67546  20692932.9534                   20692929.6174
 -34121709.09046 -26568400.72644  23680757.1334                   23680757.0634
 -34097421.05148 -26546468.94146  21039946.3204                   21039945.5434
 -20779751.88748 -16166999.06546  21361233.8674                   21361232.8484
  -2276391.58247  -1758606.67144  23372545.7114                   23372547.8204
 -45367672.68047 -35324530.57444  22388846.4774                   22388845.7464
 11  8 14  1  7 30.0000000  0  8G09G12G02G17G10G05G25G04
 -19999038.93746 -15558076.01743  24404889.3284                   24404892.9774
 -26859453.77048 -20905064.69246  21030861.0784                   21030859.4384
 -41598995.92248 -32389246.14446  20683284.3674                   20683280.9264
 -34123318.57847 -26569654.92244  23680451.3984                   23680451.9064
 -34133215.21547 -26574360.50346  21033134.8594                   21033134.0354
 -20916290.57048 -16273392.78846  21335251.2194                   21335250.6094
  -2427711.19947  -1876518.04344  23343750.4224                   23343752.7304
 -45348607.11747 -35309674.31644  22392474.6094                   22392473.8834
 11  8 14  1  8  0.0000000  0  8G09G12G02G17G10G05G25G04
 -19977985.35546 -15541670.92943  24408895.9384                   24408900.3244
 -26959205.07848 -20982792.98646  21011878.8834                   21011877.7384
 -41649404.19148 -32428525.29146  20673692.0554                   20673688.5204
 -34124696.81646 -26570728.89344  23680188.5474                   23680188.9264
 -34168339.32447 -26601729.92646  21026451.2034                   21026450.2774
 -21052353.87148 -16379416.08846  21309359.3364                   21309358.3284
  -2578683.52346  -1994158.73444  23315021.7894                   23315023.8484
 -45329424.35247 -35294726.71544  22396124.6414                   22396124.2934
 11  8 14  1  8 30.0000000  0  8G09G12G02G17G10G05G25G04
 -19956858.87146 -15525209.00243  24412916.4454                   24412920.7814
 -27058375.39148 -21060068.55846  20993007.6024                   20993005.9494
 -41699514.62148 -32467572.37246  20664156.2274                   20664153.0124
 -34125840.01246 -26571619.71444  23679971.8914                   23679971.4144
 -34202790.79747 -26628575.22746  21019895.2734                   21019894.0204
 -21187935.83648 -16485064.32446  21283559.0864                   21283557.8794
  -2729302.47347  -2111524.09044  23286359.8984                   23286361.8284
 -45310122.56247 -35279686.36745  22399798.3914                   22399797.6414
 11  8 14  1  9  0.0000000  0  8G09G12G02G17G10G05G25G04
 -19935661.91446 -15508692.19643  24416950.2734                   24416954.2664
 -27156962.15648 -21136889.41146  20974247.0554                   20974245.1254
 -41749327.62548 -32506387.69746  20654677.1954                   20654673.5394
 -34126746.82046 -26572326.28044  23679798.9924                   23679798.5514
 -34236570.05147 -26654896.71646  21013467.0314                   21013466.2114
 -21323033.26248 -16590334.99446  21257850.7814                   21257849.6564
  -2879564.66047  -2228611.43944  23257766.3914                   23257767.7734
 -45290702.56647 -35264553.92344  22403493.6174                   22403493.1844
 11  8 14  1  9 30.0000000  0  8G09G12G02G17G10G05G25G04
 -19914406.30546 -15492129.64643  24420995.4924                   24420999.1804
 -27254972.20348 -21213260.87746  20955596.1024                   20955594.6484
 -41798852.99648 -32544978.86646  20645252.7974                   20645249.3164
 -34127425.67246 -26572855.30844  23679669.8674                   23679669.7074
 -34269686.49647 -26680701.72446  21007165.6724                   21007164.4774
 -21457652.30548 -16695232.89946  21232233.7894                   21232232.8984
  -3029475.87147  -2345425.33344  23229238.7504                   23229240.1764
 -45271174.62547 -35249337.34245  22407210.1024                   22407209.4224
 11  8 14  1 10  0.0000000  0  8G09G12G02G17G10G05G25G04
 -19893088.84446 -15475518.89643  24425051.2734                   24425056.0634
 -27352397.68048 -21289176.83246  20937056.7114                   20937054.9884
 -41848085.48848 -32583341.83046  20635884.2034                   20635880.7304
 -34127869.81646 -26573201.42743  23679584.9924                   23679584.4264
 -34302134.97347 -26705986.22846  21000990.8754                   21000989.4384
 -21591784.48447 -16799751.42346  21206708.9924                   21206708.1994
  -3179027.20747  -2461958.76344  23200780.0784                   23200781.6914
 -45251533.75847 -35234032.75145  22410947.7814                   22410947.1524
 11  8 14  1 10 30.0000000  0  8G09G12G02G17G10G05G25G04
 -19871717.82446 -15458866.36543  24429118.1564                   24429123.7814
 -27449241.85948 -21364639.83446  20918628.4384                   20918626.4654
 -41897031.45748 -32621481.54646  20626570.2734                   20626566.4224
 -34128084.02046 -26573368.36044  23679544.6484                   23679543.9734
 -34333921.93747 -26730755.29345  20994942.2584                   20994940.7704
 -21725432.22748 -16903892.47646  21181276.5004                   21181275.6454
  -3328221.09047  -2578213.66844  23172389.7664                   23172391.5124
 -45231786.56647 -35218645.34245  22414704.3444                   22414704.5704
 11  8 14  1 11  0.0000000  0  8G09G12G02G17G10G05G25G04
 -19850293.82446 -15442172.54343  24433195.1804                   24433200.7854
 -27545500.96148 -21439646.91946  20900310.6564                   20900308.8714
 -41945689.64848 -32659397.00046  20617310.6174                   20617307.3134
 -34128065.28146 -26573353.72143  23679548.7894                   23679547.3674
 -34365045.85947 -26755007.67646  20989018.8134                   20989017.8874
 -21858590.61348 -17007652.21246  21155937.3674                   21155936.2854
  -3477052.21947  -2694185.92844  23144067.8594                   23144069.7384
 -45211932.21147 -35203174.40244  22418483.0084                   22418482.2114
 11  8 14  1 11 30.0000000  0  8G09G12G02G17G10G05G25G04
 -19828820.18746 -15425440.07143  24437282.4844                   24437286.0234
 -27641173.41848 -21514196.86546  20882104.6724                   20882102.9494
 -41994061.64848 -32697089.45146  20608105.8134                   20608102.2704
 -34127813.99246 -26573157.93143  23679595.8364                   23679595.3444
 -34395508.25447 -26778744.57645  20983222.2814                   20983221.1724
 -21991257.45748 -17111028.92446  21130691.8594                   21130690.7034
  -3625518.42247  -2809873.79144  23115815.5864                   23115817.1454
 -45191972.45747 -35187621.31744  22422281.6804                   22422280.8284
 11  8 14  1 12  0.0000000  0  8G09G12G02G17G10G05G25G04
 -19807307.53546 -15408677.12143  24441376.0394                   24441380.4144
 -27736265.46148 -21588294.55246  20864009.2894                   20864007.7664
 -42042155.97348 -32734565.53846  20598953.8444                   20598950.2234
 -34127336.79346 -26572786.07443  23679687.0864                   23679686.7854
 -34425317.69147 -26801972.69645  20977549.3284                   20977548.6604
 -22123438.04748 -17214026.74146  21105538.4454                   21105538.0084
  -3773624.46947  -2925281.05744  23087631.6804                   23087633.4224
 -45171916.43747 -35171993.25544  22426098.0704                   22426096.8794
 11  8 14  1 12 30.0000000  0  8G09G12G02G17G10G05G25G04
 -19785752.96946 -15391881.49943  24445478.1484                   24445482.7424
 -27830769.24248 -21661933.83746  20846025.6094                   20846024.0274
 -42089967.82048 -32771821.51646  20589855.3444                   20589851.7114
 -34126627.89146 -26572233.72343  23679821.7894                   23679821.1414
 -34454469.48847 -26824688.34445  20972002.2974                   20972001.2664
 -22255123.63348 -17316638.83646  21080479.7584                   21080478.8484
  -3921361.55547  -3040400.77345  23059518.1884                   23059520.2344
 -45151759.09047 -35156286.23244  22429933.7114                   22429933.4774
 11  8 14  1 13  0.0000000  0  8G09G12G02G17G10G05G25G04
 -19764159.60946 -15375055.69143  24449585.9924                   24449592.3484
 -27924683.69548 -21735113.90546  20828154.3134                   20828153.0084
 -42137498.48448 -32808858.38346  20580810.7894                   20580806.9734
 -34125687.10246 -26571500.60944  23680000.9384                   23679999.3284
 -34482964.82847 -26846892.48345  20966579.3594                   20966578.5634
 -22386312.71948 -17418864.06046  21055514.6884                   21055513.9344
  -4068727.26247  -3155231.16044  23031475.7974                   23031477.4264
 -45131502.58647 -35140501.91044  22433788.2424                   22433787.8014
 11  8 14  1 13 30.0000000  0  8G09G12G02G17G10G05G25G04
 -19742528.18446 -15358200.30843  24453703.0084                   24453708.6094
 -28018004.82048 -21807831.64046  20810395.8674                   20810394.5824
 -42184746.80148 -32845675.26846  20571819.7194                   20571816.5634
 -34124511.37046 -26570584.41643  23680224.3754                   23680223.8754
 -34510802.57447 -26868584.21045  20961282.5084                   20961281.3134
 -22517000.27047 -17520698.45746  21030645.6954                   21030645.1094
  -4215716.53547  -3269768.24245  23003504.5234                   23003506.3054
 -45111145.85547 -35124639.47944  22437662.1024                   22437662.0204
 11  8 14  1 14  0.0000000  0  8G09G12G02G17G10G05G25G04
 -19720863.20746 -15341318.72843  24457826.1174                   24457831.0704
 -28110732.41047 -21880086.87146  20792750.5084                   20792749.0004
 -42231715.13348 -32882273.95446  20562881.8204                   20562878.3054
 -34123101.99646 -26569486.26844  23680492.8284                   23680491.8054
 -34537985.55547 -26889765.73145  20956109.5084                   20956108.2774
 -22647185.16448 -17622141.18746  21005872.8134                   21005871.5784
  -4362328.15247  -3384010.99344  22975605.2734                   22975607.1414
 -45090691.66447 -35108701.14444  22441554.3204                   22441554.5634
 11  8 14  1 14 30.0000000  0  8G09G12G02G17G10G05G25G04
 -19699172.84046 -15324417.35043  24461954.5784                   24461958.9574
 -28202870.26248 -21951882.58246  20775216.9454                   20775215.6254
 -42278410.28148 -32918659.77646  20553995.9844                   20553992.7114
 -34121463.79347 -26568209.72844  23680804.4694                   23680804.1804
 -34564519.79347 -26910441.73845  20951060.2664                   20951059.1604
 -22776870.41847 -17723194.59046  20981194.8524                   20981193.6334
  -4508564.55147  -3497961.41045  22947777.2034                   22947778.6174
 -45070146.55947 -35092691.94845  22445463.8914                   22445463.7074
 11  8 14  1 15  0.0000000  0  8G09G12G02G17G10G05G25G04
 -19677456.88346 -15307496.03643  24466086.9144                   24466091.7344
 -28294413.73048 -22023215.12346  20757796.9454                   20757795.2624
 -42324829.85548 -32954830.87046  20545162.9224                   20545159.1484
 -34119592.93046 -26566751.88544  23681161.0704                   23681160.2774
 -34590403.47347 -26930610.81545  20946134.7274                   20946133.3054
 -22906050.35248 -17823854.23446  20956612.2504                   20956610.9534
  -4654419.64547  -3611614.66644  22920022.0084                   22920023.9344
 -45049508.57447 -35076610.39445  22449391.3364                   22449391.2584
 11  8 14  1 15 30.0000000  0  8G09G12G02G17G10G05G25G04
 -18080300.87146 -14062959.02343  24770015.6484                   24770021.2344
 -26809940.12547 -20866482.41946  21040283.0634                   21040281.5164
 -40795554.82448 -31763187.98546  20836174.1334                   20836170.6334
 -32542071.14146 -25337514.14644  23981353.2194                   23981351.7544
 -33040218.77347 -25722674.66045  21241125.4384                   21241123.8094
 -21459299.75447 -16696516.06146  21231919.8134                   21231918.3054
  -3224467.63347  -2497366.33444  23192133.0084                   23192134.5314
 -43453361.63747 -33832859.52344  22753128.2814                   22753127.5354
 11  8 14  1 16  0.0000000  0  8G09G12G02G17G10G05G25G04
 -18058545.71945 -14046007.24543  24774154.6254                   24774160.9224
 -26900293.21947 -20936887.40046  21023089.4144                   21023087.4734
 -40841429.05148 -31798934.13446  20827444.3444                   20827440.9884
 -32539737.03546 -25335695.34944  23981796.2584                   23981796.4184
 -33064808.15247 -25741835.20245  21236446.2194                   21236444.4924
 -21587464.69548 -16796384.80046  21207530.6414                   21207529.4534
  -3369554.94947  -2610421.34244  23164523.7584                   23164525.3714
 -43432544.93447 -33816638.74544  22757089.2114                   22757089.0864
 11  8 14  1 16 30.0000000  0  8G09G12G02G17G10G05G25G04
 -18036778.04345 -14029045.62243  24778297.2344                   24778302.7584
 -26990051.40247 -21006828.81346  21006008.9614                   21006007.0394
 -40887035.01648 -31834471.23446  20818765.8754                   20818762.3364
 -32537173.21546 -25333697.56043  23982284.7894                   23982284.5704
 -33088755.05547 -25760495.09245  21231889.0704                   21231887.6764
 -21715121.38748 -16895857.50346  21183238.1954                   21183236.9574
  -3514257.01647  -2723176.16845  23136987.6094                   23136989.4494
 -43411643.58647 -33800351.98144  22761066.5314                   22761066.1994
 11  8 14  1 17  0.0000000  0  8G09G12G02G17G10G05G25G04
 -18014999.12546 -14012075.26543  24782442.4064                   24782448.0394
 -27079211.94947 -21076304.54446  20989042.3054                   20989040.7344
 -40932372.25048 -31869798.96546  20810138.6884                   20810134.8404
 -32534378.59046 -25331519.97444  23982816.7894                   23982816.6884
 -33112059.34848 -25778654.27645  21227454.3054                   21227452.7154
 -21842266.14148 -16994931.29346  21159043.4144                   21159042.3674
  -3658569.68447  -2835627.57544  23109525.4924                   23109527.7624
 -43390657.53947 -33783999.23144  22765060.4694                   22765058.9534
 11  8 14  1 17 30.0000000  0  8G09G12G02G17G10G05G25G04
 -17993209.00846 -13995096.13943  24786588.9614                   24786594.4884
 -27167770.71948 -21145311.35746  20972189.8754                   20972188.1844
 -40977438.78548 -31904915.72446  20801562.8134                   20801559.0124
 -32531349.39846 -25329159.54943  23983392.3914                   23983393.2034
 -33134719.38348 -25796311.42545  21223142.3914                   21223140.8244
 -21968893.80148 -17093602.14046  21134946.8834                   21134945.9844
  -3802487.23447  -2947771.09744  23082139.1484                   23082140.7584
 -43369584.95747 -33767579.03644  22769070.1564                   22769069.4304
 11  8 14  1 18  0.0000000  0  8G09G12G02G17G10G05G25G04
 -17971411.37545 -13978111.22943  24790736.8204                   24790743.3164
 -27255727.03148 -21213848.73646  20955452.4064                   20955450.7774
 -41022236.80548 -31939823.26846  20793037.6484                   20793034.1414
 -32528086.38346 -25326616.95843  23984014.4694                   23984014.4414
 -33156737.60248 -25813468.45646  21218952.6024                   21218951.0004
 -22095002.77048 -17191868.83146  21110949.0164                   21110947.6844
  -3946007.86747  -3059605.33244  23054828.1564                   23054829.6954
 -43348427.92647 -33751093.06744  22773096.2274                   22773095.6684
 11  8 14  1 18 30.0000000  0  8G09G12G02G17G10G05G25G04
 -17949611.20346 -13961124.31343  24794886.1094                   24794892.2074
 -27343081.19148 -21281916.89446  20938829.5164                   20938827.7464
 -41066769.36348 -31974523.94946  20784563.4924                   20784560.2854
 -32524590.62946 -25323893.05444  23984679.4384                   23984679.0744
 -33178117.05948 -25830127.75745  21214884.2664                   21214882.5314
 -22220592.77048 -17289731.13146  21087050.1884                   21087048.9184
  -4089130.55947  -3171129.47744  23027592.8364                   23027594.3524
 -43327189.61347 -33734543.74844  22777137.8594                   22777137.2194
 11  8 14  1 19  0.0000000  0  8G09G12G02G17G10G05G25G04
 -17927814.16846 -13944139.81242  24799033.0704                   24799039.7704
 -27429834.66048 -21349516.98246  20922320.8524                   20922319.1054
 -41111039.94948 -32009020.50046  20776139.3284                   20776135.6254
 -32520865.21146 -25320990.12943  23985388.1644                   23985387.7154
 -33198861.89147 -25846292.53146  21210936.5234                   21210934.7194
 -22345664.04348 -17387189.22046  21063250.0864                   21063248.7114
  -4231855.57847  -3282343.77644  23000432.6564                   23000435.1564
 -43305874.16447 -33717934.32444  22781193.7894                   22781193.7774
 11  8 14  1 19 30.0000000  0  8G09G12G02G17G10G05G25G04
 -17906022.60946 -13927159.69043  24803181.4144                   24803186.3324
 -27515985.68748 -21416647.65546  20905926.8594                   20905925.2704
 -41155049.23448 -32043313.44846  20767764.3984                   20767760.5514
 -32516908.80946 -25317907.26043  23986141.0864                   23986140.8834
 -33218973.28147 -25861963.72646  21207109.4384                   21207107.9104
 -22470213.85248 -17484240.96046  21039548.7894                   21039547.6024
  -4374179.57847  -3393245.57044  22973349.2814                   22973351.1954
 -43284481.99247 -33701265.10744  22785265.0704                   22785263.9804
 11  8 14  1 20  0.0000000  0  8G09G12G02G17G10G05G25G04
 -17884240.41846 -13910186.67343  24807325.5944                   24807330.6954
 -27601534.03548 -21483308.69546  20889647.6954                   20889645.9144
 -41198799.40648 -32077404.47046  20759439.1254                   20759435.5044
 -32512722.23846 -25314644.96243  23986937.9454                   23986937.2854
 -33238453.68748 -25877143.26346  21203402.7734                   21203400.9304
 -22594241.37948 -17580885.74846  21015947.0634                   21015945.9344
  -4516100.94147  -3503833.61444  22946342.2894                   22946344.6484
 -43263015.61347 -33684538.08044  22789350.1254                   22789349.0164
 11  8 14  1 20 30.0000000  0  8G09G12G02G17G10G05G25G04
 -17862471.03946 -13893223.83343  24811468.5554                   24811475.0274
 -27686478.99248 -21549499.56446  20873483.2274                   20873480.9304
 -41242291.90648 -32111294.72246  20751162.9614                   20751159.3484
 -32508305.78946 -25311203.62444  23987778.6334                   23987778.0784
 -33257304.77047 -25891832.40445  21199814.6884                   21199813.5164
 -22717744.59048 -17677121.97046  20992445.0864                   20992444.0984
  -4657617.50447  -3614106.25545  22919413.2734                   22919414.8204
 -43241476.75447 -33667754.57244  22793448.2504                   22793447.7114
 11  8 14  1 21  0.0000000  0  8G09G12G02G17G10G05G25G04
 -17840716.92246 -13876272.80443  24815608.7584                   24815614.6174
 -27770818.76648 -21615218.87446  20857433.4774                   20857431.8524
 -41285527.44148 -32144984.73646  20742935.6804                   20742931.7934
 -32503658.86746 -25307582.66443  23988663.0944                   23988661.2544
 -33275528.03947 -25906032.34445  21196347.3364                   21196346.0314
 -22840721.05548 -17772947.74746  20969043.6644                   20969042.3914
  -4798726.16447  -3724061.06145  22892561.2584                   22892562.8714
 -43219866.07447 -33650915.12044  22797560.6804                   22797559.7344
 11  8 14  1 21 30.0000000  0  8G09G12G02G17G10G05G25G04
 -17818981.63746 -13859336.40643  24819744.8984                   24819750.6994
 -27854553.01648 -21680466.33646  20841499.7814                   20841497.8874
 -41328508.02748 -32178476.07746  20734756.5164                   20734752.7234
 -32498781.78146 -25303782.34144  23989590.8914                   23989589.0474
 -33293125.71547 -25919744.80745  21192998.3834                   21192997.2624
 -22963169.21947 -17868361.85646  20945742.6884                   20945741.2424
  -4939424.94547  -3833696.42945  22865787.1094                   22865788.7034
 -43198185.69147 -33634021.33844  22801686.3444                   22801685.4494
 11  8 14  1 22  0.0000000  0  8G09G12G02G17G10G05G25G04
 -17797269.72746 -13842418.37443  24823876.5704                   24823883.1804
 -27937682.27748 -21745242.36746  20825680.4454                   20825678.9884
 -41371236.34848 -32211770.85046  20726625.4384                   20726621.8404
 -32493676.18746 -25299803.89443  23990562.0234                   23990561.1294
 -33310101.07848 -25932972.36346  21189768.2664                   21189767.0904
 -23085089.02347 -17963364.27046  20922541.7814                   20922540.7934
  -5079712.98447  -3943011.74745  22839090.7114                   22839092.7624
 -43176438.53147 -33617075.51544  22805825.3134                   22805824.0274
 11  8 14  1 22 30.0000000  0  8G09G12G02G17G10G05G25G04
 -17775580.37146 -13825517.71543  24828004.3754                   24828010.7504
 -28020201.60248 -21809543.13446  20809977.9774                   20809976.0984
 -41413709.50448 -32244866.80446  20718542.7814                   20718539.3204
 -32488337.91846 -25295644.27643  23991579.0314                   23991575.9574
 -33326452.24248 -25945713.51245  21186656.6724                   21186655.5554
 -23206474.43447 -18057950.25346  20899442.7734                   20899441.7584
  -5219583.89547  -4052002.03945  22812474.5234                   22812476.1094
 -43154621.99647 -33600075.64644  22809976.6334                   22809975.5434
 11  8 14  1 23  0.0000000  0  8G09G12G02G17G10G05G25G04
 -17753920.46546 -13808640.13043  24832127.0554                   24832131.9264
 -28102113.66848 -21873370.72046  20794390.5234                   20794388.6024
 -41455932.65648 -32277767.94046  20710508.6804                   20710504.7304
 -32482770.52047 -25291306.02643  23992638.1884                   23992637.0124
 -33342184.58248 -25957972.47045  21183663.0084                   21183661.2424
 -23327327.54347 -18152121.47146  20876445.2814                   20876444.1884
  -5359039.10547  -4160668.38745  22785936.6254                   22785939.1484
 -43132741.41447 -33583025.85744  22814139.9924                   22814138.5744
 11  8 14  1 23 30.0000000  0  7G12G02G17G10G05G25G04
 -28183412.25848 -21936720.26946  20778920.0634                   20778917.9104
 -41497901.82848 -32310471.19746  20702521.7734                   20702518.3484
 -32476969.01646 -25286785.34543  23993741.6564                   23993740.2974
 -33357294.31248 -25969746.28345  21180787.7344                   21180786.1524
 -23447640.73048 -18245871.97246  20853550.6254                   20853549.3914
  -5498070.58647  -4269004.52745  22759480.1254                   22759481.7074
 -43110792.56647 -33565922.89744  22818316.5474                   22818315.5354
 11  8 14  1 24  0.0000000  0  7G12G02G17G10G05G25G04
 -28264098.39547 -21999592.57446  20763565.5704                   20763563.7384
 -41539620.23048 -32342979.01446  20694582.5944                   20694579.1844
 -32470934.92246 -25282083.48644  23994890.0634                   23994889.6294
 -33371785.53547 -25981038.13245  21178029.8444                   21178029.0164
 -23567414.37548 -18339202.04046  20830758.1804                   20830756.9574
  -5636678.01647  -4377010.25845  22733103.6724                   22733105.9774
 -43088778.80947 -33548769.32244  22822505.6484                   22822505.2194
 11  8 14  1 24 30.0000000  0  7G12G02G17G10G05G25G04
 -28344159.93448 -22061978.19346  20748330.8674                   20748328.3594
 -41581077.84448 -32375283.64446  20686693.9924                   20686690.1254
 -32464657.28946 -25277191.82743  23996084.6094                   23996083.9694
 -33385648.87147 -25991840.73045  21175391.6954                   21175390.7664
 -23686634.92647 -18432101.14046  20808071.4064                   20808070.1844
  -5774847.64547  -4484674.83145  22706811.1334                   22706812.4884
 -43066690.26647 -33531557.49744  22826708.8914                   22826708.6254
 11  8 14  1 25  0.0000000  0  7G12G02G17G10G05G25G04
 -28423590.30948 -22123871.98846  20733215.4534                   20733213.6724
 -41622270.47348 -32407381.77346  20678855.1024                   20678851.4774
 -32458130.12146 -25272105.72643  23997326.5004                   23997326.0594
 -33398880.25847 -26002150.89245  21172873.6094                   21172872.4414
 -23805295.03947 -18524563.52746  20785491.1804                   20785489.8674
  -5912571.13347  -4591991.75445  22680602.6174                   22680604.3834
 -43044522.40247 -33514283.86044  22830927.9774                   22830927.2194
 11  8 14  1 25 30.0000000  0  7G12G02G17G10G05G25G04
 -28502389.51648 -22185273.94846  20718220.7664                   20718218.6954
 -41663199.29748 -32439274.34846  20671066.5704                   20671062.9184
 -32451354.07446 -25266825.70343  23998616.4224                   23998615.6724
 -33411482.52047 -26011970.82645  21170475.9534                   21170474.2194
 -23923394.00048 -18616588.65846  20763017.3754                   20763015.9384
  -6049847.08247  -4698959.95545  22654480.1334                   22654481.3754
 -43022277.43047 -33496950.11844  22835160.9844                   22835160.5394
 11  8 14  1 26  0.0000000  0  7G12G02G17G10G05G25G04
 -28580560.68448 -22246186.55446  20703344.9534                   20703342.8984
 -41703869.97748 -32470965.77946  20663327.2734                   20663323.9024
 -32444333.30546 -25261354.97743  23999951.3914                   23999952.5314
 -33423461.94147 -26021305.41845  21168196.4454                   21168194.7624
 -24040933.96147 -18708178.19746  20740650.4694                   20740649.3244
  -6186677.16047  -4805580.70445  22628442.3754                   22628443.3204
 -42999960.58247 -33479560.38844  22839407.6414                   22839407.2384
 11  8 14  1 26 30.0000000  0  7G12G02G17G10G05G25G04
 -28658109.21948 -22306613.96446  20688588.0554                   20688586.2544
 -41744290.26648 -32502462.09746  20655635.1724                   20655631.7424
 -32437073.75846 -25255698.21243  24001333.5554                   24001333.0004
 -33434826.52347 -26030160.91845  21166033.6334                   21166032.0704
 -24157919.05948 -18799335.37646  20718388.6564                   20718387.6374
  -6323065.07047  -4911856.93245  22602488.5234                   22602489.5084
 -42977579.72747 -33462120.78944  22843666.6254                   22843666.1484
 11  8 14  1 27  0.0000000  0  7G12G02G17G10G05G25G04
 -28735027.70348 -22366550.44446  20673950.9844                   20673949.1484
 -41784454.35548 -32533758.77546  20647992.4304                   20647988.9184
 -32429569.25446 -25249850.56543  24002761.5314                   24002761.4304
 -33445571.30147 -26038533.46045  21163988.9064                   21163987.6684
 -24274340.67648 -18890053.47946  20696234.5554                   20696233.0164
  -6459001.51247  -5017781.36345  22576620.4144                   22576621.8204
 -42955129.00047 -33444626.72544  22847939.4144                   22847938.6884
 11  8 14  1 27 30.0000000  0  7G12G02G17G10G05G25G04
 -28811320.07047 -22425999.03446  20659433.0634                   20659430.7504
 -41824368.22748 -32564860.49346  20640397.0634                   20640393.7424
 -32421824.19946 -25243815.48243  24004234.6884                   24004234.7814
 -33455703.28947 -26046428.49945  21162061.0864                   21162059.5274
 -24390202.10948 -18980335.07146  20674186.5004                   20674185.3754
  -6594489.17647  -5123356.09145  22550838.2974                   22550839.6134
 -42932614.61747 -33427083.05844  22852223.5864                   22852223.1374
 11  8 14  1 28  0.0000000  0  7G12G02G17G10G05G25G04
 -28886987.58648 -22484960.72246  20645033.9614                   20645032.1484
 -41864035.41048 -32595769.97746  20632848.7274                   20632845.4534
 -32413840.69146 -25237594.53643  24005754.4534                   24005754.0784
 -33465226.58247 -26053849.21645  21160248.4064                   21160247.2974
 -24505504.16047 -19070180.77946  20652245.3594                   20652244.1174
  -6729527.61347  -5228580.78445  22525140.9384                   22525142.8054
 -42910039.82047 -33409492.32344  22856519.2664                   22856518.6134
 11  8 14  1 28 30.0000000  0  7G12G02G17G10G05G25G04
 -27386606.00048 -21315832.20046  20930546.9064                   20930545.1884
 -40328034.82448 -31398886.38946  20925139.7734                   20925136.5434
 -30830198.10246 -24003587.33243  24307111.8754                   24307110.7814
 -31898721.77347 -24833196.10045  21458344.7504                   21458342.8444
 -23044819.88748 -17931985.19846  20930204.3524                   20930203.3054
  -5288688.99647  -4105849.31845  22799323.5784                   22799325.0634
 -41311985.87547 -32164255.48644  23160618.6414                   23160617.9224
 11  8 14  1 29  0.0000000  0  7G12G02G17G10G05G25G04
 -27461023.75048 -21373820.03846  20916385.5474                   20916383.9734
 -40367213.93747 -31429415.55246  20917684.4224                   20917680.5554
 -30821739.84846 -23996996.52443  24308721.4384                   24308721.0084
 -31907035.32047 -24839674.15945  21456762.3204                   21456761.0704
 -23158999.02348 -18020955.91146  20908476.4844                   20908475.5274
  -5422823.72347  -4210369.82545  22773798.7504                   22773799.7774
 -41289296.09846 -32146575.16544  23164936.7504                   23164935.8594
 11  8 14  1 29 30.0000000  0  7G12G02G17G10G05G25G04
 -27534815.90248 -21431320.41246  20902343.5864                   20902341.4454
 -40406150.96548 -31459756.08146  20910275.1094                   20910271.2544
 -30813044.48846 -23990220.91744  24310376.1804                   24310375.6764
 -31914747.42647 -24845683.57245  21455294.9384                   21455293.5474
 -23272614.37947 -18109487.31146  20886856.1724                   20886855.1884
  -5556503.22347  -4314535.61645  22748359.6954                   22748361.4964
 -41266550.87146 -32128851.61944  23169264.1724                   23169264.5044
 11  8 14  1 30  0.0000000  0  7G12G02G17G10G05G25G04
 -27607982.93048 -21488333.66446  20888420.3134                   20888418.5944
 -40444848.51248 -31489909.99946  20902911.0554                   20902907.1844
 -30804112.96546 -23983261.33144  24312076.2664                   24312075.2664
 -31921861.44147 -24851226.94745  21453941.5394                   21453939.5904
 -23385665.59047 -18197579.13046  20865343.2504                   20865342.0594
  -5689726.41847  -4418345.83545  22723008.2734                   22723009.9804
 -41243752.60947 -32111086.76744  23173603.1884                   23173602.5944
 11  8 14  1 30 30.0000000  0  7G12G02G17G10G05G25G04
 -27680521.14548 -21544856.92946  20874616.8444                   20874615.0394
 -40483304.30548 -31519875.54446  20895593.1804                   20895589.1684
 -30794942.38746 -23976115.44044  24313821.4144                   24313821.0004
 -31928376.36347 -24856303.49445  21452701.1254                   21452699.5434
 -23498147.94148 -18285227.67146  20843938.5554                   20843937.2894
  -5822487.70347  -4521796.15845  22697744.8594                   22697746.0474
 -41220899.29746 -32093278.99244  23177951.8284                   23177951.0864
 11  8 14  1 31  0.0000000  0  7G12G02G17G10G05G25G04
 -27752433.11748 -21600892.21246  20860932.3524                   20860930.7734
 -40521523.38348 -31549656.63746  20888320.0944                   20888316.1604
 -30785536.28546 -23968786.00544  24315611.0084                   24315611.7114
 -31934297.97347 -24860917.70845  21451574.5234                   21451573.0824
 -23610063.30947 -18372434.41246  20822641.8284                   20822640.5004
  -5954788.45347  -4624887.60545  22672568.9064                   22672569.8444
 -41197995.79747 -32075432.15444  23182310.5474                   23182310.0434
 11  8 14  1 31 30.0000000  0  7G12G02G17G10G05G25G04
 -27823714.05148 -21656435.76846  20847367.7274                   20847366.1564
 -40559501.86748 -31579250.25546  20881092.9534                   20881089.5394
 -30775890.02746 -23961269.42343  24317445.8834                   24317447.4534
 -31939623.47747 -24865067.44245  21450560.9924                   21450559.8674
 -23721405.04348 -18459194.15446  20801454.2194                   20801452.7584
  -6086621.36347  -4727614.48945  22647481.4454                   22647483.0434
 -41175038.42646 -32057543.30144  23186678.6334                   23186678.9384
 11  8 14  1 32  0.0000000  0  7G12G02G17G10G05G25G04
 -27894367.73848 -21711490.56746  20833923.0084                   20833921.1524
 -40597245.98048 -31608661.23846  20873910.7274                   20873907.0824
 -30766008.39546 -23953569.44643  24319326.4454                   24319327.2544
 -31944359.89147 -24868758.13445  21449659.9454                   21449658.9064
 -23832176.52047 -18545509.56146  20780375.3594                   20780373.6724
  -6217988.75847  -4829978.65445  22622483.1414                   22622485.1374
 -41152032.75446 -32039616.80344  23191057.1174                   23191056.2114
 11  8 14  1 32 30.0000000  0  7G12G02G17G10G05G25G04
 -27964395.01248 -21766057.25946  20820597.7814                   20820595.6804
 -40634757.60248 -31637891.05546  20866772.4384                   20866768.8484
 -30755892.29746 -23945686.77943  24321252.5634                   24321251.9654
 -31948510.12547 -24871992.04945  21448870.2114                   21448868.5664
 -23942377.39548 -18631380.33146  20759404.8674                   20759403.2624
  -6348889.68447  -4931979.32945  22597574.0554                   22597575.1764
 -41128981.44146 -32021654.75744  23195443.2194                   23195443.3874
 11  8 14  1 33  0.0000000  0  8G29G12G02G17G10G05G25G04
  12400627.90656   9675204.90353  24687958.1804                   24687958.9104
 -28033800.82447 -21820139.68346  20807389.5634                   20807388.1254
 -40672043.87547 -31666945.28546  20859677.1954                   20859673.4694
 -30745547.92246 -23937626.20343  24323220.4454                   24323220.8094
 -31952082.48847 -24874775.71745  21448190.5554                   21448188.9494
 -24052011.68748 -18716809.61346  20738541.8984                   20738540.4264
  -6479327.46547  -5033619.12345  22572752.4064                   22572753.7034
 -41105891.41046 -32003662.53144  23199837.4064                   23199837.1804
 11  8 14  1 33 30.0000000  0  8G29G12G02G17G10G05G25G04
  12261625.46546   9566891.38543  24661506.5704                   24661507.0634
 -28102590.36747 -21873741.91046  20794299.7664                   20794297.8984
 -40709111.32447 -31695828.99446  20852623.5164                   20852619.7234
 -30734980.35945 -23929391.69443  24325230.7114                   24325230.9104
 -31955084.46147 -24877114.90345  21447619.0944                   21447617.4184
 -24161083.54347 -18801800.62746  20717786.2344                   20717784.9614
  -6609305.16447  -5134900.39845  22548018.3204                   22548019.5634
 -41082769.09446 -31985645.17944  23204237.0234                   23204236.6884
 11  8 14  1 34  0.0000000  0  8G29G12G02G17G10G05G25G04
  12122578.07046   9458542.82243  24635045.5944                   24635047.3014
 -28170769.97747 -21926868.86946  20781325.4304                   20781323.9454
 -40745968.28547 -31724548.68946  20845609.6804                   20845606.0394
 -30724196.69145 -23920988.90943  24327283.4534                   24327283.7894
 -31957525.23847 -24879016.80445  21447154.6724                   21447153.1174
 -24269598.43448 -18886357.65946  20697136.3594                   20697134.7464
  -6738827.48447  -5235826.82945  22523370.8984                   22523372.3524
 -41059622.46946 -31967608.87744  23208641.7584                   23208640.9384
 11  8 14  1 34 30.0000000  0  8G29G12G02G17G10G05G25G04
  11983489.39546   9350162.15043  24608578.8204                   24608579.9414
 -28238335.47747 -21979517.29846  20768467.8524                   20768466.1724
 -40782612.07047 -31753102.28346  20838636.6024                   20838633.0634
 -30713193.74645 -23912415.12942  24329376.3674                   24329376.6524
 -31959403.61347 -24880480.45045  21446797.2424                   21446795.6914
 -24377551.20348 -18970476.67346  20676593.4064                   20676592.1334
  -6867888.60547  -5336393.89845  22498811.0394                   22498812.9494
 -41036449.19946 -31949551.83543  23213051.8984                   23213049.7504
 11  8 14  1 35  0.0000000  0  8G29G12G02G17G10G05G25G04
  11844364.66846   9241753.37243  24582103.7274                   24582105.0204
 -28305282.32847 -22031683.66146  20755728.4844                   20755727.0904
 -40819039.44947 -31781487.24446  20831704.9304                   20831701.3674
 -30701966.87945 -23903666.85343  24331511.8284                   24331513.3444
 -31960717.23047 -24881504.03445  21446546.9694                   21446545.5514
 -24484935.93748 -19054153.05446  20656159.1564                   20656157.5904
  -6996481.73047  -5436596.26445  22474340.4924                   22474342.1214
 -41013245.83646 -31931471.28843  23217466.8364                   23217465.8954
 11  8 14  1 35 30.0000000  0  8G29G12G02G17G10G05G25G04
  11705200.85246   9133314.02643  24555621.4304                   24555621.9964
 -28371613.74248 -22083370.44946  20743106.4384                   20743104.0434
 -40855255.04747 -31809707.18246  20824813.2114                   20824809.4534
 -30690519.76245 -23894747.06242  24333690.7814                   24333690.6644
 -31961471.89847 -24882092.08045  21446403.8364                   21446401.8134
 -24591754.60548 -19137388.34246  20635832.0704                   20635830.6604
  -7124608.04747  -5536434.88445  22449958.9384                   22449960.5234
 -40990017.15246 -31913371.01643  23221887.3674                   23221886.3554
 11  8 14  1 36  0.0000000  0  8G29G12G02G17G10G05G25G04
  11566001.35946   9024847.02742  24529133.0634                   24529133.1174
 -28437325.89147 -22134574.71946  20730601.1804                   20730599.5514
 -40891257.06247 -31837760.69046  20817961.9534                   20817958.5164
 -30678849.49646 -23885653.34843  24335911.4534                   24335912.9104
 -31961666.71147 -24882243.88245  21446366.0704                   21446364.5234
 -24698002.64547 -19220178.99146  20615613.6334                   20615612.4184
  -7252262.26247  -5635905.65045  22425667.2344                   22425668.9964
 -40966760.77346 -31895249.19344  23226312.3134                   23226312.0354
 11  8 14  1 36 30.0000000  0  8G29G12G02G17G10G05G25G04
  11426767.46146   8916353.16042  24502637.1724                   24502638.1054
 -28502418.07447 -22185295.89046  20718214.7584                   20718213.3164
 -40927045.92647 -31865648.11246  20811151.6564                   20811148.2074
 -30666955.77746 -23876385.48643  24338175.8444                   24338176.2504
 -31961303.66447 -24881960.96145  21446435.6254                   21446433.6134
 -24803678.35548 -19302523.66646  20595504.4454                   20595502.7384
  -7379441.67247  -5735006.42845  22401465.5944                   22401467.3134
 -40943477.41046 -31877106.37243  23230743.6024                   23230743.2664
 11  8 14  1 37  0.0000000  0  8G29G12G02G17G10G05G25G04
  11287502.18446   8807834.79342  24476136.9144                   24476136.1024
 -28566887.53147 -22235531.83246  20705946.4844                   20705944.6604
 -40962619.96947 -31893368.14846  20804381.9924                   20804378.4804
 -30654835.87146 -23866941.39943  24340481.9614                   24340481.3834
 -31960382.37147 -24881243.07845  21446610.5474                   21446609.1454
 -24908777.73048 -19384419.25146  20575504.4224                   20575503.2704
  -7506141.28547  -5833733.33945  22377355.1954                   22377357.2544
 -40920165.59446 -31858941.30744  23235179.7504                   23235178.9804
 11  8 14  1 37 30.0000000  0  8G29G12G02G17G10G05G25G04
  11148205.87546   8699292.29643  24449629.0554                   24449629.4344
 -28630733.98847 -22285282.31946  20693796.9384                   20693794.9844
 -40997980.62547 -31920921.89446  20797653.1484                   20797649.4964
 -30642489.94546 -23857321.22443  24342831.4924                   24342830.9574
 -31958905.59047 -24880092.32245  21446891.6644                   21446890.2384
 -25013299.50447 -19465864.76546  20555614.7504                   20555613.1684
  -7632359.12947  -5932084.83245  22353337.1484                   22353338.6454
 -40896826.21546 -31840754.86843  23239621.1414                   23239620.9734
 11  8 14  1 38  0.0000000  0  8G29G12G02G17G10G05G25G04
  11008874.39546   8590722.43043  24423114.4144                   24423115.1644
 -28693961.90647 -22334550.82446  20681765.3364                   20681763.6054
 -41033133.89148 -31948314.05246  20790963.8754                   20790960.2734
 -30629923.16846 -23847528.91144  24345222.3914                   24345221.9494
 -31956880.12947 -24878514.04245  21447277.4454                   21447276.1604
 -25117246.93447 -19546862.72746  20535834.2194                   20535832.7704
  -7758097.69547  -6030062.87045  22329409.8364                   22329411.0784
 -40873465.34046 -31822551.62044  23244066.7894                   23244066.2704
 11  8 14  1 38 30.0000000  0  8G29G12G02G17G10G05G25G04
  10869515.48046   8482131.11543  24396594.9064                   24396595.8834
 -28756563.61348 -22383331.36846  20669852.5554                   20669850.3914
 -41068073.39148 -31975539.63046  20784314.8284                   20784311.5984
 -30617128.31246 -23837558.93143  24347658.3834                   24347656.5904
 -31954301.12147 -24876504.42645  21447767.9384                   21447766.2384
 -25220611.56648 -19627406.56146  20516164.3134                   20516162.9414
  -7883347.57047  -6127660.08445  22305575.3284                   22305576.3834
 -40850076.60946 -31804326.68143  23248517.3444                   23248516.6094
 11  8 14  1 39  0.0000000  0  8G29G12G02G17G10G05G25G04
  10730124.55946   8373514.85443  24370070.9384                   24370071.2464
 -28818543.97348 -22431627.74746  20658058.3594                   20658056.3204
 -41102805.44548 -32002603.56446  20777705.4144                   20777701.9924
 -30604110.52046 -23827415.19443  24350135.4384                   24350134.0044
 -31951176.41047 -24874069.57945  21448362.4844                   21448361.3054
 -25323397.20747 -19707499.24946  20496604.6414                   20496603.5664
  -8008111.67247  -6224878.81545  22281833.4224                   22281834.4694
 -40826666.22747 -31786084.89544  23252972.1254                   23252972.0204
 11  8 14  1 39 30.0000000  0  8G29G12G02G17G10G05G25G04
  10590704.41846   8264875.83743  24343538.7504                   24343540.9774
 -28879900.94948 -22479438.37546  20646382.1804                   20646380.3164
 -41137328.93048 -32029504.98246  20771135.9614                   20771132.6454
 -30590867.63346 -23817096.12844  24352655.6174                   24352654.1524
 -31947505.97747 -24871209.48245  21449061.1884                   21449059.8244
 -25425600.78148 -19787138.36646  20477156.0394                   20477154.5474
  -8132385.48847  -6321715.47745  22258184.9304                   22258186.4654
 -40803232.73847 -31767825.07644  23257431.7894                   23257431.4964
 11  8 14  1 40  0.0000000  0  8G29G12G02G17G10G05G25G04
  10451257.88746   8156216.31943  24317003.5704                   24317004.2974
 -28940631.77748 -22526761.10546  20634825.6414                   20634823.5084
 -41171642.52348 -32056242.84846  20764606.7424                   20764602.7664
 -30577397.62146 -23806600.00543  24355218.3984                   24355217.8524
 -31943289.74647 -24867924.11245  21449862.8284                   21449861.9924
 -25527218.08248 -19866320.63946  20457819.1724                   20457817.5124
  -8256164.55147  -6418166.65245  22234630.9694                   22234631.9654
 -40779775.11347 -31749546.42644  23261895.9224                   23261895.1054
 11  8 14  1 40 30.0000000  0  8G29G12G02G17G10G05G25G04
  10311784.46146   8047535.77643  24290462.7114                   24290463.6454
 -29000737.80147 -22573596.96546  20623387.9534                   20623385.6914
 -41205748.60947 -32082819.02246  20758116.2974                   20758112.8754
 -30563702.11746 -23795928.16644  24357824.3914                   24357824.1294
 -31938531.62147 -24864216.47945  21450768.2894                   21450767.3874
 -25628249.65647 -19945046.51346  20438593.5784                   20438592.1334
  -8379448.21147  -6514231.79645  22211170.7664                   22211171.6644
 -40756295.41847 -31731250.60744  23266363.3754                   23266363.0434
 11  8 14  1 41  0.0000000  0  8G29G12G02G17G10G05G25G04
  10172282.28146   7938832.91243  24263916.2814                   24263917.3554
 -29060220.89148 -22619947.43046  20612068.2814                   20612066.6214
 -41239650.54748 -32109236.11346  20751665.1644                   20751661.3284
 -30549783.53546 -23785082.61643  24360473.0314                   24360473.3594
 -31933236.03147 -24860090.03445  21451776.1564                   21451774.8914
 -25728696.27347 -20023316.57446  20419478.9844                   20419477.7814
  -8502236.42647  -6609910.87245  22187804.6174                   22187806.1024
 -40732796.91847 -31712940.10644  23270835.0554                   23270834.4224
 11  8 14  1 41 30.0000000  0  7G29G12G02G10G05G25G04
  10032754.43846   7830110.04443  24237365.0394                   24237366.1684
 -29119078.88748 -22665810.80246  20600867.9224                   20600866.3244
 -41273346.94947 -32135493.03546  20745252.8364                   20745248.8634
 -31927403.08247 -24855544.86345  21452886.4614                   21452884.9384
 -25828554.40248 -20101128.06746  20400476.6644                   20400475.2114
  -8624524.62547  -6705200.33945  22164533.8444                   22164534.6414
 -40709277.99647 -31694613.72244  23275310.3364                   23275310.2194
 11  8 14  1 42  0.0000000  0  7G29G12G02G10G05G25G04
  11468622.93447   8948968.70044  24510602.0394                   24510602.7664
 -27601892.70748 -21483587.80246  20889579.1254                   20889577.5084
 -39731420.99648 -30933992.28446  21038671.2424                   21038667.9184
 -30345618.73047 -23622985.63845  21753890.2274                   21753888.6804
 -24352402.82847 -18950880.05946  20681378.8054                   20681377.1954
  -7170889.80947  -5572497.87145  22441151.4224                   22441152.3054
 -39110323.66047 -30448675.26543  23579581.5004                   23579581.3094
 11  8 14  1 42 30.0000000  0  7G29G12G02G10G05G25G04
  11329051.59847   8840211.91844  24484042.1334                   24484042.7194
 -27659493.98448 -21528471.90246  20878617.9614                   20878615.9844
 -39764703.54747 -30959926.71646  21032337.9224                   21032334.5354
 -30338712.91447 -23617604.46445  21755203.9844                   21755202.7344
 -24451074.22748 -19027766.81446  20662602.2584                   20662600.7424
  -7292165.62147  -5666998.47945  22418073.4304                   22418074.3594
 -39086760.78146 -30430314.63943  23584065.0314                   23584064.9264
 11  8 14  1 43  0.0000000  0  7G29G12G02G10G05G25G04
  11189471.87547   8731448.62243  24457481.0554                   24457481.6484
 -27716454.10548 -21572856.40646  20867778.7734                   20867776.9304
 -39797768.15647 -30985691.32246  21026046.3134                   21026042.6524
 -30331261.79747 -23611798.37845  21756622.1414                   21756621.0354
 -24549138.30148 -19104180.34446  20643940.8984                   20643939.5204
  -7412919.57047  -5761092.48345  22395094.7814                   22395096.2704
 -39063164.80546 -30411928.15243  23588555.6334                   23588555.3914
 11  8 14  1 43 30.0000000  0  7G29G12G02G10G05G25G04
  11049885.50447   8622680.15843  24430919.1334                   24430919.2384
 -27772772.64848 -21616740.98646  20857061.6334                   20857059.8754
 -39830615.42648 -31011286.57546  21019795.2504                   21019792.0164
 -30323266.73047 -23605568.47445  21758143.7504                   21758141.9264
 -24646593.42648 -19180119.36546  20625396.2504                   20625394.7034
  -7533148.82447  -5854777.61645  22372215.8364                   22372217.0904
 -39039535.85246 -30393516.00243  23593051.9924                   23593051.1954
 11  8 14  1 44  0.0000000  0  7G29G12G02G10G05G25G04
  10910285.07446   8513900.67544  24404352.9694                   24404354.5004
 -27828457.32448 -21660131.63246  20846465.3914                   20846463.4064
 -39863253.84447 -31036719.08646  21013584.4144                   21013580.7464
 -30314738.20747 -23598922.86145  21759766.4384                   21759764.8244
 -24743445.95748 -19255588.84546  20606965.6804                   20606964.3324
  -7652859.07047  -5948058.35945  22349436.2504                   22349436.9694
 -39015882.35246 -30375084.76343  23597552.7584                   23597552.9774
 11  8 14  1 44 30.0000000  0  7G29G12G02G10G05G25G04
  10770675.83646   8405114.37143  24377786.5474                   24377787.0314
 -27883503.41848 -21703024.66946  20835990.2734                   20835988.5904
 -39895679.75048 -31061986.00546  21007413.9144                   21007410.2234
 -30305674.36347 -23591860.10745  21761491.3674                   21761489.7774
 -24839690.22348 -19330584.33346  20588650.9454                   20588649.4104
  -7772043.62947  -6040929.45645  22326756.1884                   22326756.7894
 -38992200.87546 -30356631.68843  23602059.4774                   23602059.5864
 11  8 14  1 45  0.0000000  0  7G29G12G02G10G05G25G04
  10631050.21546   8296315.32843  24351216.5864                   24351217.6094
 -27937919.69147 -21745426.95846  20825635.4694                   20825633.6174
 -39927902.71548 -31087094.78346  21001282.0084                   21001278.2814
 -30296086.16047 -23584388.76945  21763315.5944                   21763314.1684
 -24935333.64548 -19405111.64846  20570450.6884                   20570449.1764
  -7890708.93447  -6133395.95345  22304174.2344                   22304175.7854
 -38968500.93046 -30338164.25143  23606569.0394                   23606569.0124
 11  8 14  1 45 30.0000000  0  7G29G12G02G10G05G25G04
  10491409.55946   8187504.48243  24324642.6174                   24324643.5784
 -27991705.08648 -21787337.64446  20815400.1414                   20815398.2624
 -39959923.29348 -31112045.84346  20995188.9694                   20995185.3364
 -30285975.38347 -23576510.23245  21765239.6884                   21765237.9064
 -25030374.81648 -19479169.67246  20552364.6644                   20552363.4384
  -8008852.21947  -6225455.69045  22281692.6724                   22281693.7154
 -38944782.23846 -30319682.12243  23611083.0554                   23611082.8204
 11  8 14  1 46  0.0000000  0  7G29G12G02G10G05G25G04
  10351750.73446   8078679.49643  24298067.5474                   24298066.7894
 -28044863.84048 -21828760.05646  20805284.3674                   20805282.6054
 -39991745.80148 -31136842.58646  20989133.4384                   20989129.4454
 -30275348.24247 -23568229.33645  21767262.1804                   21767260.5904
 -25124816.16448 -19552760.29446  20534393.4534                   20534391.4884
  -8126475.01647  -6317109.86945  22259309.8054                   22259310.5634
 -38921049.42246 -30301189.03944  23615600.1804                   23615599.1684
 11  8 14  1 46 30.0000000  0  7G29G12G02G10G05G25G04
  10212075.69146   7969841.80443  24271488.6724                   24271488.4654
 -28097394.91448 -21869693.34746  20795288.1094                   20795286.5354
 -40023370.27748 -31161484.99746  20983115.0634                   20983111.5124
 -30264206.33247 -23559547.32345  21769382.1174                   21769380.8014
 -25218655.55548 -19625881.86246  20516536.2814                   20516534.7854
  -8243574.46147  -6408356.22145  22237026.5944                   22237027.5704
 -38897302.28546 -30282684.77243  23620118.8134                   23620118.0394
 11  8 14  1 47  0.0000000  0  7G29G12G02G10G05G25G04
  10072386.49646   7860993.12643  24244906.4694                   24244907.0744
 -28149297.05148 -21910136.57746  20785411.6564                   20785409.8484
 -40054796.09447 -31185972.62946  20977135.0394                   20977131.7154
 -30252550.53947 -23550464.87045  21771600.4144                   21771598.6094
 -25311890.50848 -19698532.44946  20498794.1954                   20498793.0234
  -8360146.75047  -6499191.78345  22214843.6484                   22214844.9384
 -38873539.98447 -30264168.74843  23624640.6954                   23624639.1684
 11  8 14  1 47 30.0000000  0  7G29G12G02G10G05G25G04
   9932682.85546   7752133.15443  24218321.7734                   24218322.0044
 -28200571.78548 -21950090.89546  20775654.5394                   20775652.4964
 -40086025.85247 -31210307.47246  20971192.5944                   20971188.5664
 -30240385.09847 -23540985.30345  21773915.3284                   21773913.9614
 -25404521.47747 -19770712.38846  20481167.2584                   20481165.3484
  -8476191.47747  -6589616.24045  22192760.2504                   22192762.8164
 -38849764.92646 -30245642.71243  23629164.1564                   23629163.6174
 11  8 14  1 48  0.0000000  0  7G29G12G02G10G05G25G04
   9792964.42646   7643261.68043  24191733.0864                   24191734.8594
 -28251220.26648 -21989557.23146  20766016.0474                   20766014.1334
 -40117061.16447 -31234490.81846  20965286.2194                   20965282.6644
 -30227713.25847 -23531111.13445  21776326.6884                   21776325.2384
 -25496548.85547 -19842422.00146  20463654.9614                   20463653.2774
  -8591707.52047  -6679628.72045  22170779.3284                   22170780.5904
 -38825978.84846 -30227108.07943  23633690.4064                   23633689.2814
 11  8 14  1 48 30.0000000  0  7G29G12G02G10G05G25G04
   9653234.42646   7534381.24643  24165144.3524                   24165144.3134
 -28301240.30548 -22028533.90846  20756497.7114                   20756495.7424
 -40147900.86747 -31258521.72846  20959417.8284                   20959414.1844
 -30214535.43047 -23520842.69145  21778834.1484                   21778832.7154
 -25587969.23047 -19913658.63046  20446258.3754                   20446256.2774
  -8706690.65647  -6769225.94745  22148898.2814                   22148899.8404
 -38802179.99246 -30208563.52143  23638218.7584                   23638218.3874
 11  8 14  1 49  0.0000000  0  7G29G12G02G10G05G25G04
   9513485.82446   7425486.19943  24138550.3134                   24138549.7384
 -28350639.50048 -22067026.77446  20747097.0784                   20747095.2974
 -40178553.36747 -31282406.76746  20953584.5944                   20953580.8794
 -30200862.05947 -23510188.11745  21781435.9774                   21781434.4614
 -25678789.34848 -19984427.52746  20428975.7424                   20428973.8054
  -8821146.49647  -6858412.27845  22127118.0634                   22127119.6954
 -38778376.79746 -30190015.59643  23642748.9614                   23642747.6454
 11  8 14  1 49 30.0000000  0  7G29G12G02G10G05G25G04
   9373722.58246   7316579.91043  24111954.5634                   24111953.8984
 -28399415.18048 -22105033.78046  20737815.6254                   20737813.3244
 -40209016.67647 -31306144.39046  20947787.9224                   20947784.0354
 -30186692.35247 -23499146.79245  21784131.8444                   21784130.7544
 -25769004.91847 -20054725.34546  20411808.4064                   20411806.3754
  -8935069.89847  -6947183.71745  22105439.1724                   22105440.5004
 -38754566.64546 -30171462.24843  23647280.3054                   23647279.4804
 11  8 14  1 50  0.0000000  0  7G29G12G02G10G05G25G04
   9233945.88746   7207662.99343  24085355.4534                   24085356.0234
 -28447567.83248 -22142555.32046  20728652.4144                   20728650.5474
 -40239291.29747 -31329734.98546  20942026.7344                   20942023.0824
 -30172028.55547 -23487720.44245  21786923.3674                   21786921.5434
 -25858615.23047 -20124551.53746  20394755.8444                   20394754.0664
  -9048458.83247  -7035538.66945  22083861.8444                   22083863.0204
 -38730750.22746 -30152904.00143  23651812.0864                   23651811.7584
 11  8 14  1 50 30.0000000  0  7G29G12G02G10G05G25G04
   9094158.92646   7098738.12243  24058755.3524                   24058754.9144
 -28495095.00848 -22179589.48146  20719608.3054                   20719606.4184
 -40269375.69147 -31353177.33446  20936301.9064                   20936298.1804
 -30156871.05947 -23475909.42245  21789807.2344                   21789805.9454
 -25947617.04747 -20193903.57046  20377819.6724                   20377817.7274
  -9161308.82447  -7123473.68645  22062387.1884                   22062388.2074
 -38706925.99246 -30134339.64743  23656345.2194                   23656345.0474
 11  8 14  1 51  0.0000000  0  7G29G12G02G10G05G25G04
   8954357.98446   6989802.38643  24032152.4924                   24032152.3794
 -28542001.67648 -22216140.12846  20710682.5314                   20710680.6054
 -40299275.52047 -31376475.88746  20930612.4224                   20930608.3634
 -30141226.75447 -23463719.05445  21792784.7344                   21792783.1884
 -26036014.25448 -20262784.46746  20360997.9614                   20360995.8484
  -9273622.67247  -7210990.88145  22041014.4064                   22041015.5824
 -38683098.98047 -30115773.15543  23660879.6414                   23660878.9384
 11  8 14  1 51 30.0000000  0  7G29G12G02G10G05G25G04
   8814542.78146   6880855.48543  24005545.8444                   24005546.5124
 -28588289.06648 -22252208.23346  20701873.9844                   20701872.2544
 -40328992.60547 -31399632.05046  20924957.2504                   20924952.9224
 -30125099.41447 -23451152.29945  21795853.3134                   21795852.2544
 -26123806.84848 -20331194.25546  20344291.5474                   20344289.6024
  -9385399.41847  -7298089.57045  22019744.0164                   22019745.3284
 -38659270.95747 -30097205.82543  23665414.6254                   23665414.5394
 11  8 14  1 52  0.0000000  0  7G29G12G02G10G05G25G04
   8674714.09846   6771898.11343  23978937.4534                   23978938.0474
 -28633958.07848 -22287794.46846  20693183.5784                   20693181.6174
 -40358527.92647 -31422646.57046  20919336.9844                   20919332.8674
 -30108492.28147 -23438211.68945  21799013.0474                   21799011.8364
 -26210994.42647 -20399132.60346  20327700.3594                   20327698.2734
  -9496637.39848  -7384768.44945  21998576.3204                   21998577.9384
 -38635442.83247 -30078638.47144  23669949.0164                   23669948.7544
 11  8 14  1 52 30.0000000  0  7G29G12G02G10G05G25G04
   8534875.29346   6662932.89243  23952327.4454                   23952327.2854
 -28679006.69948 -22322897.29046  20684611.2664                   20684609.2034
 -40387880.24247 -31445518.47546  20913751.1954                   20913747.2584
 -30091405.59847 -23424897.39045  21802265.2424                   21802264.0434
 -26297573.88348 -20466597.07646  20311224.6724                   20311222.5594
  -9607332.53547  -7471024.32445  21977511.7504                   21977513.0514
 -38611612.77347 -30060069.60544  23674483.9384                   23674483.3524
 11  8 14  1 53  0.0000000  0  7G29G12G02G10G05G25G04
   8395022.29346   6553956.54744  23925713.8284                   23925714.1994
 -28723440.09848 -22357520.71646  20676155.7034                   20676154.0394
 -40417054.92647 -31468251.99146  20908199.4774                   20908195.6884
 -30073846.83647 -23411215.25145  21805606.5394                   21805605.0474
 -26383549.18448 -20533590.79546  20294864.1564                   20294862.2384
  -9717487.54748  -7556859.33145  21956549.7734                   21956550.9184
 -38587786.49646 -30041503.63144  23679016.8754                   23679017.1414
 11  8 14  1 53 30.0000000  0  7G29G12G02G10G05G25G04
   8255162.98046   6444975.30543  23899099.1254                   23899100.4964
 -28767251.56248 -22391659.49946  20667818.5474                   20667816.8524
 -40446045.90648 -31490842.34646  20902682.7504                   20902678.6914
 -30055811.69947 -23397161.89545  21809038.3754                   21809037.1374
 -26468913.17648 -20600108.15446  20278619.8594                   20278618.1214
  -9827093.95748  -7642266.87446  21935692.2274                   21935693.3284
 -38563957.71547 -30022935.75844  23683551.5394                   23683552.3754
 11  8 14  1 54  0.0000000  0  7G29G12G02G10G05G25G04
   8115295.23846   6335987.54344  23872483.5554                   23872484.2734
 -28810444.73848 -22425316.51146  20659599.1564                   20659597.0594
 -40474857.20347 -31513292.70646  20897199.7664                   20897195.7504
 -30037305.69547 -23382741.65045  21812560.1174                   21812558.3404
 -26553667.94148 -20666150.80146  20262491.5084                   20262489.5314
  -9936152.78947  -7727247.73245  21914939.3834                   21914939.8324
 -38540129.91447 -30004368.63744  23688086.8674                   23688086.2234
 11  8 14  1 54 30.0000000  0  7G29G12G02G10G05G25G04
   7975414.79746   6226989.83444  23845864.8444                   23845865.4844
 -28853025.74648 -22458496.51246  20651496.1334                   20651493.8794
 -40503495.01247 -31535607.89146  20891750.7974                   20891746.6024
 -30018336.86747 -23367960.75045  21816169.4924                   21816168.1484
 -26637818.20748 -20731722.40346  20246478.2734                   20246476.3984
 -10044667.62947  -7811804.69845  21894289.2734                   21894290.0514
 -38516308.91446 -29985806.81343  23692619.6884                   23692618.5704
 11  8 14  1 55  0.0000000  0  7G29G12G02G10G05G25G04
   7835524.59046   6117984.58144  23819244.6724                   23819244.9534
 -28894993.09048 -22491198.33346  20643510.1724                   20643508.1214
 -40531958.05548 -31557786.86246  20886334.1174                   20886330.4774
 -29998905.70747 -23352819.61045  21819867.7734                   21819865.5864
 -26721361.08247 -20796820.70646  20230580.4144                   20230578.7424
 -10152634.46148  -7895934.64145  21873743.6954                   21873745.0394
 -38492493.29346 -29967249.21043  23697151.2114                   23697151.1684
 11  8 14  1 55 30.0000000  0  7G29G12G02G10G05G25G04
   9271049.23846   7236575.27443  24092415.9064                   24092416.9144
 -27360926.69148 -21295821.91046  20935433.2034                   20935430.7854
 -38984827.16847 -30352230.33546  21180743.1804                   21180739.5664
 -28403596.50447 -22109721.51445  22123444.4224                   22123442.7934
 -25228874.60947 -19633844.19746  20514591.0474                   20514589.1294
  -8684629.17247  -6752034.36245  22153096.0234                   22153097.0474
 -36893265.40646 -28721097.65143  24001474.7344                   24001473.8164
 11  8 14  1 56  0.0000000  0  7G29G12G02G10G05G25G04
   9131140.95346   7127555.92443  24065792.6644                   24065792.7814
 -27401669.70348 -21327569.69046  20927679.7814                   20927678.1374
 -39012944.88747 -30374140.24046  21175392.5944                   21175388.7464
 -28383250.48047 -22093867.49544  22127316.5234                   22127314.6374
 -25311203.33648 -19697996.42146  20498924.4064                   20498922.4924
  -8791496.78548  -6835307.79245  22132759.8754                   22132760.6484
 -36869464.10545 -28702551.17242  24006002.5084                   24006003.2704
 11  8 14  1 56 30.0000000  0  7G29G12G02G10G05G25G04
   8991225.52746   7018531.02144  24039167.0234                   24039167.8364
 -27441800.46148 -21358840.40946  20920043.3134                   20920041.4534
 -39040890.45347 -30395915.99946  21170074.6094                   21170071.1174
 -28362450.45347 -22077659.67945  22131274.5004                   22131272.7814
 -25392923.29748 -19761674.27146  20483373.7034                   20483371.6884
  -8897811.52048  -6918150.39745  22112528.5784                   22112529.3284
 -36845670.25846 -28684010.45243  24010529.6954                   24010530.5784
 11  8 14  1 57  0.0000000  0  7G29G12G02G10G05G25G04
   8851300.91846   6909498.98244  24012540.4534                   24012541.1564
 -27481322.57448 -21389636.84346  20912522.6804                   20912520.6024
 -39068667.77348 -30417560.65346  21164789.0084                   21164785.5164
 -28341202.62947 -22061102.93745  22135318.1484                   22135316.0234
 -25474037.12947 -19824879.82847  20467938.0944                   20467936.5204
  -9003574.59848  -7000563.14345  22092403.0234                   22092403.5904
 -36821887.48046 -28665478.48343  24015055.7584                   24015055.8634
 11  8 14  1 57 30.0000000  0  7G29G12G02G10G05G25G04
   8711373.68846   6800464.90244  23985912.9844                   23985914.0704
 -27520231.77348 -21419955.70046  20905118.5004                   20905116.4614
 -39096272.28148 -30439070.66246  21159535.5784                   21159531.9224
 -28319504.16847 -22044195.04244  22139447.0234                   22139445.4024
 -25554538.97747 -19887608.51046  20452619.3524                   20452617.5664
  -9108778.95348  -7082540.53345  22072383.1174                   22072383.8484
 -36798110.75446 -28646951.21243  24019581.6414                   24019580.7814
 11  8 14  1 58  0.0000000  0  7G29G12G02G10G05G25G04
   8571445.23846   6691429.87944  23959285.4924                   23959286.1684
 -27558528.62548 -21449797.38746  20897831.1334                   20897828.8404
 -39123704.60548 -30460446.48846  21154315.7274                   21154311.8914
 -28297357.47747 -22026937.88545  22143661.4924                   22143659.2974
 -25634428.17648 -19949859.79947  20437416.6174                   20437414.9654
  -9213422.81648  -7164081.17945  22052469.4534                   22052470.7464
 -36774340.58246 -28628428.85943  24024104.8134                   24024102.9734
 11  8 14  1 58 30.0000000  0  7G29G12G02G10G05G25G04
   8431514.71946   6582393.21944  23932657.8134                   23932657.5354
 -27596215.35248 -21479163.65346  20890659.3524                   20890657.3364
 -39150966.77348 -30481689.73446  21149127.9304                   21149124.1214
 -28274766.78147 -22009334.74844  22147960.3914                   22147958.4534
 -25713705.78148 -20011634.52246  20422330.8364                   20422328.9614
  -9317505.93048  -7245184.86345  22032663.1414                   22032664.2154
 -36750578.96146 -28609913.30643  24028626.2814                   24028624.4384
 11  8 14  1 59  0.0000000  0  7G29G12G02G10G05G25G04
   8291579.98846   6473353.28843  23906028.6954                   23906028.6884
 -27633295.23048 -21508057.07346  20883603.4454                   20883601.4064
 -39178062.82448 -30502803.52046  21143971.4144                   21143968.0594
 -28251738.06647 -21991390.29145  22152342.2584                   22152340.7384
 -25792374.52748 -20072934.82046  20407360.5474                   20407358.9614
  -9421029.77348  -7325852.77045  22012963.3754                   22012964.5354
 -36726829.44946 -28591407.12243  24033145.2894                   24033144.2464
 11  8 14  1 59 30.0000000  0  7G29G12G02G10G05G25G04
   8151641.61746   6364310.57243  23879399.1254                   23879399.6914
 -27669770.31648 -21536479.21646  20876662.3284                   20876660.3164
 -39204994.32848 -30523789.10546  21138846.7424                   21138842.9844
 -28228274.25047 -21973106.79844  22156807.5474                   22156805.5084
 -25870434.81248 -20133760.98947  20392506.2504                   20392504.5084
  -9523993.42248  -7406084.16245  21993370.0474                   21993371.4654
 -36703093.15646 -28572911.32643  24037662.6644                   24037661.6724
 11  8 14  2  0  0.0000000  0  7G29G12G02G10G05G25G04
   8011698.19546   6255263.88244  23852768.1954                   23852769.2464
 -27705643.57048 -21564432.39546  20869835.5554                   20869834.1414
 -39231764.08247 -30544648.64146  21133752.5234                   21133748.9654
 -28204380.82447 -21954488.54445  22161354.1644                   22161352.0664
 -25947888.35948 -20194114.36746  20377767.0474                   20377765.5594
  -9626397.64548  -7485879.63146  21973883.0784                   21973884.5354
 -36679373.09446 -28554428.17043  24042176.6254                   24042175.8054
 11  8 14  2  0 30.0000000  0  7G29G12G02G10G05G25G04
   7871753.34446   6146216.09243  23826137.5634                   23826137.8834
 -27740913.19548 -21591915.21646  20863123.8524                   20863122.2384
 -39258370.54747 -30565380.94146  21128689.5704                   21128685.6134
 -28180058.12947 -21935535.78245  22165982.9924                   22165981.1024
 -26024732.71948 -20253993.07046  20363144.2424                   20363142.4804
  -9728238.45748  -7565236.08146  21954503.2424                   21954504.7384
 -36655667.37146 -28535956.18443  24046687.6644                   24046687.0634
 11  8 14  2  1  0.0000000  0  7G29G12G02G10G05G25G04
   7731807.48047   6037167.47643  23799507.1644                   23799506.5234
 -27775580.71548 -21618928.85846  20856527.3134                   20856525.0634
 -39284815.34047 -30585987.26546  21123657.2734                   21123652.9184
 -28155309.35247 -21916251.02645  22170692.0474                   22170690.5634
 -26100967.88348 -20313397.07247  20348636.9064                   20348635.6604
  -9829514.82848  -7644152.71646  21935231.3134                   21935232.4344
 -36631976.98046 -28517496.11543  24051195.4844                   24051195.4694
 11  8 14  2  1 30.0000000  0  7G29G12G02G10G05G25G04
   7591861.56347   5928118.80443  23772876.2734                   23772875.6414
 -27809646.58648 -21645473.68346  20850044.4774                   20850042.5234
 -39311098.36747 -30606467.52646  21118656.0004                   21118651.5554
 -28130137.02747 -21896636.19344  22175482.3134                   22175480.7304
 -26176593.30948 -20372325.94547  20334245.8444                   20334244.3524
  -9930224.89148  -7722628.06146  21916066.7894                   21916068.0164
 -36608301.95346 -28499047.97143  24055701.1024                   24055700.6374
 11  8 14  2  2  0.0000000  0  7G29G12G02G10G05G25G04
   7451918.45746   5819072.30443  23746245.6564                   23746244.5634
 -27843110.51648 -21671549.46946  20843676.7734                   20843674.7624
 -39337219.85247 -30626821.92446  21113684.9694                   21113681.2074
 -28104543.16847 -21876692.94845  22180352.4694                   22180350.5704
 -26251607.74248 -20430778.73147  20319971.1804                   20319969.6024
 -10030366.15248  -7800660.19546  21897010.4454                   21897011.3914
 -36584641.91846 -28480611.59443  24060202.5554                   24060202.5824
 11  8 14  2  2 30.0000000  0  7G29G12G02G10G05G25G04
   7311975.53146   5710025.93443  23719615.2274                   23719614.9184
 -27875977.37948 -21697160.02146  20837422.0944                   20837420.5124
 -39363183.93447 -30647053.66846  21108743.9694                   21108740.1174
 -28078533.82847 -21856425.92044  22185301.8444                   22185300.6334
 -26326014.71548 -20488758.16446  20305812.2344                   20305810.3714
 -10129940.73448  -7878250.75546  21878062.0084                   21878062.8874
 -36561000.78146 -28462189.90843  24064700.9384                   24064701.2234
 11  8 14  2  3  0.0000000  0  7G29G12G02G10G05G25G04
   7172036.13746   5600982.36043  23692986.1564                   23692986.1564
 -27908245.69148 -21722304.16146  20831281.8984                   20831279.8324
 -39388989.13348 -30667161.58846  21103833.2034                   21103829.7234
 -28052109.46547 -21835835.49944  22190330.6484                   22190328.0944
 -26399811.55948 -20546262.16947  20291768.8134                   20291766.9654
 -10228944.75048  -7955396.72046  21859222.3754                   21859223.3204
 -36537376.89546 -28443781.71943  24069195.6334                   24069196.2074
 11  8 14  2  3 30.0000000  0  7G29G12G02G10G05G25G04
   7032099.62147   5491940.98944  23666357.0634                   23666357.1844
 -27939917.94948 -21746983.83246  20825254.9924                   20825252.7894
 -39414637.37148 -30687147.21246  21098952.8914                   21098948.8674
 -28025274.70747 -21814925.29244  22195436.6884                   22195434.7114
 -26472999.79348 -20603291.93347  20277841.5314                   20277840.1604
 -10327378.44148  -8032098.28346  21840491.1024                   21840492.0274
 -36513772.06246 -28425388.24643  24073688.3754                   24073688.3014
 11  8 14  2  4  0.0000000  0  7G29G12G02G10G05G25G04
   6892167.73047   5382903.21344  23639728.6254                   23639728.8674
 -27970994.74648 -21771199.53146  20819341.2814                   20819339.1604
 -39440128.83647 -30707010.67546  21094102.2114                   21094098.4104
 -27998031.84847 -21793697.05444  22200620.5784                   22200618.9344
 -26545578.63748 -20659846.85247  20264030.6954                   20264028.7774
 -10425239.78548  -8108353.85046  21821868.4384                   21821869.2894
 -36490186.12946 -28407009.58743  24078176.7034                   24078177.0044
 11  8 14  2  4 30.0000000  0  7G29G12G02G10G05G25G04
   6752239.75447   5273868.47944  23613100.7814                   23613101.6254
 -28001478.48848 -21794953.07746  20813540.3524                   20813538.1024
 -39465466.37548 -30726754.18746  21089280.6174                   21089276.4884
 -27970385.37547 -21772154.35445  22205881.9454                   22205880.8914
 -26617549.72348 -20715928.18747  20250334.7664                   20250333.0354
 -10522529.08648  -8184163.67346  21803354.7664                   21803355.9184
 -36466621.57846 -28388647.65843  24082661.4534                   24082661.0124
 11  8 14  2  5  0.0000000  0  7G29G12G02G10G05G25G04
   6612319.36747   5164839.63544  23586475.4144                   23586475.7344
 -28031368.42248 -21818243.92746  20807852.0314                   20807850.2074
 -39490648.28947 -30746376.43346  21084488.6884                   21084484.5594
 -27942335.79347 -21750297.53944  22211219.0864                   22211217.7384
 -26688910.93048 -20771534.28847  20236754.9454                   20236753.2274
 -10619242.95348  -8259525.10246  21784951.4064                   21784951.6844
 -36443076.67246 -28370300.93943  24087141.6644                   24087141.0744
 11  8 14  2  5 30.0000000  0  7G29G12G02G10G05G25G04
   6472407.11747   5055817.18044  23559850.3834                   23559851.2154
 -28060665.84448 -21841073.08946  20802277.4144                   20802275.2544
 -39515675.66848 -30765878.26746  21079725.7664                   21079721.9494
 -27913886.12547 -21728128.97144  22216633.6484                   22216631.8834
 -26759662.45348 -20826665.32347  20223291.3054                   20223289.8524
 -10715380.12548  -8334437.16946  21766657.0474                   21766657.7544
 -36419551.98846 -28351970.04043  24091618.0234                   24091617.6134
 11  8 14  2  6  0.0000000  0  7G29G12G02G10G05G25G04
   6332506.11747   4946803.46444  23533228.8054                   23533228.8094
 -28089369.93747 -21863439.90446  20796815.1724                   20796813.2274
 -39540547.29348 -30785258.72646  21074993.1254                   21074989.0904
 -27885037.38747 -21705649.43044  22222123.3834                   22222121.2504
 -26829802.17648 -20881319.62947  20209943.9224                   20209942.4304
 -10810937.52048  -8408897.46846  21748472.6334                   21748473.2114
 -36396045.91446 -28333653.51843  24096091.1024                   24096091.0274
 11  8 14  2  6 30.0000000  0  7G29G12G02G10G05G25G04
   6192611.22347   4837794.46944  23506606.8204                   23506607.2234
 -28117488.28147 -21885350.30246  20791464.5784                   20791462.4654
 -39565270.36347 -30804523.42645  21070288.1334                   21070284.2974
 -27855799.09847 -21682866.35444  22227686.9534                   22227685.2584
 -26899336.58648 -20935502.25547  20196712.2664                   20196710.7274
 -10905920.24248  -8482909.95346  21730397.7734                   21730398.6684
 -36372565.44146 -28315357.07543  24100559.8134                   24100559.9614
 11  8 14  2  7  0.0000000  0  7G29G12G02G10G05G25G04
   6052727.91447   4728794.53544  23479988.2274                   23479988.2234
 -28145017.65647 -21906801.75746  20786225.5234                   20786223.4804
 -39589841.05947 -30823669.40846  21065612.7734                   21065608.8164
 -27826169.66047 -21659778.49144  22233325.8594                   22233323.9344
 -26968261.72748 -20989210.12246  20183596.4224                   20183594.5434
 -11000322.61748  -8556470.22146  21712433.7194                   21712434.6054
 -36349106.53946 -28297077.34443  24105023.3204                   24105024.0634
 11  8 14  2  7 30.0000000  0  7G29G12G02G10G05G25G04
   5912856.53947   4619803.87844  23453371.4844                   23453371.4414
 -28171959.63348 -21927795.49546  20781098.7974                   20781096.5514
 -39614260.68048 -30842697.66846  21060965.4774                   21060961.9454
 -27796152.73847 -21636388.69844  22239038.0084                   22239035.4734
 -27036577.98048 -21042443.53147  20170595.9614                   20170594.3554
 -11094144.13348  -8629577.87746  21694580.0864                   21694580.7894
 -36325670.44146 -28278815.48343  24109483.8204                   24109483.7154
 11  8 14  2  8  0.0000000  0  7G29G12G02G10G05G25G04
   5772996.08246   4510821.76944  23426756.5314                   23426757.0044
 -28198318.36348 -21948334.76746  20776082.9144                   20776080.8634
 -39638532.48847 -30861610.74846  21056347.1024                   21056343.1564
 -27765753.41447 -21612700.91444  22244822.1884                   22244820.1094
 -27104287.81248 -21095204.40547  20157711.1724                   20157709.6414
 -11187385.93748  -8702233.81146  21676836.4774                   21676837.6724
 -36302259.92246 -28260573.44942  24113937.2344                   24113938.2774
 11  8 14  2  8 30.0000000  0  7G29G12G02G10G05G25G04
   5633147.89146   4401849.22444  23400144.7734                   23400144.3284
 -28224094.55147 -21968420.10546  20771178.0234                   20771175.5234
 -39662656.91847 -30880408.97446  21051756.3204                   21051752.4264
 -27734974.13347 -21588717.07744  22250679.6024                   22250677.5904
 -27171391.15648 -21147492.68746  20144942.0704                   20144940.0124
 -11280046.53948  -8774436.86446  21659203.8284                   21659204.4534
 -36278874.85945 -28242351.31242  24118387.5784                   24118387.4224
 11  8 14  2  9  0.0000000  0  7G29G12G02G10G05G25G04
   7068740.07447   5520492.51744  23673328.1334                   23673328.1954
 -26673866.14547 -20760449.91546  21066176.5234                   21066174.1454
 -38111211.75448 -29671490.64846  21346986.4224                   21346982.6374
 -26128396.93047 -20336838.76244  22556400.8674                   22556399.3954
 -25662463.76648 -19971705.08146  20432080.8834                   20432079.5274
  -9796699.59448  -7618582.06946  21941475.3754                   21941476.3914
 -34680094.63346 -26996548.59043  24422626.2664                   24422625.0634
 11  8 14  2  9 30.0000000  0  7G29G12G02G10G05G25G04
   6928925.96947   5411546.54044  23646723.4844                   23646722.8714
 -26698474.96948 -20779625.61846  21061493.8284                   21061491.2894
 -38135037.35248 -29690056.03046  21342452.3914                   21342448.6644
 -26096860.96547 -20312265.29344  22562401.9384                   22562400.4574
 -25728348.57848 -20023043.87047  20419543.9144                   20419541.9454
  -9888188.46148  -7689872.07646  21924066.1884                   21924066.4614
 -34656756.08645 -26978362.76843  24427066.7734                   24427066.9024
 11  8 14  2 10  0.0000000  0  7G29G12G02G10G05G25G04
   6789127.62547   5302612.83944  23620120.5084                   23620120.4884
 -26722505.46148 -20798350.67646  21056920.7974                   21056918.8484
 -38158717.82048 -29708508.32546  21337946.4454                   21337942.3984
 -26064954.10947 -20287402.83544  22568474.2194                   22568471.4884
 -25793627.55547 -20073910.55447  20407121.6334                   20407119.8054
  -9979092.96948  -7760706.72446  21906767.4694                   21906767.9414
 -34633444.68446 -26960197.99543  24431503.3364                   24431502.9694
 11  8 14  2 10 30.0000000  0  8G29G12G02G26G10G05G25G04
   6649345.91446   5193692.08144  23593520.7504                   23593520.5084
 -26745959.26648 -20816626.36646  21052457.8984                   21052455.8324
 -38182254.08248 -29726848.25246  21333467.6884                   21333463.7734
  17111512.72356  13346913.16553  24918874.5474                   24918873.5234
 -26032679.41047 -20262253.73344  22574615.6334                   22574613.5784
 -25858301.43748 -20124305.77147  20394814.4924                   20394812.8954
 -10069412.20748  -7831085.32946  21889580.4454                   21889580.8094
 -34610160.98446 -26942054.80143  24435932.8524                   24435933.6994
 11  8 14  2 11  0.0000000  0  8G29G12G02G26G10G05G25G04
   6509569.96947   5084775.86944  23566922.1644                   23566921.8984
 -26768849.82048 -20834463.15946  21048101.4144                   21048099.7194
 -38205658.80148 -29745085.65646  21329013.6884                   21329009.8204
  16961923.32846  13230350.09943  24890407.4844                   24890408.0394
 -26000051.83647 -20236829.65944  22580824.3754                   22580822.6994
 -25922382.41048 -20174238.96346  20382620.1644                   20382618.7894
 -10159157.29748  -7901016.52546  21872502.2664                   21872502.5314
 -34586917.38346 -26923942.93243  24440356.2664                   24440356.6804
 11  8 14  2 11 30.0000000  0  8G29G12G02G26G10G05G25G04
   6369798.96547   4975863.46644  23540324.4534                   23540324.3954
 -26791180.66448 -20851863.81846  21043852.0394                   21043850.4694
 -38228934.82848 -29763222.80546  21324584.3594                   21324580.6644
  16812221.10946  13113699.13643  24861920.6564                   24861919.8134
 -25967076.75447 -20211134.82444  22587099.0314                   22587097.3094
 -25985872.70747 -20223711.88947  20370538.7974                   20370536.9224
 -10248329.21548  -7970501.11546  21855533.3984                   21855533.7304
 -34563716.41046 -26905864.16543  24444771.8594                   24444771.2384
 11  8 14  2 12  0.0000000  0  8G29G12G02G26G10G05G25G04
   6230031.41847   4866953.79444  23513727.3674                   23513728.1334
 -26812955.72747 -20868831.40046  21039708.7034                   21039706.6604
 -38252085.44547 -29781262.22546  21320178.8204                   21320175.0554
  16662406.05946  12996960.18943  24833411.8524                   24833411.8204
 -25933759.68047 -20185173.49844  22593439.2194                   22593437.1414
 -26048775.59447 -20272727.09647  20358568.2664                   20358566.8284
 -10336929.62548  -8039540.35846  21838673.1094                   21838673.7704
 -34540560.98846 -26887821.07843  24449178.3364                   24449177.0124
 11  8 14  2 12 30.0000000  0  8G29G12G02G26G10G05G25G04
   6090274.51646   4758052.40944  23487133.2424                   23487132.7894
 -26834170.41448 -20885362.31946  21035671.6094                   21035669.6954
 -38275105.19548 -29799199.67546  21315798.6024                   21315794.4384
  16512487.18046  12880140.38643  24804882.4534                   24804883.1414
 -25900097.31247 -20158943.10644  22599844.3594                   22599842.3444
 -26111085.32048 -20321280.10247  20346711.2584                   20346709.1524
 -10424951.57848  -8108128.85746  21821923.1174                   21821924.3054
 -34517445.47346 -26869808.94743  24453578.1414                   24453576.2584
 11  8 14  2 13  0.0000000  0  8G29G12G02G26G10G05G25G04
   5950529.21147   4649160.04044  23460540.4694                   23460540.2814
 -26854826.61348 -20901458.06746  21031741.0394                   21031738.6094
 -38297995.56648 -29817036.31046  21311442.8674                   21311438.2814
  16362466.78146  12763241.43743  24776334.4534                   24776335.2774
 -25866093.08246 -20132446.31644  22606315.7814                   22606313.1134
 -26172802.49648 -20369371.38947  20334967.0394                   20334965.1374
 -10512394.52348  -8176266.19546  21805283.0554                   21805283.7384
 -34494370.73846 -26851828.65043  24457967.9064                   24457966.2464
 11  8 14  2 13 30.0000000  0  8G29G12G02G26G10G05G25G04
   5810803.43447   4540282.89944  23433950.7894                   23433950.2154
 -26874919.17648 -20917114.59946  21027917.1644                   21027915.3954
 -38320750.21148 -29834767.18546  21307112.5474                   21307108.6174
  16212354.25046  12646270.68643  24747769.3204                   24747769.5354
 -25831743.51246 -20105680.44944  22612852.3364                   22612850.1374
 -26233921.08648 -20416996.23547  20323336.3754                   20323334.5904
 -10599250.90648  -8243946.45346  21788754.8284                   21788755.6564
 -34471330.40246 -26833875.17843  24462352.4774                   24462351.0204
 11  8 14  2 14  0.0000000  0  8G29G12G02G26G10G05G25G04
   5671094.57846   4431418.95344  23407365.5234                   23407364.8094
 -26894453.80948 -20932336.38646  21024200.1024                   21024198.0124
 -38343373.15648 -29852395.43246  21302807.4614                   21302803.4104
  16062149.13345  12529227.85943  24719186.0704                   24719186.8094
 -25797054.79746 -20078650.31444  22619453.0864                   22619451.7074
 -26294444.87948 -20464157.60647  20311819.3284                   20311817.1294
 -10685523.44948  -8311171.77646  21772337.8284                   21772338.4964
 -34448328.54346 -26815951.56743  24466729.3134                   24466728.6054
 11  8 14  2 14 30.0000000  0  8G29G12G02G26G10G05G25G04
   5531407.22347   4322571.70744  23380783.1644                   23380783.5824
 -26913428.54348 -20947121.88946  21020589.2894                   21020587.0784
 -38365862.34848 -29869919.46346  21298527.5554                   21298523.4384
  15911857.37545  12412117.48842  24690587.4064                   24690586.3754
 -25762027.18747 -20051356.08044  22626118.6024                   22626117.0234
 -26354371.50048 -20510853.64147  20300415.4224                   20300413.5044
 -10771208.17648  -8377939.06546  21756032.3674                   21756033.4104
 -34425362.23846 -26798055.70643  24471100.5164                   24471100.0044
 11  8 14  2 15  0.0000000  0  8G29G12G02G26G10G05G25G04
   5391743.88747   4213743.24344  23354206.5164                   23354206.6844
 -26931843.84048 -20961471.46246  21017085.3834                   21017082.5554
 -38388217.13347 -29887338.76046  21294273.7894                   21294270.1374
  15761482.79745  12294942.66842  24661971.7814                   24661971.0234
 -25726662.23046 -20023799.01544  22632848.7504                   22632846.1884
 -26413700.30148 -20557083.85347  20289125.5554                   20289123.7704
 -10856303.03548  -8444246.72446  21739839.3914                   21739840.3094
 -34402430.75446 -26780187.02042  24475463.7344                   24475462.8754
 11  8 14  2 15 30.0000000  0  8G29G12G02G26G10G05G25G04
   5252102.00447   4104931.46344  23327633.0704                   23327632.6684
 -26949705.05548 -20975389.29646  21013686.0314                   21013684.0744
 -38410441.97347 -29904656.79446  21290044.7274                   21290040.8554
  15611024.82845  12177702.70342  24633339.5234                   24633339.6094
 -25690966.52047 -19995984.18844  22639641.3524                   22639639.1374
 -26472435.40648 -20602851.44047  20277948.6094                   20277946.5044
 -10940810.97348  -8510097.02546  21723758.2504                   21723758.9344
 -34379538.13346 -26762348.60242  24479820.9614                   24479819.1484
 11  8 14  2 16  0.0000000  0  8G29G12G02G26G10G05G25G04
   5112486.54747   3996140.31944  23301064.9924                   23301064.7154
 -26967010.14148 -20988873.78346  21010393.3834                   21010391.4024
 -38432533.57047 -29921871.01646  21285841.0164                   21285836.8834
  15460489.77046  12060402.78542  24604694.0634                   24604693.1374
 -25654939.23847 -19967911.03544  22646496.9534                   22646494.6724
 -26530573.44548 -20648153.77947  20266885.0634                   20266883.6764
 -11024727.43048  -8575486.44346  21707789.5164                   21707790.2194
 -34356680.97346 -26744537.84442  24484170.5004                   24484167.9574
 11  8 14  2 16 30.0000000  0  8G29G12G02G26G10G05G25G04
   4972898.42646   3887370.43644  23274502.2504                   23274501.5744
 -26983761.19548 -21001926.53946  21007205.1484                   21007203.2974
 -38454493.21547 -29938982.39946  21281662.0164                   21281657.7344
  15309880.48046  11943044.91042  24576034.4844                   24576033.4774
 -25618584.13746 -19939582.40344  22653415.2194                   22653413.3204
 -26588115.80948 -20692991.96447  20255935.2424                   20255933.8634
 -11108052.19947  -8640414.79946  21691933.1884                   21691933.7624
 -34333860.21146 -26726755.40642  24488511.2424                   24488510.9574
 11  8 14  2 17  0.0000000  0  8G29G12G02G26G10G05G25G04
   4833340.24646   3778623.92144  23247945.3754                   23247944.7814
 -26999958.55548 -21014547.85646  21004123.1954                   21004121.3714
 -38476319.94147 -29955990.22446  21277508.7584                   21277503.8834
  15159201.05546  11825632.42643  24547360.7194                   24547360.7384
 -25581902.56246 -19910999.38044  22660395.8754                   22660393.4884
 -26645061.59848 -20737365.26947  20245098.9844                   20245097.1564
 -11190783.03147  -8704880.36946  21676190.0704                   21676190.7154
 -34311074.37146 -26709000.17642  24492848.0164                   24492847.8634
 11  8 14  2 17 30.0000000  0  8G29G12G02G26G10G05G25G04
   4693813.41446   3669901.83944  23221394.4924                   23221394.0664
 -27015604.03548 -21026739.13646  21001145.9774                   21001144.1174
 -38498014.34447 -29972894.92846  21273380.5004                   21273376.1524
  15008454.31646  11708167.48443  24518674.4144                   24518674.8284
 -25544897.52346 -19882164.29744  22667437.8204                   22667435.6054
 -26701411.39148 -20781274.18047  20234375.8204                   20234374.2234
 -11272919.28148  -8768882.59646  21660560.0704                   21660560.6024
 -34288324.21146 -26691272.75243  24497177.5234                   24497176.5594
 11  8 14  2 18  0.0000000  0  8G29G12G02G26G10G05G25G04
   4554318.71546   3561204.79644  23194849.1024                   23194849.2664
 -27030699.65648 -21038501.94946  20998273.4064                   20998271.3164
 -38519577.59847 -29989697.44846  21269277.2034                   21269272.9184
  14857642.77046  11590652.06643  24489976.4774                   24489975.9884
 -25507572.40246 -19853079.80544  22674540.1334                   22674538.6294
 -26757166.27047 -20824719.51447  20223766.0394                   20223764.2154
 -11354460.84048  -8832421.44946  21645043.1644                   21645043.6914
 -34265610.34446 -26673573.65243  24501500.0784                   24501499.6604
 11  8 14  2 18 30.0000000  0  8G29G12G02G26G10G05G25G04
   4414860.22346   3452536.01644  23168310.5554                   23168310.6134
 -27045244.76648 -21049835.79646  20995505.6484                   20995503.4654
 -38541007.71147 -30006396.21346  21265198.8134                   21265194.8364
  14706771.99247  11473090.49343  24461267.1804                   24461266.6764
 -25469927.49646 -19823746.14344  22681703.8594                   22681701.8874
 -26812324.31247 -20867699.77647  20213269.6564                   20213268.0744
 -11435404.27747  -8895494.24646  21629639.9844                   21629640.6954
 -34242930.32046 -26655900.86843  24505816.0004                   24505815.4184
 11  8 14  2 19  0.0000000  0  8G29G12G02G26G10G05G25G04
   4275440.48846   3343897.37744  23141780.0864                   23141779.8524
 -27059240.11348 -21060741.26446  20992842.3984                   20992840.0394
 -38562304.32847 -30022990.96646  21261146.0234                   21261141.9694
  14555845.95746  11355485.87643  24432546.4774                   24432546.4144
 -25431964.65246 -19794164.73744  22688928.1804                   22688925.7304
 -26866885.25048 -20910214.76747  20202887.2274                   20202885.5514
 -11515747.91047  -8958099.64346  21614351.2734                   21614351.9614
 -34220283.69546 -26638254.10943  24510125.0004                   24510124.6374
 11  8 14  2 19 30.0000000  0  8G29G12G02G26G10G05G25G04
   4136057.69946   3235287.55044  23115256.4774                   23115255.8634
 -27072689.76648 -21071221.50746  20990282.8524                   20990280.7194
 -38583470.78147 -30039484.28046  21257118.3674                   21257113.9844
  14404864.95746  11237838.50943  24403815.5784                   24403815.4964
 -25393689.66447 -19764340.07544  22696211.8284                   22696209.6724
 -26920852.42648 -20952267.08247  20192617.5314                   20192615.8754
 -11595493.96947  -9020239.40446  21599175.8364                   21599177.2384
 -34197673.31646 -26620635.64143  24514427.6094                   24514427.3914
 11  8 14  2 20  0.0000000  0  8G29G12G02G26G10G05G25G04
   3996713.82046   3126708.06244  23088740.0704                   23088738.9144
 -27085595.53148 -21081277.95546  20987827.1724                   20987824.8094
 -38604507.06647 -30055876.17446  21253115.2664                   21253111.7704
  14253832.57046  11120150.93143  24375074.6024                   24375074.5354
 -25355105.19946 -19734274.27944  22703554.0704                   22703552.0474
 -26974226.11748 -20993856.94747  20182460.7504                   20182459.1414
 -11674641.30948  -9081912.62646  21584114.6094                   21584114.9184
 -34175098.79746 -26603045.05043  24518723.1884                   24518723.5314
 11  8 14  2 20 30.0000000  0  8G29G12G02G26G10G05G25G04
   3857408.69546   3018158.73144  23062230.9144                   23062230.5234
 -27097960.88748 -21090913.27946  20985473.7734                   20985471.8404
 -38625415.12147 -30072168.15246  21249136.6804                   21249132.8914
  14102749.99646  11002424.33943  24346324.8134                   24346324.9104
 -25316215.30146 -19703970.46644  22710953.9924                   22710952.7774
 -27027008.70347 -21034986.20647  20172416.5084                   20172414.7074
 -11753190.89848  -9143120.06446  21569167.2584                   21569168.0514
 -34152562.05946 -26585483.88443  24523012.2734                   24523012.1414
 11  8 14  2 21  0.0000000  0  8G29G12G02G26G10G05G25G04
   3718144.49246   2909641.28744  23035729.8284                   23035729.3954
 -27109786.71948 -21100128.22046  20983223.3984                   20983221.5824
 -38646194.94147 -30088360.19546  21245182.2504                   21245178.3244
  13951620.98846  10884661.56343  24317565.9224                   24317564.3794
 -25277022.52746 -19673430.66144  22718412.5234                   22718410.9884
 -27079200.33247 -21075654.97547  20162484.8444                   20162482.4964
 -11831141.59848  -9203860.85446  21554333.6334                   21554333.8874
 -34130062.91446 -26567952.14043  24527293.9144                   24527293.1764
 11  8 14  2 21 30.0000000  0  8G29G12G02G26G10G05G25G04
   3578923.83247   2801157.77044  23009237.3284                   23009236.0824
 -27121073.84848 -21108923.36846  20981075.5944                   20981073.5044
 -38666845.93447 -30104451.84846  21241252.1094                   21241248.4184
  13800450.04346  10766866.13443  24288798.7664                   24288797.8714
 -25237528.60946 -19642656.20344  22725927.4064                   22725926.6374
 -27130800.48448 -21115862.86847  20152665.4844                   20152663.7504
 -11908491.59048  -9264133.54846  21539614.3284                   21539615.1844
 -34107599.99646 -26550448.57243  24531567.0944                   24531567.7814
 11  8 14  2 22  0.0000000  0  8G29G12G02G26G10G05G25G04
   3439747.21546   2692708.55044  22982752.3914                   22982751.2384
 -27131824.76248 -21117300.70446  20979029.8134                   20979027.6884
 -38687369.32447 -30120444.08646  21237346.8914                   21237342.9454
  13649239.23446  10649039.68343  24260023.5704                   24260022.4614
 -25197737.44546 -19611650.12544  22733499.6094                   22733498.6134
 -27181810.62948 -21155611.00047  20142958.6644                   20142956.6724
 -11985241.09048  -9323938.33746  21525009.6024                   21525009.9654
 -34085174.41846 -26532974.01343  24535834.8674                   24535835.0204
 11  8 14  2 22 30.0000000  0  7G29G12G02G26G10G05G25
   3300615.87146   2584294.58844  22956276.3444                   22956275.8244
 -27142041.66048 -21125261.91946  20977085.5474                   20977083.5514
 -38707765.91047 -30136337.50146  21233465.4224                   21233461.5394
  13497991.19546  10531184.22743  24231242.2974                   24231241.4884
 -25157652.10546 -19580414.82644  22741127.5084                   22741126.2664
 -27232231.98048 -21194900.34147  20133363.9924                   20133361.6334
 -12061390.08648  -9383275.18146  21510518.8984                   21510519.5084
 11  8 14  2 23  0.0000000  0  7G29G12G02G26G10G05G25
   4736959.80546   3703523.68944  23229603.4844                   23229603.1094
 -25576302.46948 -19905205.40646  21275035.8914                   21275033.8204
 -37152611.88347 -28924529.14845  21529401.3674                   21529397.5824
  14922137.99646  11640909.04043  24502248.5784                   24502247.2934
 -23541852.87146 -18321350.52544  23048604.7504                   23048602.6214
 -25706639.94948 -20006127.29947  20423674.4144                   20423672.2504
 -10561511.65248  -8214538.72046  21795936.1724                   21795936.5594
 11  8 14  2 23 30.0000000  0  7G29G12G02G26G10G05G25
   4597939.84446   3595196.49744  23203149.0864                   23203147.7384
 -25585441.10548 -19912326.41746  21273296.9924                   21273294.7584
 -37172740.18747 -28940213.53146  21525571.1644                   21525566.9344
  14770841.47746  11523015.77243  24473457.4454                   24473456.4304
 -23501171.25046 -18289650.57244  23056345.2504                   23056344.6214
 -25755869.98847 -20044488.34247  20414306.1174                   20414304.4304
 -10636441.59048  -8272925.66346  21781677.2034                   21781677.6524
 11  8 14  2 24  0.0000000  0  7G29G12G02G26G10G05G25
   4458985.89546   3486920.73044  23176707.3754                   23176705.9384
 -25594035.39548 -19919023.26746  21271661.4384                   21271659.4454
 -37192726.72747 -28955787.43946  21521767.6414                   21521763.7624
  14619533.60946  11405113.73143  24444664.7734                   24444662.0944
 -23460187.85946 -18257715.49344  23064144.1254                   23064143.4024
 -25804497.55547 -20082379.93047  20405052.4694                   20405050.7814
 -10710753.23048  -8330830.81546  21767536.0704                   21767536.3284
 11  8 14  2 24 30.0000000  0  7G29G12G02G26G10G05G25
   4320101.73447   3378699.32944  23150278.4144                   23150277.2034
 -25602084.83248 -19925295.55046  21270129.7034                   21270127.5594
 -37212569.80547 -28971249.55746  21517991.9144                   21517988.0784
  14468219.40647  11287206.55743  24415870.6094                   24415868.7664
 -23418903.36346 -18225545.75544  23072000.3914                   23071999.5084
 -25852521.54347 -20119801.18146  20395913.9144                   20395912.0704
 -10784443.99648  -8388252.16146  21753513.4454                   21753513.7974
 11  8 14  2 25  0.0000000  0  7G29G12G02G26G10G05G25
   4181285.55146   3270530.86244  23123861.7424                   23123861.4454
 -25609595.10548 -19931147.70546  21268700.6564                   21268698.6884
 -37232273.27048 -28986602.87546  21514242.3834                   21514238.1994
  14316898.78947  11169294.42843  24387075.0234                   24387074.3954
 -23377324.28146 -18193146.52044  23079912.6884                   23079911.9924
 -25899945.98447 -20156755.27347  20386889.3364                   20386887.5904
 -10857516.89848  -8445192.05046  21739608.1174                   21739608.4384
 11  8 14  2 25 30.0000000  0  7G29G12G02G26G10G05G25
   4042540.75846   3162418.08844  23097459.6334                   23097459.0044
 -25616566.19548 -19936579.72146  21267374.0234                   21267371.7734
 -37251835.77048 -29001846.36645  21510519.6254                   21510515.6524
  14165577.03547  11051381.50643  24358279.1954                   24358278.6054
 -23335451.22346 -18160518.18544  23087881.0394                   23087880.3094
 -25946769.86748 -20193241.38847  20377978.6094                   20377977.2384
 -10929969.57848  -8501648.66046  21725821.0704                   21725821.1994
 11  8 14  2 26  0.0000000  0  7G29G12G02G26G10G05G25
   3903864.79747   3054358.91744  23071070.7274                   23071070.0784
 -25623003.98048 -19941596.16846  21266148.6254                   21266146.6334
 -37271261.75047 -29016983.47146  21506823.3524                   21506818.7624
  14014252.89547  10933466.61943  24329483.1484                   24329482.0594
 -23293291.05946 -18127666.11644  23095903.7344                   23095902.3984
 -25992998.58648 -20229263.75047  20369181.8754                   20369180.2034
 -11001805.81648  -8557624.94946  21712150.8834                   21712151.4844
 11  8 14  2 26 30.0000000  0  7G29G12G02G26G10G05G25
   3765254.11347   2946350.59944  23044693.9224                   23044693.4774
 -25628915.80548 -19946202.78046  21265023.9144                   21265021.8014
 -37290556.75847 -29032018.50645  21503150.8524                   21503147.2234
  13862924.59046  10815548.51443  24300686.2034                   24300685.7074
 -23250851.74246 -18094596.52843  23103979.7504                   23103978.0984
 -26038637.96948 -20264826.88346  20360497.1334                   20360495.0084
 -11073030.34448  -8613124.54946  21698596.9384                   21698597.6914
 11  8 14  2 27  0.0000000  0  7G29G12G02G26G10G05G25
   3626711.14147   2838395.08744  23018330.0634                   23018329.5204
 -25634302.86348 -19950400.48346  21263998.8134                   21263996.9534
 -37309720.34447 -29046951.13546  21499504.4144                   21499500.4574
  13711596.19546  10697630.35143  24271889.3984                   24271888.8984
 -23208135.56246 -18061311.18043  23112107.9924                   23112106.5944
 -26083687.84847 -20299930.65947  20351924.2734                   20351922.5204
 -11143642.13348  -8668146.69446  21685160.3204                   21685160.7384
 11  8 14  2 27 30.0000000  0  7G29G12G02G26G10G05G25
   3488236.27747   2730492.64445  22991979.6174                   22991978.7464
 -25639168.34048 -19954191.76246  21263072.5944                   21263070.6094
 -37328753.83247 -29061782.40845  21495882.3524                   21495878.6454
  13560269.65646  10579713.71743  24243092.8204                   24243092.8874
 -23165146.58646 -18027813.29243  23120288.8834                   23120287.8754
 -26128150.87547 -20334577.14946  20343463.1484                   20343461.3164
 -11213642.05948  -8722692.09146  21671839.7814                   21671840.2774
 11  8 14  2 28  0.0000000  0  7G29G12G02G26G10G05G25
   3349832.20747   2622645.41345  22965641.5634                   22965641.0434
 -25643513.25848 -19957577.41046  21262246.0314                   21262244.2664
 -37347657.08647 -29076512.17745  21492285.3284                   21492281.5664
  13408949.21146  10461801.73943  24214298.0634                   24214296.6644
 -23121886.52046 -17994104.17143  23128521.0314                   23128519.6214
 -26172027.23848 -20368766.49947  20335113.3984                   20335111.9144
 -11283028.97748  -8776759.80446  21658636.0084                   21658636.0824
 11  8 14  2 28 30.0000000  0  7G29G12G02G26G10G05G25
   3211495.31347   2514850.50845  22939317.0864                   22939317.0744
 -25647344.87948 -19960563.07746  21261517.0864                   21261514.8554
 -37366435.32448 -29091144.56145  21488712.0004                   21488707.9494
  13257632.96546  10343893.11243  24185502.8134                   24185502.4964
 -23078363.26647 -17960189.90343  23136803.1094                   23136801.4064
 -26215322.75048 -20402503.24947  20326874.9774                   20326873.0394
 -11351807.54748  -8830353.47946  21645547.7194                   21645547.8204
 11  8 14  2 29  0.0000000  0  7G29G12G02G26G10G05G25
   3073228.13747   2407109.95745  22913005.8204                   22913004.7464
 -25650664.65648 -19963149.90546  21260885.0474                   21260883.1764
 -37385088.06648 -29105679.13846  21485162.5234                   21485158.5554
  13106324.90246  10225990.82443  24156709.8134                   24156709.2894
 -23034579.16846 -17926072.48743  23145135.3284                   23145133.5164
 -26258037.79347 -20435787.68447  20318746.0864                   20318744.4614
 -11419976.94548  -8883472.49746  21632575.5394                   21632575.8954
 11  8 14  2 29 30.0000000  0  7G29G12G02G26G10G05G25
   2935032.93847   2299425.46045  22886707.7034                   22886707.0044
 -25653473.60948 -19965338.69546  21260350.4144                   21260348.4024
 -37403614.91048 -29120115.63445  21481637.0314                   21481632.4574
  12955029.20346  10108098.16543  24127918.8364                   24127918.8984
 -22990535.82846 -17891752.96543  23153517.0164                   23153515.7424
 -26300172.50448 -20468619.89947  20310728.3284                   20310726.5514
 -11487536.05548  -8936115.95946  21619719.2664                   21619720.2194
 11  8 14  2 30  0.0000000  0  7G29G12G02G26G10G05G25
   2796913.09047   2191799.70645  22860424.6334                   22860423.4224
 -25655772.64848 -19967130.14646  21259913.1884                   21259910.9964
 -37422014.72747 -29134453.13046  21478135.6484                   21478131.5634
  12803750.66446   9990218.91343  24099131.4844                   24099131.5434
 -22946234.97747 -17857232.85343  23161946.8834                   23161945.1804
 -26341726.80548 -20500999.84947  20302821.0314                   20302818.9104
 -11554483.29348  -8988282.62346  21606979.8204                   21606980.1094
 11  8 14  2 30 30.0000000  0  7G29G12G02G26G10G05G25
   2658869.35947   2084233.28645  22834155.1644                   22834154.3874
 -25657564.76248 -19968526.59246  21259572.2194                   21259570.0084
 -37440288.55547 -29148692.44145  21474657.8984                   21474653.4844
  12652491.61746   9872354.84643  24070347.6024                   24070347.8874
 -22901680.14547 -17822514.79743  23170424.8054                   23170423.7934
 -26382702.53148 -20532928.96147  20295023.3914                   20295021.6684
 -11620819.45348  -9039973.14546  21594356.1724                   21594356.9184
 11  8 14  2 31  0.0000000  0  7G29G12G02G26G10G05G25
   2520898.77047   1976723.86245  22807900.9924                   22807899.8794
 -25658855.98847 -19969532.73946  21259325.8834                   21259324.3634
 -37458441.24247 -29162837.38145  21471203.6484                   21471200.0944
  12501251.25046   9754505.27643  24041568.7194                   24041567.8594
 -22856878.06247 -17787604.10244  23178950.9064                   23178949.8404
 -26423104.96547 -20564411.36346  20287334.9454                   20287333.1764
 -11686548.52348  -9091190.60046  21581848.7814                   21581849.2424
 11  8 14  2 31 30.0000000  0  7G29G12G02G26G10G05G25
   2383006.00447   1869275.03845  22781660.2424                   22781658.8484
 -25659646.17647 -19970148.48046  21259175.9844                   21259174.1174
 -37476470.46148 -29176886.09545  21467772.7974                   21467769.0234
  12350035.32846   9636674.80343  24012792.4694                   24012791.9774
 -22811829.60947 -17752501.42644  23187523.6024                   23187521.5864
 -26462932.85948 -20595446.05946  20279755.8054                   20279754.6094
 -11751667.88348  -9141932.96246  21569456.7504                   21569457.1334
 11  8 14  2 32  0.0000000  0  7G29G12G02G26G10G05G25
   2245194.57047   1761889.60345  22755435.4774                   22755434.8954
 -25659935.82047 -19970374.16246  21259120.6644                   21259119.0594
 -37494374.44947 -29190837.23645  21464366.0314                   21464361.9804
  12198849.25447   9518867.54444  23984022.7974                   23984022.5634
 -22766535.43047 -17717207.26744  23196142.6254                   23196140.6484
 -26502185.49647 -20626032.51046  20272286.7894                   20272284.8054
 -11816175.62148  -9192198.71946  21557181.2344                   21557181.7424
 11  8 14  2 32 30.0000000  0  7G29G12G02G26G10G05G25
   2107463.08247   1654566.51345  22729225.9534                   22729225.3244
 -25659730.19547 -19970213.92646  21259160.0554                   21259158.0394
 -37512156.77048 -29204693.58145  21460982.0634                   21460977.8324
  12047692.90247   9401083.49243  23955259.0864                   23955257.0704
 -22721001.46147 -17681726.26544  23204807.6724                   23204805.1414
 -26540867.26248 -20656174.12246  20264925.5084                   20264923.9494
 -11880074.86348  -9241990.33546  21545021.8284                   21545022.5704
 11  8 14  2 33  0.0000000  0  7G29G12G02G26G10G05G25
   1969812.89147   1547306.75045  22703031.8134                   22703031.0984
 -25659031.67248 -19969669.61546  21259292.7894                   21259290.7704
 -37529818.18447 -29218455.71145  21457620.8754                   21457616.8014
  11896569.65246   9283325.14543  23926501.0944                   23926498.6134
 -22675230.71147 -17646060.77144  23213517.8914                   23213515.4264
 -26578979.39547 -20685871.86446  20257673.1094                   20257671.2894
 -11943365.83248  -9291307.95246  21532977.5944                   21532978.0634
 11  8 14  2 33 30.0000000  0  7G29G12G02G26G10G05G25
   1832247.18047   1440112.78045  22676853.6334                   22676853.0044
 -25657841.01248 -19968741.82346  21259519.4614                   21259517.2974
 -37547357.08648 -29232122.38545  21454283.6884                   21454279.3484
  11745484.06646   9165596.21843  23897750.1484                   23897747.1174
 -22629224.28547 -17610211.60744  23222272.3674                   23222270.4454
 -26616521.95748 -20715125.77546  20250528.7504                   20250526.7664
 -12006047.12548  -9340150.49346  21521050.0164                   21521051.0664
 11  8 14  2 34  0.0000000  0  7G29G12G02G26G10G05G25
   1694771.16847   1332988.71345  22650693.2584                   22650692.5514
 -25656157.05548 -19967429.65246  21259839.9844                   21259837.4734
 -37564770.33247 -29245691.14445  21450969.8834                   21450965.6994
  11594443.20746   9047902.10943  23869008.3364                   23869004.9654
 -22582981.55546 -17574178.33843  23231071.2584                   23231069.4264
 -26653492.66448 -20743934.09746  20243493.7274                   20243491.5784
 -12068115.17648  -9388515.19346  21509238.7504                   21509239.2464
 11  8 14  2 34 30.0000000  0  7G29G12G02G26G10G05G25
   1557379.96547   1225930.72845  22624548.2274                   22624548.3284
 -25653988.75447 -19965740.06846  21260252.4534                   21260250.5984
 -37582065.06247 -29259167.54245  21447678.7504                   21447674.8714
  11443443.42646   8930239.96643  23840273.4454                   23840271.7034
 -22536512.20346 -17537968.46543  23239914.9694                   23239912.3524
 -26689899.60947 -20772303.12746  20236565.4694                   20236563.5474
 -12129576.88348  -9436407.41846  21497543.0004                   21497543.7344
 11  8 14  2 35  0.0000000  0  7G29G12G02G26G10G05G25
   1420076.78947   1118941.35244  22598420.1644                   22598419.5084
 -25651337.24247 -19963673.95146  21260757.1884                   21260754.8094
 -37599240.03548 -29272550.62245  21444410.6254                   21444406.3444
  11292489.53146   8812613.64043  23811547.3524                   23811545.9844
 -22489817.54746 -17501582.97243  23248799.6564                   23248798.2304
 -26725742.54347 -20800232.66546  20229744.8364                   20229742.9534
 -12190430.98448  -9483826.16146  21485962.8984                   21485963.6334
 11  8 14  2 35 30.0000000  0  7G29G12G02G26G10G05G25
   1282861.78947   1012020.68045  22572309.3834                   22572307.8954
 -25648205.63347 -19961233.74146  21261352.7814                   21261351.0514
 -37616297.00848 -29285841.77246  21441164.6094                   21441160.9884
  11141583.97746   8695025.03143  23782831.2114                   23782829.7854
 -22442901.59446 -17465025.12443  23257727.7974                   23257725.7894
 -26761024.19948 -20827724.83846  20223030.7664                   20223028.8054
 -12250678.80548  -9530772.47846  21474497.8444                   21474498.8714
 11  8 14  2 36  0.0000000  0  7G29G12G02G26G10G05G25
   1145738.04747    905171.07245  22546215.5864                   22546214.6804
 -25644595.72747 -19958420.80146  21262040.0864                   21262037.7704
 -37633235.21147 -29299040.36746  21437941.7424                   21437937.8984
  10990730.79345   8577477.12843  23754124.3284                   23754123.8524
 -22395765.98446 -17428296.14143  23266696.7734                   23266696.0824
 -26795744.94148 -20854779.94246  20216423.9144                   20216422.0234
 -12310319.64848  -9577245.82546  21463148.8364                   21463148.9964
 11  8 14  2 36 30.0000000  0  7G29G12G02G26G10G05G25
   1008710.80547    798396.64445  22520140.1254                   22520138.9884
 -25640506.37147 -19955234.29546  21262817.9144                   21262815.9614
 -37650051.10548 -29312143.64545  21434741.7034                   21434737.2814
  10839936.85946   8459975.51843  23725428.5164                   23725428.7384
 -22348410.10546 -17391395.43043  23275708.8054                   23275707.3364
 -26829902.52748 -20881396.22546  20209923.8754                   20209922.1844
 -12369349.97348  -9623243.44546  21451915.7424                   21451916.2424
 11  8 14  2 37  0.0000000  0  7G29G12G02G26G10G05G25
    871776.02747    691694.31245  22494082.1334                   22494081.1294
 -25635945.22348 -19951680.16346  21263686.4534                   21263684.3954
 -37666750.92247 -29325156.49345  21431563.7114                   21431559.6174
  10689200.27346   8342518.54243  23696744.9454                   23696744.8134
 -22300842.27346 -17354329.61843  23284761.0784                   23284759.3594
 -26863504.11748 -20907579.26346  20203529.9144                   20203527.8014
 -12427775.78148  -9668770.01446  21440797.6644                   21440798.1994
 11  8 14  2 37 30.0000000  0  7G29G12G02G26G10G05G25
   2310363.73447   1812671.78445  22767836.1484                   22767834.8134
 -24055491.58247 -18720157.83346  21564436.3914                   21564434.4614
 -36107910.44947 -28110475.58445  21728201.1174                   21728196.8594
  12113952.80146   9452715.39843  23967866.5864                   23967866.1564
 -20677643.58646 -16089499.46043  23593645.1094                   23593643.6094
 -25321126.48447 -19705726.53946  20497034.7814                   20497032.2544
 -10910171.87948  -8486221.48546  21729587.8524                   21729588.5634
 11  8 14  2 38  0.0000000  0  7G29G12G02G26G10G05G25
   2173624.71147   1706121.93645  22741815.7814                   22741814.5704
 -24049989.16447 -18715870.24146  21565483.5314                   21565481.3054
 -36124373.09047 -28123303.61645  21725068.1644                   21725064.3714
  11963346.04746   9335359.56244  23939207.5864                   23939206.5554
 -20629655.25446 -16052105.90443  23602776.8524                   23602775.5204
 -25353615.14148 -19731042.36046  20490851.9384                   20490849.9384
 -10967384.14148  -8530802.44446  21718700.8834                   21718701.5044
 11  8 14  2 38 30.0000000  0  7G29G12G02G26G10G05G25
   2036984.26647   1599648.89045  22715813.6094                   22715812.9614
 -24044022.03547 -18711220.51546  21566618.8914                   21566616.7814
 -36140719.77048 -28136041.26345  21721957.9224                   21721953.3984
  11812807.09446   9218056.56243  23910560.3134                   23910559.4064
 -20581462.73846 -16014553.29443  23611946.8204                   23611946.2584
 -25385551.50048 -19755927.81646  20484774.6644                   20484772.6884
 -11023992.23048  -8574912.60246  21707928.1334                   21707929.2034
 11  8 14  2 39  0.0000000  0  7G29G12G02G26G10G05G25
   1900446.10947   1493255.57445  22689831.4454                   22689830.1884
 -24037590.48847 -18706208.91146  21567842.8054                   21567840.8284
 -36156948.66848 -28148687.15545  21718869.8444                   21718865.2074
  11662341.53546   9100810.78744  23881927.9774                   23881926.8554
 -20533066.63346 -15976842.06343  23621157.6334                   23621155.8984
 -25416934.90648 -19780382.39846  20478802.7814                   20478800.7194
 -11079994.46548  -8618550.67046  21697271.7664                   21697272.4614
 11  8 14  2 39 30.0000000  0  7G29G12G02G26G10G05G25
   1764011.64147   1386943.03445  22663868.3754                   22663867.4694
 -24030697.28947 -18700837.57046  21569154.6414                   21569152.6764
 -36173060.29748 -28161241.66445  21715803.6334                   21715799.4104
  11511952.09046   8983624.28644  23853308.8914                   23853308.8404
 -20484470.68747 -15938975.06143  23630404.7664                   23630403.6644
 -25447767.55148 -19804407.81646  20472935.3984                   20472933.0944
 -11135391.68048  -8661717.30646  21686729.8984                   21686730.2934
 11  8 14  2 40  0.0000000  0  7G29G12G02G26G10G05G25
   1627680.61747   1280711.10745  22637925.4694                   22637924.1254
 -24023346.78547 -18695109.91446  21570553.2114                   21570551.4264
 -36189056.89547 -28173706.52745  21712759.5004                   21712755.8244
  11361640.51646   8866498.44244  23824706.0704                   23824705.3594
 -20435679.35547 -15900955.87744  23639689.5784                   23639688.2854
 -25478053.08648 -19828006.91846  20467172.0164                   20467170.3054
 -11190186.13348  -8704414.26546  21676302.8674                   21676303.2934
 11  8 14  2 40 30.0000000  0  7G29G12G02G26G10G05G25
   1491455.73447   1174561.90445  22612002.9694                   22612002.0234
 -24015541.43047 -18689027.81546  21572038.5784                   21572036.7664
 -36204937.80947 -28186081.24945  21709737.1724                   21709733.1454
  11211410.98046   8749436.57243  23796117.8054                   23796117.0434
 -20386694.66847 -15862785.96844  23649011.4614                   23649009.7194
 -25507792.51247 -19851180.47446  20461513.1954                   20461510.6524
 -11244377.52348  -8746641.29846  21665990.3594                   21665990.9844
 11  8 14  2 41  0.0000000  0  7G29G12G02G26G10G05G25
   1355338.03547   1068496.23645  22586100.5864                   22586099.6684
 -24007283.96147 -18682593.42545  21573610.0944                   21573607.9694
 -36220704.32847 -28198366.84545  21706737.0704                   21706732.9614
  11061265.87546   8632440.46043  23767546.5234                   23767544.9964
 -20337520.23447 -15824468.28144  23658369.5084                   23658367.2154
 -25536987.44147 -19873929.75446  20455957.0944                   20455954.9614
 -11297967.16447  -8788399.43046  21655792.5944                   21655793.3364
 11  8 14  2 41 30.0000000  0  8G29G12G02G26G10G05G25G15
   1219328.75447    962515.02645  22560218.8594                   22560217.6884
 -23998577.56247 -18675809.20946  21575267.0944                   21575264.9654
 -36236357.00848 -28210563.72345  21703758.4534                   21703754.5784
  10911208.38346   8515512.64543  23738990.8834                   23738990.3014
 -20288159.14147 -15786005.10044  23667762.3674                   23667760.3594
 -25565640.52348 -19896256.81146  20450504.7664                   20450502.4884
 -11350956.10948  -8829689.49646  21645709.1094                   21645709.6644
  20263753.94156  15803166.69453  24660998.0634                   24660997.9264
 11  8 14  2 42  0.0000000  0  8G29G12G02G26G10G05G25G15
   1083421.10247    856613.05145  22534356.4844                   22534355.3524
 -23989433.19147 -18668683.72746  21577006.9844                   21577004.6374
 -36251904.76647 -28222678.83846  21700800.2814                   21700795.6724
  10761233.05546   8398648.81543  23710451.6414                   23710450.9454
 -20238622.76247 -15747405.32743  23677188.4384                   23677187.0274
 -25593761.95348 -19918169.59646  20445153.4774                   20445151.1094
 -11403353.38748  -8870518.53846  21635738.3834                   21635739.1374
  20115086.75446  15687322.30743  24632707.1564                   24632707.2464
 11  8 14  2 42 30.0000000  0  8G29G12G02G26G10G05G25G15
    947607.41847    750784.29745  22508511.8754                   22508510.5044
 -23979863.02347 -18661226.45246  21578828.0554                   21578825.9064
 -36267357.10947 -28234719.60545  21697859.4454                   21697855.3484
  10611333.99646   8281844.44643  23681926.4064                   23681925.4304
 -20188923.20746 -15708678.43243  23686646.0784                   23686644.4884
 -25621362.87548 -19939676.78746  20439901.2504                   20439899.1134
 -11455169.01248  -8910894.32846  21625877.7034                   21625878.6024
  19966300.89146  15571385.46844  24604394.7034                   24604394.7464
 11  8 14  2 43  0.0000000  0  8G29G12G02G26G10G05G25G15
    811897.95347    645036.75145  22482687.0314                   22482685.4384
 -23969861.78947 -18653433.26846  21580731.3754                   21580729.0204
 -36282706.14847 -28246679.88145  21694938.5864                   21694934.7034
  10461522.98846   8165108.67343  23653418.9774                   23653417.1994
 -20139054.83646 -15669819.92243  23696135.8444                   23696133.9184
 -25648436.50048 -19960773.09846  20434749.0784                   20434746.7154
 -11506395.35547  -8950810.94946  21616129.9844                   21616130.5434
  19817406.89846  15455364.30343  24576061.1724                   24576060.5124
 11  8 14  2 43 30.0000000  0  8G29G12G02G26G10G05G25G15
    676292.91047    539370.55645  22456882.2814                   22456881.1374
 -23959433.41847 -18645307.28245  21582715.4774                   21582713.9184
 -36297953.62547 -28258561.00245  21692037.0474                   21692032.7234
  10311801.98446   8048443.02443  23624927.4534                   23624926.5944
 -20089022.18446 -15630833.47143  23705655.8594                   23705654.3324
 -25674986.28147 -19981461.21746  20429696.9924                   20429694.7304
 -11557034.48047  -8990269.99946  21606493.7114                   21606494.0824
  19668405.86747  15339259.83344  24547706.5004                   24547706.2504
 11  8 14  2 44  0.0000000  0  8G29G12G02G26G10G05G25G15
    540794.86747    433787.75945  22431097.6334                   22431096.8634
 -23948579.28547 -18636849.51246  21584781.2114                   21584779.2034
 -36313098.91047 -28270362.52145  21689155.1254                   21689151.1294
  10162174.90646   7931850.56743  23596454.8444                   23596454.0204
 -20038827.35946 -15591720.61043  23715207.9224                   23715206.0164
 -25701013.15647 -20001741.88446  20424744.3444                   20424742.0904
 -11607086.45348  -9029271.53346  21596968.9694                   21596969.5474
  19519300.98047  15223074.30244  24519333.5944                   24519332.6604
 11  8 14  2 44 30.0000000  0  8G29G12G02G26G10G05G25G15
    405405.20347    328289.39645  22405334.0944                   22405332.9574
 -23937303.11347 -18628062.88546  21586926.9304                   21586925.2854
 -36328142.85548 -28282085.06945  21686292.0944                   21686288.0904
  10012644.85547   7815333.72143  23568000.3984                   23567999.5554
 -19988473.44946 -15552483.80343  23724789.8594                   23724788.3014
 -25726519.23847 -20021616.73546  20419890.6254                   20419888.5234
 -11656552.46148  -9067816.47246  21587556.1564                   21587556.5204
  19370094.32046  15106809.54144  24490939.9064                   24490940.6644
 11  8 14  2 45  0.0000000  0  8G29G12G02G26G10G05G25G15
    270126.07447    222877.15645  22379590.7814                   22379589.4104
 -23925607.28947 -18618949.24345  21589152.1724                   21589150.4024
 -36343085.34448 -28293728.56445  21683448.9534                   21683444.4964
   9863215.46947   7698895.35043  23539564.5944                   23539563.8364
 -19937962.68446 -15513124.76043  23734402.1024                   23734400.3134
 -25751506.25848 -20041087.11946  20415135.8674                   20415133.5354
 -11705432.92648  -9105905.14046  21578254.7584                   21578254.9884
  19220788.28546  14990467.35543  24462527.2664                   24462527.5234
 11  8 14  2 45 30.0000000  0  8G29G12G02G26G10G05G25G15
    134961.76647    117554.39845  22353870.2734                   22353868.4304
 -23913491.80547 -18609508.61145  21591458.1884                   21591455.9344
 -36357923.94948 -28305291.08645  21680624.9534                   21680620.8714
   9713892.98447   7582540.24544  23511149.3524                   23511148.7074
 -19887295.42246 -15473643.76543  23744043.8984                   23744041.7074
 -25775973.37547 -20060152.38746  20410479.6254                   20410477.3754
 -11753725.94548  -9143536.06046  21569064.6254                   21569065.1954
  19071388.33646  14874052.02343  24434097.3204                   24434097.8634
 11  8 14  2 46  0.0000000  0  8G29G12G02G26G10G05G25G15
       -86.57447     12321.99345  22328171.1254                   22328169.9384
 -23900960.02047 -18599743.57846  21593842.8914                   21593840.7114
 -36372659.60247 -28316773.39945  21677821.0234                   21677816.6334
   9564679.81347   7466270.29744  23482754.9614                   23482753.8054
 -19836475.58246 -15434043.85643  23753714.1954                   23753712.9064
 -25799922.95747 -20078814.37446  20405922.2194                   20405919.7504
 -11801433.06248  -9180710.42846  21559986.2114                   21559986.7774
  18921896.24646  14757564.80643  24405650.7034                   24405650.2034
 11  8 14  2 46 30.0000000  0  8G29G12G02G26G10G05G25G15
   -135013.84847    -92816.07945  22302495.6094                   22302494.0314
 -23888011.60947 -18589653.90445  21596307.0704                   21596304.6484
 -36387289.24647 -28328173.09345  21675036.7734                   21675032.9494
   9415582.98447   7350091.04544  23454383.0864                   23454381.8634
 -19785502.21146 -15394324.31243  23763414.6174                   23763412.8834
 -25823353.90647 -20097072.25146  20401463.4064                   20401461.1604
 -11848551.78948  -9217426.32546  21551019.8754                   21551020.5354
  18772317.42246  14641010.04743  24377185.8594                   24377184.9804
 11  8 14  2 47  0.0000000  0  8G29G12G02G26G10G05G25G15
   -269821.47347   -197860.90945  22276842.0634                   22276840.4384
 -23874652.61347 -18579244.29545  21598848.9844                   21598846.6374
 -36401816.53547 -28339493.04745  21672272.5634                   21672268.0864
   9266602.44147   7234002.37844  23426032.9064                   23426032.4184
 -19734381.32446 -15354489.95043  23773142.4924                   23773140.5904
 -25846271.12548 -20114929.80146  20397102.7274                   20397100.3204
 -11895086.41048  -9253687.07346  21542164.2664                   21542165.2584
  18622651.15246  14524387.16343  24348705.5234                   24348704.1024
 11  8 14  2 47 30.0000000  0  8G29G12G02G26G10G05G25G15
   -404503.33647   -302807.77645  22251212.5944                   22251211.7664
 -23860881.35947 -18568513.43945  21601469.7194                   21601467.6564
 -36416237.37147 -28350730.04145  21669528.3594                   21669523.5824
   9117745.80147   7118010.27544  23397705.7034                   23397705.1134
 -19683111.43046 -15314539.37443  23782898.7814                   23782896.7194
 -25868672.38348 -20132385.32146  20392839.5864                   20392837.2464
 -11941033.57047  -9289490.04146  21533421.5234                   21533422.0234
  18472903.99246  14407701.17242  24320208.3284                   24320208.0744
 11  8 14  2 48  0.0000000  0  8G29G12G02G26G10G05G25G15
   -539060.32047   -407657.30845  22225607.7504                   22225606.5704
 -23846703.56647 -18557465.78946  21604167.4614                   21604165.6174
 -36430554.71547 -28361886.40645  21666804.2504                   21666799.0984
   8969013.72747   7002115.21644  23369403.6414                   23369402.3444
 -19631698.08646 -15274477.00143  23792681.9454                   23792680.5314
 -25890562.34448 -20149442.41246  20388674.4844                   20388671.3674
 -11986396.89847  -9324838.06846  21524788.6884                   21524789.4104
  18323075.96546  14290952.19343  24291697.2344                   24291697.5124
 11  8 14  2 48 30.0000000  0  8G29G12G02G26G10G05G25G15
   -673491.98447   -512409.19345  22200026.2504                   22200024.3484
 -23832123.19547 -18546104.47645  21606941.6954                   21606939.9614
 -36444770.03547 -28372963.29545  21664098.8834                   21664093.9104
   8820408.48047   6886319.01244  23341124.3054                   23341123.6884
 -19580145.32046 -15234306.02443  23802492.0554                   23802490.1294
 -25911944.16448 -20166103.55646  20384605.2974                   20384602.8014
 -12031178.59847  -9359732.90246  21516267.0084                   21516267.5354
  18173168.32446  14174141.27443  24263171.6884                   24263171.1414
 11  8 14  2 49  0.0000000  0  8G29G12G02G26G10G05G25G15
   -807794.46147   -617060.38645  22174469.0004                   22174467.6844
 -23817141.36347 -18534430.31045  21609792.9304                   21609790.8674
 -36458881.78147 -28383959.45445  21661413.4304                   21661409.1334
   8671935.48047   6770625.81144  23312871.3984                   23312869.8554
 -19528454.10246 -15194027.16143  23812328.9924                   23812327.7034
 -25932818.07448 -20182368.92246  20380633.3674                   20380630.9264
 -12075377.71948  -9394173.77446  21507856.5784                   21507857.1484
  18023185.48846  14057271.66743  24234630.7894                   24234629.5594
 11  8 14  2 49 30.0000000  0  8G29G12G02G26G10G05G25G15
   -941960.87947   -721605.59945  22148938.3364                   22148936.8954
 -23801756.34847 -18522441.98845  21612720.4844                   21612718.1644
 -36472885.26247 -28394871.26345  21658748.5394                   21658744.0434
   8523602.83247   6655041.98844  23284644.7664                   23284642.8634
 -19476622.13746 -15153638.64243  23822192.6414                   23822190.0004
 -25953180.94148 -20198236.07446  20376758.0704                   20376755.8364
 -12118990.68047  -9428157.89346  21499557.2504                   21499557.9184
  17873134.32046  13940348.83543  24206075.9844                   24206076.0824
 11  8 14  2 50  0.0000000  0  8G29G12G02G26G10G05G25G15
  -1075990.27047   -826044.01745  22123432.9064                   22123432.0704
 -23785971.26247 -18510141.90345  21615724.2194                   21615722.3914
 -36486781.41047 -28405699.43145  21656103.8524                   21656099.8524
   8375413.16047   6539569.61744  23256444.9224                   23256442.7624
 -19424653.15246 -15113143.32443  23832081.0084                   23832079.4924
 -25973035.90248 -20213707.46846  20372979.8914                   20372977.5634
 -12162019.16047  -9461686.56746  21491369.0394                   21491369.6024
  17723016.76247  13823374.19643  24177509.6414                   24177509.8594
 11  8 14  2 50 30.0000000  0  8G29G12G02G26G10G05G25G15
  -1209880.32447   -930373.84345  22097954.6254                   22097953.0634
 -23769788.44147 -18497531.90645  21618803.9614                   21618801.9024
 -36500569.55947 -28416443.41145  21653480.3674                   21653476.3404
   8227370.73447   6424211.95944  23228272.6254                   23228271.1484
 -19372548.97946 -15072542.68843  23841996.6174                   23841994.9734
 -25992384.11348 -20228783.96846  20369297.8204                   20369295.6454
 -12204463.38748  -9494759.96646  21483291.8914                   21483292.6724
  17572836.34846  13706350.65343  24148931.3594                   24148930.7074
 11  8 14  2 51  0.0000000  0  8G29G12G02G26G10G05G25G15
  -1343631.07047  -1034595.14545  22072502.9304                   22072500.9844
 -23753212.99647 -18484615.98345  21621958.1884                   21621955.8204
 -36514251.87547 -28427104.96445  21650876.1804                   21650872.4774
   8079477.05147   6308970.17344  23200129.9224                   23200128.0004
 -19320314.57846 -15031840.51343  23851936.3914                   23851935.6294
 -26011229.58248 -20243468.73846  20365711.9534                   20365709.8444
 -12246326.67648  -9527380.70846  21475325.8594                   21475326.3444
  17422593.39147  13589278.32443  24120341.1254                   24120340.3484
 11  8 14  2 51 30.0000000  0  8G29G12G02G26G10G05G25G15
     98182.70747     88896.16545  22346870.4844                   22346868.6214
 -22160829.62547 -17243797.76945  21924978.3594                   21924976.4734
 -34952409.82847 -27210085.17245  21948085.4454                   21948081.0664
   9507158.90647   7421449.61944  23471807.9694                   23471807.2034
 -17692535.51646 -13763441.26543  24161692.2344                   24161691.9024
 -24454155.01648 -19030163.87246  20662013.3284                   20662011.0044
 -10712190.10248  -8331949.59846  21767262.1094                   21767262.8204
  18847713.80547  14699761.90144  24391532.9064                   24391532.1214
 11  8 14  2 52  0.0000000  0  8G29G12G02G26G10G05G25G15
    -35284.21947    -15103.97645  22321472.8984                   22321471.6764
 -22143477.87947 -17230276.93145  21928280.3834                   21928278.0474
 -34965882.38347 -27220583.26945  21945521.7894                   21945517.5394
   9359572.21547   7306447.11044  23443724.3594                   23443722.3554
 -17640049.14846 -13722542.83043  24171680.5704                   24171679.2854
 -24472002.01247 -19044070.59946  20658616.9534                   20658614.9654
 -10752895.50448  -8363668.09346  21759516.2894                   21759516.6644
  18697352.10246  14582597.07744  24362918.9774                   24362919.2584
 11  8 14  2 52 30.0000000  0  8G29G12G02G26G10G05G25G15
   -168605.09047   -118990.28845  22296102.7194                   22296101.0164
 -22125741.32047 -17216456.21345  21931655.3284                   21931653.4924
 -34979248.93447 -27230998.76045  21942977.9304                   21942974.2894
   9212145.34847   7191569.08344  23415669.4534                   23415667.6724
 -17587439.58246 -13681548.32643  24181690.7974                   24181689.9614
 -24489351.32048 -19057589.52546  20655315.5164                   20655313.0354
 -10793022.42248  -8394935.79646  21751880.6564                   21751880.7384
  18546936.52046  14465390.21844  24334296.2504                   24334295.6884
 11  8 14  2 53  0.0000000  0  8G29G12G02G26G10G05G25G15
   -301775.76647   -222759.59845  22270760.9304                   22270759.0824
 -22107620.44547 -17202336.06545  21935103.8674                   21935101.9264
 -34992507.55547 -27241330.16045  21940455.2504                   21940450.8674
   9064884.19947   7076820.16744  23387646.8444                   23387644.4264
 -17534706.85546 -13640457.95443  24191725.5704                   24191724.8554
 -24506203.05948 -19070720.74846  20652109.2894                   20652106.4924
 -10832569.74648  -8425751.88046  21744354.8204                   21744355.5164
  18396471.86746  14348145.10844  24305663.9774                   24305662.7504
 11  8 14  2 53 30.0000000  0  8G29G12G02G26G10G05G25G15
   -434795.15247   -326411.01145  22245448.2894                   22245446.1884
 -22089119.02347 -17187919.37645  21938624.7194                   21938623.2034
 -35005659.18747 -27251578.16945  21937952.0634                   21937948.2624
   8917791.39147   6962202.46344  23359655.6724                   23359653.9964
 -17481855.11346 -13599274.89143  24201784.4384                   24201782.2464
 -24522560.24248 -19083466.59346  20648996.2974                   20648993.7114
 -10871539.74248  -8456118.08646  21736939.0164                   21736939.7854
  18245959.41846  14230862.86144  24277022.0864                   24277022.1094
 11  8 14  2 54  0.0000000  0  8G29G12G02G26G10G05G25G15
   -567660.73047   -429942.57945  22220164.4304                   22220162.8914
 -22070238.88747 -17173207.58845  21942217.2194                   21942215.5124
 -35018702.86347 -27261742.07545  21935470.5394                   21935466.1454
   8770871.25847   6847719.31644  23331697.8674                   23331696.1914
 -17428885.75846 -13558000.02143  24211863.6414                   24211861.8794
 -24538423.87548 -19095827.84946  20645977.3834                   20645975.3094
 -10909932.59848  -8486034.59646  21729633.4224                   21729633.4924
  18095402.78546  14113546.12443  24248372.4304                   24248371.7154
 11  8 14  2 54 30.0000000  0  8G29G12G02G26G10G05G25G15
   -700371.18047   -533353.25045  22194910.5394                   22194908.8484
 -22050984.18047 -17158203.90045  21945881.5164                   21945879.1954
 -35031639.83647 -27271822.83145  21933008.6954                   21933004.5824
   8624126.15647   6733372.52944  23303772.4694                   23303771.8594
 -17375802.73846 -13516636.69443  24221965.3444                   24221962.9104
 -24553797.33648 -19107807.16246  20643051.9844                   20643049.6524
 -10947750.67648  -8515503.20046  21722436.5314                   21722436.9414
  17944803.57046  13996196.19443  24219714.1254                   24219713.1024
 11  8 14  2 55  0.0000000  0  8G29G12G02G26G10G05G25G15
   -832922.08647   -636639.61245  22169686.9384                   22169685.5044
 -22031355.27347 -17142908.64745  21949616.6094                   21949614.4774
 -35044467.50847 -27281818.43845  21930567.6644                   21930563.1684
   8477562.53147   6619167.18844  23275882.4844                   23275881.0664
 -17322605.72746 -13475184.35143  24232088.4534                   24232085.8984
 -24568679.87147 -19119403.93046  20640219.8594                   20640217.9184
 -10984992.50848  -8544522.80346  21715349.8674                   21715350.2664
  17794167.25046  13878817.43543  24191048.0394                   24191047.8324
 11  8 14  2 55 30.0000000  0  8G29G12G02G26G10G05G25G15
   -965311.84447   -739800.41345  22144494.0784                   22144492.4964
 -22011355.79747 -17127324.63645  21953422.7734                   21953420.0664
 -35057186.48447 -27291729.32145  21928146.7814                   21928142.7274
   8331183.26647   6505105.48944  23248027.5004                   23248025.8484
 -17269297.87546 -13433645.77742  24242232.4774                   24242228.2774
 -24583073.93748 -19130620.07746  20637480.8834                   20637478.5204
 -11021659.78548  -8573094.68546  21708371.7814                   21708372.2154
  17643495.93846  13761411.34843  24162376.1174                   24162375.4614
 11  8 14  2 56  0.0000000  0  8G29G12G02G26G10G05G25G15
  -1097541.52347   -842836.47645  22119331.0004                   22119329.3404
 -21990991.53147 -17111456.37345  21957297.7504                   21957295.7424
 -35069800.11747 -27301558.12245  21925746.9064                   21925742.5274
   8184988.93047   6391187.88444  23220207.9384                   23220206.3014
 -17215884.99946 -13392025.26943  24252396.5084                   24252392.9534
 -24596985.04348 -19141459.89346  20634833.5234                   20634831.2154
 -11057756.97748  -8601222.35346  21701502.8364                   21701503.1644
  17492789.09446  13643977.56843  24133698.2034                   24133696.4344
 11  8 14  2 56 30.0000000  0  8G29G12G02G26G10G05G25G15
  -1229602.54747   -945741.13445  22094200.9144                   22094199.7034
 -21970258.71547 -17095300.92445  21961242.7274                   21961241.0274
 -35082301.69547 -27311299.59945  21923367.3754                   21923363.7274
   8038989.67647   6277422.28944  23192425.1094                   23192424.1764
 -17162362.91446 -13350319.70543  24262580.9304                   24262577.9534
 -24610408.73447 -19151919.90346  20632279.6484                   20632276.6334
 -11093278.81248  -8628901.68146  21694743.4774                   21694743.5354
  17342055.95746  13526523.33343  24105014.1884                   24105013.2734
 11  8 14  2 57  0.0000000  0  8G29G12G02G26G10G05G25G15
  -1361500.49647  -1048518.71145  22069101.7274                   22069099.7704
 -21949168.00447 -17078866.60545  21965256.6094                   21965254.0164
 -35094698.88747 -27320959.75745  21921008.6724                   21921004.7154
   7893181.25847   6163805.40244  23164678.5084                   23164677.3444
 -17108741.83646 -13308537.02042  24272785.1094                   24272781.6954
 -24623354.55948 -19162007.54346  20629815.8134                   20629813.4614
 -11128234.28148  -8656139.68346  21688091.4694                   21688091.9454
  17191291.68046  13409044.80943  24076324.8054                   24076322.9454
 11  8 14  2 57 30.0000000  0  8G29G12G02G26G10G05G25G15
  -1493228.27747  -1151163.70945  22044034.3914                   22044032.7464
 -21927716.67247 -17062151.25345  21969338.4614                   21969336.5474
 -35106986.43447 -27330534.45845  21918670.3594                   21918665.9384
   7747572.66047   6050344.22944  23136970.2894                   23136968.0124
 -17055019.23846 -13266675.31543  24283007.3284                   24283005.5594
 -24635819.37148 -19171720.38046  20627443.5784                   20627441.7034
 -11162619.47748  -8682933.34346  21681548.5084                   21681548.6764
  17040504.00847  13291548.02043  24047630.7814                   24047628.2154
 11  8 14  2 58  0.0000000  0  8G29G12G02G26G10G05G25G15
  -1624785.45747  -1253675.76145  22019000.3594                   22018998.4304
 -21905909.96947 -17045159.01445  21973488.1564                   21973486.1454
 -35119166.22747 -27340025.22145  21916352.5864                   21916348.1884
   7602165.76647   5937040.20544  23109299.8834                   23109298.0824
 -17001199.21545 -13224737.63342  24293248.4534                   24293247.4924
 -24647807.32448 -19181061.62846  20625162.4924                   20625160.1294
 -11196437.53148  -8709285.06946  21675112.8984                   21675113.2074
  16889694.04747  13174033.87343  24018932.4304                   24018931.3444
 11  8 14  2 58 30.0000000  0  8G29G12G02G26G10G05G25G15
  -1756167.44147  -1356051.29745  21993999.3524                   21993997.3094
 -21883748.68047 -17027890.46445  21977704.9534                   21977703.0944
 -35131236.09447 -27349430.32845  21914055.6564                   21914051.4024
   7456966.33647   5823897.85344  23081669.4614                   23081667.7424
 -16947281.77345 -13182724.16442  24303510.7114                   24303508.3874
 -24659317.75448 -19190030.79146  20622971.9304                   20622969.8134
 -11229687.59048  -8735194.19046  21668785.1644                   21668786.0664
  16738866.24646  13056505.80843  23990230.6804                   23990230.0474
 11  8 14  2 59  0.0000000  0  8G29G12G02G26G10G05G25G15
  -1887377.66447  -1458292.99445  21969030.8594                   21969028.8874
 -21861240.69147 -17010351.76445  21981988.1884                   21981986.2384
 -35143201.15247 -27358753.75445  21911778.8594                   21911774.6484
   7311972.55547   5710915.70144  23054077.9614                   23054076.6024
 -16893275.03946 -13140641.06743  24313787.4144                   24313785.4064
 -24670358.71548 -19198634.12946  20620871.0004                   20620868.6414
 -11262376.25048  -8760665.84146  21662564.9774                   21662565.0824
  16588019.06346  12938962.66143  23961525.8284                   23961524.0124
 11  8 14  2 59 30.0000000  0  8G29G12G02G26G10G05G25G15
  -2018409.85547  -1560395.97745  21944095.9774                   21944093.9264
 -21838384.87947 -16992542.04545  21986337.3134                   21986335.5434
 -35155057.50447 -27367992.46545  21909522.9694                   21909518.6174
   7167192.37946   5598100.04744  23026526.7814                   23026526.0394
 -16839177.40246 -13098487.12843  24324081.6644                   24324080.9224
 -24680928.53148 -19206870.33446  20618859.5394                   20618857.5234
 -11294500.94548  -8785698.06246  21656452.1954                   21656451.9734
  16437158.66046  12821409.21543  23932817.7504                   23932816.3874
 11  8 14  3  0  0.0000000  0  8G29G12G02G26G10G05G25G15
  -2149261.28147  -1662358.10245  21919195.6564                   21919194.0944
 -21815183.57847 -16974463.07745  21990752.6414                   21990750.5084
 -35166804.20347 -27377145.74145  21907287.3284                   21907283.7114
   7022629.89846   5485454.00644  22999017.1024                   22999016.2384
 -16784990.32846 -13056263.47243  24334393.3284                   24334392.0084
 -24691028.03547 -19214740.06346  20616937.7424                   20616935.5664
 -11326062.30548  -8810291.32946  21650446.0474                   21650446.2704
  16286288.77046  12703848.40243  23904107.1884                   23904106.9774
 11  8 14  3  0 30.0000000  0  8G29G12G02G26G10G05G25G15
  -2279930.32447  -1764178.09445  21894330.1024                   21894328.5354
 -21791640.07847 -16956117.47945  21995232.8284                   21995230.4144
 -35178441.85547 -27386214.04245  21905072.8444                   21905069.0904
   6878288.59047   5372980.34444  22971550.4534                   22971548.7664
 -16730717.15246 -13013972.72743  24344721.3914                   24344719.1524
 -24700659.77347 -19222245.30446  20615104.5474                   20615102.4064
 -11357062.37148  -8834447.21546  21644547.2664                   21644547.4734
  16135411.59446  12586281.90943  23875396.5474                   23875395.0234
 11  8 14  3  1  0.0000000  0  8G29G12G02G26G10G05G25G15
  -2410413.46547  -1865853.22545  21869500.3134                   21869498.5084
 -21767755.91847 -16937506.43245  21999777.5234                   21999776.0084
 -35189969.03947 -27395196.25145  21902879.3444                   21902875.1094
   6734173.24247   5260682.72844  22944125.8594                   22944125.0044
 -16676358.50046 -12971615.33243  24355065.4144                   24355064.0314
 -24709824.95348 -19229386.99746  20613360.7424                   20613358.3094
 -11387501.16048  -8858165.74446  21638754.8984                   21638755.1254
  15984531.20446  12468712.90243  23846685.0944                   23846682.5904
 11  8 14  3  1 30.0000000  0  8G29G12G02G26G10G05G25G15
  -2540711.15247  -1967383.88345  21844705.1414                   21844703.2974
 -21743537.18047 -16918634.67845  22004386.6334                   22004384.5634
 -35201388.50447 -27404094.53645  21900706.4924                   21900702.0314
   6590284.64547   5148561.78844  22916744.7814                   22916743.5234
 -16621920.20746 -12929195.88243  24365424.4774                   24365422.0204
 -24718528.17648 -19236168.71246  20611704.6724                   20611702.6294
 -11417383.15248  -8881450.40046  21633068.2894                   21633068.7234
  15833647.96546  12351141.62543  23817972.2274                   23817971.0634
 11  8 14  3  2  0.0000000  0  9G29G12G02G26G10G05G25G15G21
  -2670823.39147  -2068769.99645  21819945.6334                   21819944.1604
 -21718988.44947 -16899505.78145  22009057.8834                   22009056.1644
 -35212702.16047 -27412910.40045  21898553.3284                   21898549.0124
   6446624.68847   5036619.02644  22889407.4694                   22889406.3484
 -16567406.09846 -12886717.21043  24375798.2194                   24375795.8594
 -24726773.86348 -19242593.90646  20610135.7894                   20610133.3674
 -11446711.64148  -8904303.75546  21627487.2194                   21627487.9614
  15682762.22346  12233568.44944  23789259.6024                   23789259.4264
  21893279.07456  17069400.15753  25093079.8594                   25093078.5864
 11  8 14  3  2 30.0000000  0  9G29G12G02G26G10G05G25G15G21
  -2800757.21147  -2170017.09145  21795219.9694                   21795217.9414
 -21694121.94947 -16880129.28245  22013790.0474                   22013788.1294
 -35223919.01247 -27421650.81345  21896419.0234                   21896415.1564
   6303187.75047   4924850.03044  22862111.9064                   22862110.2704
 -16512827.89846 -12844188.82042  24386183.7194                   24386182.0204
 -24734573.48848 -19248671.51446  20608651.4694                   20608649.3524
 -11475497.36348  -8926734.17346  21622009.2344                   21622009.6994
  15531867.99246  12115988.65843  23760545.2194                   23760545.5864
  21782047.48446  16982726.34143  25071913.4064                   25071912.5784
 11  8 14  3  3  0.0000000  0  9G29G12G02G26G10G05G25G15G21
  -2930513.53147  -2271125.89145  21770528.1644                   21770526.6054
 -21668944.23047 -16860510.27545  22018580.6724                   22018578.9064
 -35235042.37947 -27430318.37945  21894302.3674                   21894298.0904
   6159974.29347   4813255.16944  22834859.5164                   22834857.6054
 -16458191.24645 -12801614.76642  24396580.5944                   24396578.4774
 -24741932.50848 -19254405.80846  20607250.8524                   20607248.7234
 -11503745.25848  -8948745.51246  21616633.7814                   21616634.4884
  15380964.60246  11998401.71343  23731829.3054                   23731828.5664
  21670832.87946  16896065.70543  25050749.7894                   25050748.1724
 11  8 14  3  3 30.0000000  0  9G29G12G02G26G10G05G25G15G21
  -3060089.90647  -2372094.46945  21745870.7734                   21745868.7704
 -21643457.49247 -16840650.46945  22023431.3284                   22023429.0824
 -35246071.27747 -27438912.32445  21892203.4694                   21892199.9614
   6016988.39846   4701837.65144  22807649.8914                   22807648.4844
 -16403498.16045 -12758996.84042  24406988.5474                   24406985.2194
 -24748852.46148 -19259797.96946  20605933.6484                   20605931.7584
 -11531456.36748  -8970338.56646  21611360.7274                   21611361.1914
  15230055.24246  11880810.09543  23703112.5314                   23703111.1094
  21559635.40246  16809418.45243  25029589.3674                   25029587.6524
 11  8 14  3  4  0.0000000  0  9G29G12G02G26G10G05G25G15G21
  -3189483.16847  -2472920.33545  21721247.4304                   21721245.7504
 -21617663.56247 -16820551.29645  22028339.8834                   22028337.4534
 -35257004.85947 -27447431.97945  21890122.8524                   21890118.9884
   5874234.79747   4590601.09944  22780484.7344                   22780482.8054
 -16348749.72745 -12716335.73842  24417405.7504                   24417405.1214
 -24755334.53148 -19264848.91246  20604700.2194                   20604698.5514
 -11558631.09448  -8991513.65946  21606189.6954                   21606189.5274
  15079144.11346  11763217.12744  23674395.1254                   23674393.3404
  21448455.63346  16722784.99243  25008432.1024                   25008430.8834
 11  8 14  3  4 30.0000000  0  9G29G12G02G26G10G05G25G15G21
  -3318690.30947  -2573601.20345  21696660.0234                   21696658.6524
 -21591564.67647 -16800214.49345  22033306.4924                   22033303.7624
 -35267842.34447 -27455876.79145  21888060.5944                   21888056.7114
   5731717.86347   4479549.01044  22753364.7584                   22753363.2424
 -16293947.37955 -12673632.59452  24427835.6094                   24427834.0824
 -24761380.61748 -19269560.13946  20603550.1804                   20603547.7974
 -11585270.67248  -9012271.76646  21601120.3054                   21601120.6524
  14928234.74246  11645625.51644  23645677.8444                   23645676.9534
  21337293.19946  16636165.05542  24987278.7504                   24987277.2304
 11  8 14  3  5  0.0000000  0  9G29G12G02G26G10G05G25G15G21
  -3447704.84047  -2674131.97745  21672109.7114                   21672108.1884
 -21565160.16847 -16779639.54345  22038330.9304                   22038328.5944
 -35278579.74247 -27464243.60245  21886017.8914                   21886013.4414
   5589445.25447   4368687.27644  22726291.0314                   22726289.8404
 -16239089.98046 -12630886.60242  24438274.7194                   24438272.8484
 -24766988.43448 -19273929.85846  20602482.7194                   20602480.1914
 -11611372.46548  -9032610.80846  21596153.1024                   21596153.5274
  14777334.12146  11528040.73844  23616962.7734                   23616960.1484
  21226151.70746  16549561.43042  24966128.6724                   24966126.1764
 11  8 14  3  5 30.0000000  0  9G29G12G02G26G10G05G25G15G21
  -3576525.31647  -2774511.53346  21647596.4064                   21647594.3444
 -21538453.29747 -16758828.98845  22043412.6254                   22043410.3164
 -35289217.24247 -27472532.59345  21883993.2664                   21883989.1094
   5447420.30947   4258018.52444  22699264.7344                   22699263.2774
 -16184179.92646 -12588099.56242  24448723.4534                   24448722.0044
 -24772160.99648 -19277960.41246  20601498.6094                   20601496.0234
 -11636938.64147  -9052532.51146  21591287.9304                   21591288.4734
  14626444.42247  11410464.40643  23588249.2274                   23588247.4614
  21115030.62146  16462973.75442  24944983.0554                   24944980.6954
 11  8 14  3  6  0.0000000  0  8G29G12G02G26G05G25G15G21
  -2129721.85247  -1647132.14045  21922913.4924                   21922912.3284
 -19936024.71547 -15510183.33945  22348344.9064                   22348342.5944
 -33724331.02747 -26253140.73745  22181781.4304                   22181776.8794
   6881074.60547   5375151.77944  22972080.2504                   22972077.9804
 -23201476.73847 -18054050.58846  20900390.0554                   20900387.3714
 -10086546.88348  -7844435.03146  21886318.1094                   21886318.2624
  16050997.17646  12520505.61443  23859332.0164                   23859330.7234
  22579355.61746  17604006.32842  25223633.8204                   25223632.6294
 11  8 14  3  6 30.0000000  0  8G29G12G02G26G05G25G15G21
  -2258141.25847  -1747199.17845  21898476.1724                   21898474.2504
 -19908715.96147 -15488903.77445  22353541.5004                   22353539.0864
 -33734762.48447 -26261269.15745  22179795.9384                   22179792.0004
   6739561.91847   5264882.20344  22945151.5704                   22945149.2504
 -23205779.17647 -18057403.12046  20899571.3054                   20899568.8364
 -10111041.12547  -7863521.45145  21881657.0784                   21881657.0594
  15900144.19546  12402957.90443  23830625.8364                   23830624.4344
  22468278.34046  17517452.70342  25202497.2814                   25202494.8404
 11  8 14  3  7  0.0000000  0  8G29G12G02G26G05G25G15G21
  -2386347.53547  -1847100.12746  21874079.4224                   21874077.7114
 -19881101.57047 -15467386.06045  22358796.1254                   22358793.9774
 -33745081.43047 -26269309.88845  22177832.6024                   22177828.3554
   6598319.94547   5154823.55544  22918273.8594                   22918272.3094
 -23209640.97347 -18060412.29446  20898836.1254                   20898833.9844
 -10134992.68748  -7882184.98646  21877098.7504                   21877099.3364
  15749322.85246  12285434.86744  23801925.5784                   23801924.1914
  22357231.86746  17430923.06342  25181366.0474                   25181362.6454
 11  8 14  3  7 30.0000000  0  8G29G12G02G26G05G25G15G21
  -2514331.42247  -1946827.77445  21849724.4774                   21849723.1564
 -19853177.10947 -15445626.74745  22364109.9844                   22364107.9694
 -33755280.34847 -26277257.12345  22175891.7584                   22175887.3404
   6457359.93847   5044984.63344  22891450.0864                   22891448.2974
 -23213056.95748 -18063074.08346  20898186.1174                   20898183.6334
 -10158396.05948  -7900421.36446  21872645.2504                   21872646.0594
  15598543.76646  12167944.76144  23773232.7114                   23773231.3714
  22246222.46946  17344422.30542  25160241.7584                   25160238.4304
 11  8 14  3  8  0.0000000  0  8G29G12G02G26G05G25G15G21
  -2642092.03547  -2046381.45145  21825412.5164                   21825410.9104
 -19824947.62947 -15423629.73245  22369482.0704                   22369479.6024
 -33765360.52047 -26285111.80045  22173973.5314                   22173969.2304
   6316683.76247   4935366.87544  22864680.2664                   22864677.9924
 -23216030.89847 -18065391.43446  20897620.6094                   20897617.4804
 -10181254.53147  -7918233.16846  21868295.6484                   21868296.2154
  15447808.23446  12050488.61744  23744548.8204                   23744546.9494
  22135248.12145  17257948.89542  25139123.0474                   25139122.1454
 11  8 14  3  8 30.0000000  0  8G29G12G02G26G05G25G15G21
  -2769627.69547  -2145759.83245  21801143.4384                   21801141.6134
 -19796416.07447 -15401397.34645  22374911.6024                   22374908.8244
 -33775322.50047 -26292874.38745  22172077.7974                   22172073.5984
   6176294.98847   4825973.08444  22837964.6414                   22837962.9184
 -23218565.62147 -18067366.52546  20897138.0704                   20897135.2974
 -10203570.31648  -7935622.08346  21864049.0314                   21864049.3874
  15297118.68046  11933068.28444  23715873.6484                   23715871.7584
  22024308.00445  17171502.26242  25118012.4534                   25118010.0474
 11  8 14  3  9  0.0000000  0  8G29G12G02G26G05G25G15G21
  -2896936.38347  -2244961.36845  21776917.4144                   21776915.2584
 -19767586.11747 -15378932.43945  22380397.1484                   22380395.2734
 -33785166.53947 -26300545.08245  22170204.2034                   22170200.4734
   6036196.45747   4716805.43744  22811305.0164                   22811302.7424
 -23220663.78148 -18069001.45346  20896738.3134                   20896736.2344
 -10225345.78947  -7952589.97146  21859905.1024                   21859905.3444
  15146477.56646  11815685.70144  23687207.5864                   23687206.1374
  21913400.80545  17085081.17642  25096907.9694                   25096905.5004
 11  8 14  3  9 30.0000000  0  8G29G12G02G26G05G25G15G21
  -3024016.98047  -2343985.15645  21752734.6024                   21752732.8164
 -19738461.93047 -15356238.27845  22385939.5784                   22385937.2304
 -33794893.52347 -26308124.55745  22168353.3594                   22168349.0594
   5896390.97747   4607866.15044  22784700.8524                   22784699.1914
 -23222328.79747 -18070298.84446  20896422.0704                   20896419.2464
 -10246583.78548  -7969139.07046  21855863.6804                   21855864.7304
  14995886.79746  11698342.35944  23658550.1724                   23658549.3674
  21802525.34446  16998684.72742  25075808.3134                   25075806.3244
 11  8 14  3 10  0.0000000  0  8G29G12G02G26G05G25G15G21
  -3150870.57848  -2442832.06546  21728595.1334                   21728593.2854
 -19709049.76247 -15333319.69645  22391536.6884                   22391533.5474
 -33804506.53547 -26315615.22845  22166524.4454                   22166520.1454
   5756879.09847   4499155.64744  22758152.9844                   22758150.8484
 -23223566.32848 -18071263.13446  20896186.1804                   20896183.6414
 -10267289.48847  -7985273.36746  21851923.6804                   21851924.1414
  14845345.86746  11581037.83844  23629903.4384                   23629902.2774
  21691677.27745  16912309.70342  25054714.6334                   25054712.2894
 11  8 14  3 10 30.0000000  0  8G29G12G02G26G05G25G15G21
  -3277497.00047  -2541501.96145  21704498.9384                   21704496.9804
 -19679354.57047 -15310180.57445  22397187.2974                   22397184.7854
 -33814007.50047 -26323018.60045  22164716.4304                   22164711.6804
   5617662.27747   4390675.02644  22731659.8284                   22731658.5234
 -23224380.53147 -18071897.56846  20896031.2114                   20896028.8404
 -10287466.63748  -8000995.81546  21848084.2274                   21848084.3834
  14694856.05946  11463773.17244  23601266.1804                   23601264.6764
  21580854.48446  16825954.35542  25033626.0474                   25033624.0124
 11  8 14  3 11  0.0000000  0  8G29G12G02G26G05G25G15G21
  -3403893.09447  -2639992.39446  21680446.7894                   21680444.7624
 -19649378.73847 -15286822.78445  22402891.7974                   22402889.3364
 -33823395.43047 -26330333.89645  22162929.5634                   22162925.1884
   5478744.87147   4282427.74644  22705225.1804                   22705222.9304
 -23224773.31647 -18072203.61646  20895956.6644                   20895953.8054
 -10307116.58248  -8016307.43746  21844344.9304                   21844345.3324
  14544420.24647  11346550.55444  23572639.3914                   23572638.1134
  21470056.93046  16739618.73042  25012541.6024                   25012540.5164
 11  8 14  3 11 30.0000000  0  8G29G12G02G26G05G25G15G21
  -3530056.77047  -2738301.69845  21656438.5164                   21656436.5944
 -19619125.67247 -15263248.98545  22408648.3984                   22408646.9184
 -33832670.72747 -26337561.39845  22161164.6174                   22161160.7624
   5340130.29347   4174416.42944  22678848.0634                   22678845.1524
 -23224747.29348 -18072183.33346  20895961.2814                   20895959.0634
 -10326241.60248  -8031210.04046  21840705.3524                   21840705.7544
  14394041.54746  11229372.42444  23544023.3284                   23544021.5554
  21359283.70345  16653302.03542  24991461.0634                   24991460.2584
 11  8 14  3 12  0.0000000  0  8G29G12G02G26G05G25G15G21
  -3655987.60947  -2836429.59946  21632474.5394                   21632472.3554
 -19588599.82447 -15239462.58145  22414457.1724                   22414454.6094
 -33841834.35947 -26344701.89445  22159420.7664                   22159416.9654
   5201820.73847   4066642.77044  22652528.7274                   22652526.5634
 -23224306.33648 -18071839.71946  20896045.0314                   20896043.0664
 -10344845.04748  -8045706.22645  21837165.1884                   21837165.9534
  14243721.61746  11112240.13244  23515418.1024                   23515415.9344
  21248532.71546  16567002.65642  24970385.9774                   24970384.8794
 11  8 14  3 12 30.0000000  0  8G29G12G02G26G05G25G15G21
  -3781682.42647  -2934373.58146  21608555.4774                   21608553.8794
 -19557803.16847 -15215465.20845  22420317.8364                   22420315.9024
 -33850885.16447 -26351754.47645  22157698.3914                   22157694.7704
   5063820.83647   3959110.40944  22626267.7114                   22626265.6294
 -23223451.57047 -18071173.66346  20896208.1254                   20896205.7664
 -10362927.91448  -8059796.76446  21833724.2584                   21833724.8204
  14093464.21946  10995156.52744  23486825.2894                   23486822.7974
  21137804.57046  16480721.12942  24949315.5474                   24949314.0434
 11  8 14  3 13  0.0000000  0  8G29G12G02G26G05G25G15G21
  -3907137.53947  -3032130.77846  21584681.9384                   21584680.7274
 -19526737.81247 -15191258.43045  22426229.2034                   22426227.5274
 -33859822.05147 -26358718.29345  22155998.1174                   22155993.9224
   4926135.48447   3851823.15644  22600066.8984                   22600065.2854
 -23222184.37148 -18070186.22146  20896449.2424                   20896446.7584
 -10380491.11748  -8073482.37946  21830382.4614                   21830382.3674
  13943273.46947  10878124.85744  23458245.1174                   23458242.7814
  21027099.69146  16394457.66842  24928248.7504                   24928247.5784
 11  8 14  3 13 30.0000000  0  8G29G12G02G26G05G25G15G21
  -4032351.07847  -3129699.73546  21560855.0634                   21560852.9494
 -19495407.05547 -15166844.86845  22432191.3524                   22432189.1374
 -33868644.87147 -26365593.22245  22154319.0864                   22154314.7894
   4788768.04747   3744783.62944  22573926.5944                   22573924.6884
 -23220507.46148 -18068879.52346  20896768.5474                   20896765.7504
 -10397536.90648  -8086764.79145  21827138.4844                   21827138.6214
  13793152.09447  10761147.27144  23429677.4534                   23429675.1254
  20916417.11346  16308211.62142  24907186.5634                   24907185.5004
 11  8 14  3 14  0.0000000  0  8G29G12G02G26G05G25G15G21
  -4157323.26648  -3227080.64546  21537073.2504                   21537071.1254
 -19463816.42247 -15142228.80445  22438203.5004                   22438201.1914
 -33877356.07847 -26372381.19545  22152661.1484                   22152656.7504
   4651719.43447   3637992.53944  22547847.4384                   22547845.3444
 -23218425.71947 -18067257.38046  20897164.3914                   20897161.4344
 -10414069.95348  -8099647.67346  21823992.3754                   21823992.6454
  13643100.38246  10644224.00744  23401123.3674                   23401120.9304
  20805753.76646  16221980.55643  24886128.1564                   24886127.6764
 11  8 14  3 14 30.0000000  0  8G29G12G02G26G05G25G15G21
  -4282049.94548  -3324270.23546  21513338.6484                   21513336.8204
 -19431967.33647 -15117411.32545  22444263.1644                   22444261.2584
 -33885953.83247 -26379080.76345  22151025.3524                   22151021.2774
   4514995.23447   3531454.23044  22521829.3444                   22521827.2734
 -23215939.72348 -18065320.23546  20897637.5314                   20897634.8594
 -10430090.39148  -8112131.12246  21820943.6254                   21820944.0314
  13493123.14547  10527358.65944  23372583.6254                   23372581.7774
  20695111.14146  16135765.61143  24865074.0634                   24865072.2194
 11  8 14  3 15  0.0000000  0  8G29G12G02G26G05G25G15G21
  -4406532.93047  -3421269.93946  21489650.0394                   21489648.6724
 -19399866.95747 -15092398.04645  22450372.3444                   22450370.1024
 -33894441.94547 -26385694.88645  22149410.6334                   22149405.9654
   4378594.80547   3425168.21744  22495873.3674                   22495871.7584
 -23213056.09847 -18063073.24846  20898186.3594                   20898183.3134
 -10445604.55947  -8124220.08745  21817991.2504                   21817992.1024
  13343219.26646  10410550.52144  23344058.0864                   23344056.1484
  20584484.31346  16049562.99543  24844022.0004                   24844020.1134
 11  8 14  3 15 30.0000000  0  8G29G12G02G26G05G25G15G21
  -4530765.64548  -3518074.62246  21466010.0234                   21466007.2624
 -19367513.75047 -15067187.77145  22456528.8364                   22456526.7074
 -33902815.40647 -26392219.66445  22147816.8914                   22147813.2074
   4242526.46947   3319140.93944  22469980.4304                   22469978.4844
 -23209772.70748 -18060514.74946  20898811.0164                   20898808.3634
 -10460609.92647  -8135912.56846  21815135.9384                   21815136.4264
  13193396.25046  10293805.42944  23315547.0554                   23315545.2584
  20473877.44946  15963375.90143  24822974.9454                   24822973.0434
 11  8 14  3 16  0.0000000  0  8G29G12G02G26G05G25G15G21
  -4654744.60547  -3614681.58146  21442417.1804                   21442415.1214
 -19334909.50847 -15041781.86245  22462732.7424                   22462730.6644
 -33911073.23447 -26398654.34045  22146245.3284                   22146241.6644
   4106795.20347   3213376.36144  22444151.5004                   22444149.6644
 -23206090.79748 -18057645.72246  20899511.7584                   20899509.1844
 -10475107.52348  -8147209.39145  21812376.8204                   21812377.8364
  13043657.96546  10177126.31244  23287052.3284                   23287050.8794
  20363291.04346  15877204.81343  24801930.7664                   24801928.6414
 11  8 14  3 16 30.0000000  0  8G29G12G02G26G05G25G15G21
  -4778470.66047  -3711091.46846  21418872.7344                   21418871.2504
 -19302061.19547 -15016185.77645  22468984.0084                   22468981.7934
 -33919218.48047 -26405001.28645  22144695.6564                   22144691.4844
   3971401.00047   3107874.42544  22418387.5474                   22418384.6094
 -23202016.02747 -18054470.56946  20900286.9534                   20900284.2464
 -10489102.83248  -8158114.83046  21809714.0234                   21809714.7734
  12894004.35546  10060513.19144  23258574.8914                   23258572.8444
  20252721.02046  15791046.42443  24780889.4534                   24780887.4694
 11  8 14  3 17  0.0000000  0  8G29G12G02G26G05G25G15G21
  -4901940.69548  -3807301.85146  21395377.5554                   21395375.3874
 -19268970.66847 -14990400.95245  22475280.7344                   22475278.7664
 -33927249.75847 -26411259.42645  22143166.8594                   22143163.0354
   3836348.61747   3002638.81844  22392687.3364                   22392685.2114
 -23197549.92647 -18050990.47346  20901136.6884                   20901133.9884
 -10502596.99248  -8168629.75346  21807146.1954                   21807146.4774
  12744439.64847   9943969.33544  23230112.9304                   23230112.0904
  20142168.14146  15704901.48243  24759851.4454                   24759850.3054
 11  8 14  3 17 30.0000000  0  8G29G12G02G26G05G25G15G21
  -5025150.80148  -3903309.70546  21371931.3524                   21371928.8134
 -19235639.43047 -14964428.56545  22481623.6884                   22481621.2774
 -33935165.54347 -26417427.57645  22141660.9384                   22141656.2934
   3701643.16047   2897673.56244  22367053.3914                   22367051.6214
 -23192693.34447 -18047206.11646  20902060.9304                   20902058.6334
 -10515590.68448  -8178754.69246  21804673.5394                   21804673.1484
  12594967.99247   9827498.01644  23201669.4454                   23201668.3204
  20031632.99646  15618770.26043  24738817.8674                   24738815.6914
 11  8 14  3 18  0.0000000  0  8G29G12G02G26G05G25G15G21
  -5148101.11347  -3999115.11346  21348534.4144                   21348532.8984
 -19202072.74647 -14938272.70245  22488011.5314                   22488009.0944
 -33942968.07847 -26423507.48545  22140176.1884                   22140171.3164
   3567285.75447   2792979.50244  22341486.0314                   22341484.3054
 -23187451.01647 -18043121.17446  20903058.9144                   20903055.9454
 -10528088.52348  -8188493.28345  21802295.1254                   21802295.0784
  12445589.90647   9711099.58544  23173243.7974                   23173242.7664
  19921112.88346  15532650.82343  24717786.7734                   24717784.4614
 11  8 14  3 18 30.0000000  0  8G29G12G02G26G05G25G15G21
  -5270786.31247  -4094713.93546  21325188.2344                   21325186.5354
 -19168271.17247 -14911933.81545  22494443.5704                   22494440.9064
 -33950654.19147 -26429496.69245  22138713.5634                   22138709.4654
   3433282.90647   2688561.71644  22315986.4304                   22315984.6914
 -23181822.86347 -18038735.60546  20904129.4384                   20904127.0474
 -10540089.86748  -8197844.97345  21800011.3754                   21800011.6414
  12296311.33247   9594778.69244  23144837.6174                   23144835.6024
  19810610.12546  15446544.85343  24696757.8754                   24696756.8014
 11  8 14  3 19  0.0000000  0  8G29G12G02G26G05G25G15G21
  -5393207.77048  -4190107.24446  21301892.2424                   21301890.2504
 -19134241.07847 -14885416.86745  22500918.9384                   22500916.9454
 -33958226.87947 -26435397.48345  22137272.4384                   22137268.5354
   3299634.98447   2584420.53944  22290553.9844                   22290552.2934
 -23175814.48047 -18034053.73546  20905272.7974                   20905270.4884
 -10551600.29348  -8206814.13845  21797820.8444                   21797821.2974
  12147131.83247   9478534.99544  23116449.1724                   23116448.0354
  19700120.70346  15360449.33643  24675732.3914                   24675730.9844
 11  8 14  3 19 30.0000000  0  8G29G12G02G26G05G25G15G21
  -5515361.75048  -4285292.14046  21278646.9384                   21278645.0944
 -19099984.24247 -14858723.21045  22507437.8674                   22507435.7344
 -33965684.68447 -26441208.76345  22135852.9774                   22135849.0904
   3166346.88347   2480559.70045  22265190.1724                   22265188.1844
 -23169426.93747 -18029076.43246  20906488.5234                   20906485.7424
 -10562620.80148  -8215401.53846  21795723.9064                   21795724.3444
  11998056.08647   9362372.16644  23088081.3674                   23088079.7384
  19589645.35946  15274364.74943  24654710.3594                   24654708.5204
 11  8 14  3 20  0.0000000  0  8G29G12G02G26G05G25G15G21
  -5637247.24648  -4380267.81646  21255453.5554                   21255450.7704
 -19065505.13747 -14831856.36945  22513999.4224                   22513997.0044
 -33973028.70347 -26446931.34545  22134455.5634                   22134451.2584
   3033420.91447   2376981.07445  22239895.5004                   22239893.5434
 -23162663.99647 -18023806.60146  20907775.5784                   20907773.1054
 -10573154.96948  -8223609.96945  21793719.1094                   21793720.3404
  11849085.46947   9246291.24744  23059733.1414                   23059731.2504
  19479182.07446  15188289.57243  24633688.8134                   24633687.8244
 11  8 14  3 20 30.0000000  0  8G29G12G02G26G05G25G15G21
  -4183437.77747  -3247429.23046  21532103.5704                   21532101.5554
 -17455387.83647 -13577219.51845  22820394.2424                   22820392.2624
 -32404837.94947 -25224964.54445  22432872.5634                   22432868.1334
   4476285.28147   3501291.01144  22514463.5234                   22514461.5084
 -21580108.40648 -16790646.39846  21208925.6414                   21208923.3914
  -9007784.51648  -7003840.79245  22091599.5004                   22091599.6254
  13275648.36747  10357898.75044  23331199.0084                   23331197.7544
  20944154.77346  16329826.85143  24912464.2974                   24912462.7424
 11  8 14  3 21  0.0000000  0  8G29G12G02G26G05G25G15G21
  -4304777.87148  -3341979.93746  21509013.4614                   21509011.3634
 -17420471.96147 -13550012.35245  22827038.6564                   22827036.4774
 -32411952.07447 -25230508.03245  22431518.9694                   22431513.8094
   4344095.49647   3398286.00145  22489308.4064                   22489306.1954
 -21572600.84448 -16784796.34746  21210354.3134                   21210351.7154
  -9017351.31648  -7011295.44245  22089778.9844                   22089779.0824
  13126899.03547  10241990.29044  23302892.6644                   23302891.5474
  20833715.99246  16243770.79643  24891447.5864                   24891446.6414
 11  8 14  3 21 30.0000000  0  8G29G12G02G26G05G25G15G21
  -4425841.42648  -3436315.14646  21485975.7424                   21485973.5084
 -17385342.07447 -13522638.43145  22833723.4844                   22833720.9774
 -32418950.45347 -25235961.31145  22430186.6564                   22430182.0124
   4212279.74247   3295572.47645  22464224.4384                   22464222.8324
 -21564724.39147 -16778658.84346  21211853.2664                   21211850.8204
  -9026437.64148  -7018375.68745  22088049.9384                   22088049.9884
  12978264.91447  10126171.54644  23274608.0394                   23274607.0434
  20723288.92646  16157723.79342  24870434.3674                   24870432.7704
 11  8 14  3 22  0.0000000  0  8G29G12G02G26G05G25G15G21
  -4546628.53548  -3530434.96246  21462991.0394                   21462988.7304
 -17350003.82847 -13495102.16445  22840447.9224                   22840445.9734
 -32425835.46147 -25241326.29545  22428876.8444                   22428872.3674
   4080838.96547   3193151.10544  22439211.8054                   22439210.0084
 -21556483.97347 -16772237.74946  21213421.7274                   21213419.3054
  -9035048.32448  -7025085.30445  22086411.3594                   22086411.2894
  12829746.64547  10010443.08044  23246346.1564                   23246344.2624
  20612870.47746  16071683.63843  24849422.1724                   24849420.1174
 11  8 14  3 22 30.0000000  0  8G29G12G02G26G05G25G15G21
  -4667134.30547  -3624335.52146  21440058.7894                   21440057.1334
 -17314457.43747 -13467403.67445  22847212.4774                   22847210.4804
 -32432604.02347 -25246600.47945  22427589.0084                   22427584.7274
   3949779.42247   3091026.82845  22414272.2894                   22414270.3444
 -21547879.04748 -16765532.59946  21215058.8444                   21215056.4924
  -9043183.02748  -7031424.01845  22084863.3524                   22084863.8364
  12681349.96547   9894809.38444  23218107.1334                   23218105.4924
  20502462.84046  15985651.73842  24828412.6954                   24828410.0864
 11  8 14  3 23  0.0000000  0  8G29G12G02G26G05G25G15G21
  -4787360.11747  -3718017.91846  21417181.0164                   21417178.6414
 -17278709.74247 -13439548.36245  22854014.7194                   22854013.2934
 -32439259.46546 -25251786.51645  22426322.0864                   22426318.0474
   3819100.91447   2989199.43744  22389404.8834                   22389402.5944
 -21538916.05548 -16758548.44946  21216764.4224                   21216762.3554
  -9050847.77047  -7037396.52746  22083404.8594                   22083404.8594
  12533074.30147   9779269.96644  23189891.8054                   23189889.8914
  20392061.81645  15899625.10542  24807403.0634                   24807400.7814
 11  8 14  3 23 30.0000000  0  8G29G12G02G26G05G25G15G21
  -4907299.09847  -3811476.84146  21394357.3444                   21394354.7974
 -17242759.16847 -13411534.93045  22860856.2664                   22860854.5744
 -32445797.12147 -25256880.79845  22425078.5704                   22425074.3524
   3688811.80147   2887675.47044  22364611.5704                   22364609.7544
 -21529593.10548 -16751283.80446  21218538.6804                   21218535.9694
  -9058040.37948  -7043001.15546  22082036.1804                   22082036.5474
  12384927.23847   9663830.75544  23161699.5944                   23161698.2934
  20281671.55946  15813606.80142  24786396.4614                   24786394.9574
 11  8 14  3 24  0.0000000  0  8G29G12G02G26G05G25G15G21
  -5026951.59447  -3904712.51546  21371588.2504                   21371586.0904
 -17206611.83647 -13383368.19745  22867734.2894                   22867733.1994
 -32452219.76647 -25261885.45845  22423856.5314                   22423851.8284
   3558912.59447   2786455.36045  22339892.4844                   22339890.7384
 -21519915.15248 -16743742.54046  21220380.1174                   21220377.7544
  -9064766.22748  -7048242.06745  22080756.0084                   22080756.2074
  12236909.00847   9548491.93344  23133533.3754                   23133530.8284
  20171288.50845  15727594.10542  24765391.8834                   24765389.4104
 11  8 14  3 24 30.0000000  0  8G29G12G02G26G05G25G15G21
  -5146311.57047  -3997720.24646  21348874.6094                   21348872.4734
 -17170266.96547 -13355047.53845  22874650.8444                   22874649.4694
 -32458523.04347 -25266797.10245  22422656.3914                   22422652.0554
   3429411.02047   2685545.05345  22315249.3134                   22315247.5204
 -21509880.77348 -16735923.54946  21222289.7034                   21222287.3484
  -9071023.56648  -7053117.91145  22079565.5004                   22079566.0474
  12089026.72747   9433259.05144  23105392.1884                   23105390.1024
  20060916.09045  15641589.73442  24744388.6884                   24744385.3054
 11  8 14  3 25  0.0000000  0  8G29G12G02G26G05G25G15G21
  -5265385.13347  -4090504.81446  21326215.6484                   21326213.3794
 -17133736.27747 -13326582.07445  22881602.6954                   22881600.8054
 -32464715.12547 -25271622.10445  22421478.1414                   22421473.7624
   3300301.66047   2584940.36845  22290680.6174                   22290678.8754
 -21499501.18747 -16727835.54746  21224264.7034                   21224262.6094
  -9076823.66848  -7057637.46745  22078461.6174                   22078462.4654
  11941274.73047   9318127.67544  23077275.9844                   23077273.5864
  19950545.09446  15555586.48442  24723386.0084                   24723382.3914
 11  8 14  3 25 30.0000000  0  8G29G12G02G26G05G25G15G21
  -5384164.75447  -4183060.30846  21303612.7974                   21303610.1724
 -17097017.43047 -13297970.00145  22888590.1724                   22888587.7384
 -32470790.57846 -25276356.20745  22420321.8284                   22420317.8164
   3171593.50447   2484648.32045  22266188.1724                   22266186.4774
 -21488773.73848 -16719476.48446  21226306.0864                   21226303.8284
  -9082163.66447  -7061798.49045  22077445.3524                   22077445.7974
  11793661.05147   9203104.08544  23049185.3984                   23049183.8244
  19840180.44946  15469588.18442  24702383.4924                   24702380.7974
 11  8 14  3 26  0.0000000  0  8G29G12G02G26G05G25G15G21
  -5502647.71547  -4275384.65246  21281066.2194                   21281064.1174
 -17060113.35247 -13269213.59145  22895613.0394                   22895610.2274
 -32476748.67247 -25280998.85945  22419187.9224                   22419184.3714
   3043290.23447   2384671.76545  22241773.2894                   22241771.5664
 -21477700.37948 -16710847.88546  21228413.4454                   21228410.8444
  -9087045.59448  -7065602.57545  22076516.7424                   22076516.2774
  11646189.43847   9088191.17444  23021122.1954                   23021120.9694
  19729821.79346  15383594.46942  24681383.7584                   24681380.1174
 11  8 14  3 26 30.0000000  0  9G29G12G02G26G18G05G25G15G21
  -5620833.51248  -4367477.44546  21258575.9694                   21258573.6884
 -17023028.91047 -13240316.62745  22902669.5554                   22902667.0084
 -32482591.01647 -25285551.32245  22418076.7424                   22418072.5594
   2915393.91447   2285012.30245  22217435.2974                   22217433.3094
  24998892.23856  19492604.58353  24706990.4064                   24706988.9414
 -21466285.35247 -16701953.04746  21230585.7344                   21230583.1914
  -9091473.89548  -7069053.18345  22075673.9534                   22075673.9614
  11498861.23047   8973390.04344  22993086.8594                   22993084.7504
  19619467.07846  15297603.94542  24660383.7504                   24660380.6764
 11  8 14  3 27  0.0000000  0  9G29G12G02G26G18G05G25G15G21
  -5738727.88347  -4459343.16046  21236141.5234                   21236139.1174
 -16985774.84447 -13211287.49344  22909759.0554                   22909756.0554
 -32488325.09047 -25290019.39545  22416985.7974                   22416981.1884
   2787899.92647   2185666.37745  22193173.8134                   22193172.1764
  24855852.58646  19381145.29143  24679770.9844                   24679768.7544
 -21454538.98848 -16692800.02946  21232820.9064                   21232818.3714
  -9095458.88348  -7072158.36045  22074915.5554                   22074915.8554
  11351671.35247   8858696.68044  22965077.7274                   22965075.5904
  19509107.97746  15211609.98442  24639382.6334                   24639379.8444
 11  8 14  3 27 30.0000000  0  9G29G12G02G26G18G05G25G15G21
  -5856332.73847  -4550983.27046  21213762.3364                   21213760.0394
 -16948358.78547 -13182132.13744  22916878.7974                   22916876.2274
 -32493954.68047 -25294406.11045  22415914.0864                   22415909.7034
   2660807.56647   2086633.38945  22168989.0554                   22168987.5784
  24712980.61746  19269816.66843  24652582.9774                   24652580.7624
 -21442468.23448 -16683394.23646  21235117.6094                   21235115.2154
  -9099007.43448  -7074923.45645  22074240.4304                   22074240.2814
  11204618.55947   8744110.15744  22937094.5084                   22937092.4264
  19398740.30946  15125609.31843  24618380.6644                   24618377.5274
 11  8 14  3 28  0.0000000  0  9G29G12G02G26G18G05G25G15G21
  -5973645.59848  -4642395.85446  21191438.2114                   21191435.8594
 -16910784.19147 -13152853.23944  22924029.1564                   22924026.7814
 -32499479.93447 -25298711.50145  22414862.5704                   22414858.5124
   2534120.10947   1987915.89145  22144881.3754                   22144879.6484
  24570277.46146  19158619.70342  24625427.4144                   24625426.0704
 -21430075.71947 -16673737.73746  21237475.7894                   21237473.7234
  -9102122.27748  -7077350.62045  22073647.3914                   22073647.6564
  11057705.87947   8629632.78544  22909138.0634                   22909135.0864
  19288361.80146  15039600.26143  24597375.9144                   24597373.1724
 11  8 14  3 28 30.0000000  0  9G29G12G02G26G18G05G25G15G21
  -6090662.57848  -4733577.90446  21169170.3834                   21169168.6134
 -16873052.09847 -13123451.62144  22931209.0314                   22931207.1024
 -32504898.92647 -25302934.05845  22413831.0314                   22413827.3594
   2407842.78947   1889518.00545  22120851.1644                   22120849.0944
  24427746.39546  19047556.73842  24598303.9614                   24598301.9454
 -21417362.17647 -16663831.06146  21239895.1334                   21239892.5634
  -9104804.03948  -7079440.29145  22073137.1804                   22073137.5634
  10910938.13347   8515268.36244  22881208.7974                   22881206.3634
  19177974.33646  14953584.15943  24576370.2974                   24576367.6764
 11  8 14  3 29  0.0000000  0  9G29G12G02G26G18G05G25G15G21
  -6207378.34848  -4824525.23646  21146960.3984                   21146958.2304
 -16835162.50047 -13093927.28644  22938419.3204                   22938417.1484
 -32510208.10247 -25307071.06845  22412821.2424                   22412817.0634
   2281982.34447   1791444.97245  22096900.3834                   22096898.8954
  24285391.33246  18936630.93842  24571214.5554                   24571213.2894
 -21404326.87148 -16653673.68346  21242376.0164                   21242373.1134
  -9107052.30547  -7081192.18645  22072709.7034                   22072709.3364
  10764321.55147   8401021.73145  22853308.2814                   22853306.8674
  19067580.61346  14867563.11843  24555362.4304                   24555360.7074
 11  8 14  3 29 30.0000000  0  9G29G12G02G26G18G05G25G15G21
  -6323791.34847  -4915236.63546  21124807.7664                   21124804.9924
 -16797119.52347 -13064283.39444  22945658.4304                   22945656.4344
 -32515408.06647 -25311122.97345  22411831.9924                   22411827.3554
   2156541.00047   1693698.47145  22073030.0394                   22073027.7234
  24143212.96945  18825842.79342  24544159.4304                   24544156.0634
 -21390973.52048 -16643268.45746  21244916.7814                   21244914.3094
  -9108870.54748  -7082609.00645  22072363.3134                   22072363.1454
  10617858.11347   8286894.45544  22825438.0704                   22825436.1644
  18957179.23046  14781536.14643  24534354.2664                   24534351.8914
 11  8 14  3 30  0.0000000  0  9G29G12G02G26G18G05G25G15G21
  -6439896.44948  -5005708.13846  21102713.6564                   21102711.4884
 -16758923.41847 -13034520.23244  22952927.0474                   22952925.0004
 -32520495.78547 -25315087.44845  22410863.5704                   22410858.9924
   2031525.35247   1596283.69745  22049240.7504                   22049238.2544
  24001215.31346  18715195.48442  24517136.3284                   24517134.5664
 -21377301.43747 -16632614.87346  21247518.3134                   21247515.9184
  -9110258.56648  -7083690.57245  22072099.0164                   22072098.7584
  10471553.81347   8172891.14844  22797595.9534                   22797594.7934
  18846772.64146  14695505.17343  24513343.7664                   24513342.1884
 11  8 14  3 30 30.0000000  0  9G29G12G02G26G18G05G25G15G21
  -6555693.59048  -5095939.65646  21080678.1884                   21080675.6994
 -16720579.50847 -13004641.86944  22960224.0234                   22960221.9534
 -32525473.17647 -25318965.92045  22409916.3914                   22409912.0434
   1906936.41847   1499201.43045  22025532.0704                   22025530.0124
  23859397.19146  18604688.05043  24490149.8984                   24490147.1374
 -21363315.48048 -16621716.71946  21250179.7424                   21250177.0744
  -9111221.19148  -7084440.65645  22071915.5864                   22071916.0354
  10325409.62947   8059012.59345  22769786.3054                   22769784.3484
  18736358.05146  14609467.90343  24492331.9144                   24492330.8244
 11  8 14  3 31  0.0000000  0  9G29G12G02G26G18G05G25G15G21
  -6671177.40247  -5185927.03946  21058702.0554                   21058700.0204
 -16682087.79347 -12974648.32244  22967548.5394                   22967546.2974
 -32530336.35247 -25322755.42244  22408990.5704                   22408985.8444
   1782780.89847   1402456.88945  22001906.3834                   22001904.0944
  23717763.48846  18494324.31642  24463198.1334                   24463195.3874
 -21349015.20748 -16610573.64446  21252901.6414                   21252897.9734
  -9111757.91447  -7084858.88345  22071813.6884                   22071814.3634
  10179431.60547   7945263.54945  22742007.1644                   22742005.4454
  18625938.09446  14523426.49843  24471320.4924                   24471319.3134
 11  8 14  3 31 30.0000000  0  9G29G12G02G26G18G05G25G15G21
  -6786347.01647  -5275669.58246  21036785.9924                   21036783.6844
 -16643453.08647 -12944543.36144  22974899.7814                   22974897.9734
 -32535087.14847 -25326457.33145  22408086.6414                   22408082.6914
   1659060.35947   1306051.28345  21978362.7734                   21978360.9454
  23576312.94145  18384103.28542  24436280.3054                   24436278.8914
 -21334404.61748 -16599188.77146  21255681.5944                   21255678.7344
  -9111873.11347  -7084948.65845  22071791.9224                   22071792.1024
  10033621.30947   7831645.18345  22714260.6094                   22714258.6884
  18515510.58246  14437379.16543  24450306.1484                   24450304.2774
 11  8 14  3 32  0.0000000  0  9G29G12G02G26G18G05G25G15G21
  -6901195.96547  -5365162.26146  21014931.2584                   21014928.8714
 -16604674.25847 -12914326.12544  22982279.6564                   22982277.4264
 -32539720.69147 -25330067.86345  22407205.2974                   22407201.2194
   1535782.44547   1209990.59745  21954903.7894                   21954902.0164
  23435051.41046  18274029.54342  24409398.6334                   24409397.2114
 -21319482.10948 -16587560.84446  21258521.3364                   21258518.5394
  -9111565.24247  -7084708.76245  22071850.3674                   22071851.0824
   9887985.85247   7718163.04244  22686547.4454                   22686544.7504
  18405079.10246  14351328.76843  24429292.2034                   24429289.6724
 11  8 14  3 32 30.0000000  0  9G29G12G02G26G18G05G25G15G21
  -7015723.85947  -5454404.76546  20993137.1254                   20993134.4384
 -16565756.27347 -12884000.43044  22989685.7274                   22989683.9184
 -32544238.78947 -25333588.46445  22406345.8524                   22406341.3284
   1412948.62147   1114275.96645  21931529.2194                   21931527.4694
  23293978.01246  18164102.47443  24382554.6254                   24382551.9534
 -21304251.98848 -16575693.20446  21261419.9304                   21261417.0274
  -9110838.74248  -7084142.66345  22071988.8984                   22071989.0314
   9742526.58647   7604818.19645  22658867.2034                   22658865.1374
  18294641.58646  14265273.67543  24408276.9774                   24408274.3364
 11  8 14  3 33  0.0000000  0  9G29G12G02G26G18G05G25G15G21
  -7129924.59847  -5543392.34146  20971405.2664                   20971403.1914
 -16526698.35247 -12853565.69444  22997118.1174                   22997116.6994
 -32548637.23447 -25337015.85645  22405508.3054                   22405504.3554
   1290566.35547   1018913.16645  21908240.9694                   21908238.1484
  23153098.05146  18054326.01642  24355744.7194                   24355742.9964
 -21288712.96148 -16563584.87146  21264376.7114                   21264373.8404
  -9109692.44948  -7083249.44445  22072206.7424                   22072207.1174
   9597250.41447   7491616.02545  22631222.0864                   22631220.1684
  18184201.48046  14179216.52343  24387261.0234                   24387257.9224
 11  8 14  3 33 30.0000000  0  9G29G12G02G26G18G05G25G15G21
  -7243798.43447  -5632125.20146  20949735.9304                   20949733.8404
 -16487506.36347 -12823026.49444  23004576.3524                   23004574.6644
 -32552918.30147 -25340351.73945  22404693.5314                   22404689.3444
   1168636.26647    923902.70845  21885038.1334                   21885035.7304
  23012410.00846  17944699.10942  24328972.5864                   24328970.3094
 -21272870.06648 -16551239.75346  21267391.4454                   21267388.5704
  -9108131.78547  -7082033.35545  22072503.3134                   22072504.5664
   9452157.73047   7378556.84045  22603611.8834                   22603609.7814
  18073755.47746  14093154.77843  24366243.5314                   24366241.0704
 11  8 14  3 34  0.0000000  0  9G29G12G02G26G18G05G25G15G21
  -7357341.51647  -5720600.30546  20928129.1644                   20928126.9104
 -16448181.46147 -12792383.72944  23012059.6724                   23012057.7304
 -32557079.99647 -25343594.62944  22403901.1724                   22403897.5234
   1047163.25047    829248.44045  21861922.4924                   21861920.3554
  22871916.53146  17835223.79742  24302237.4224                   24302235.3714
 -21256724.37548 -16538658.69046  21270463.8524                   21270460.5824
  -9106157.92647  -7080495.28945  22072879.4614                   22072879.7194
   9307253.07047   7265644.15045  22576037.2664                   22576034.8134
  17963304.25046  14007088.97743  24345224.8754                   24345223.4304
 11  8 14  3 34 30.0000000  0  9G29G12G02G26G18G05G25G15G21
  -7470550.83247  -5808815.34446  20906586.5084                   20906584.2584
 -16408726.36347 -12761639.51844  23019568.0084                   23019565.5314
 -32561121.59447 -25346743.93144  22403132.4694                   22403128.5904
    926151.19547    734953.34345  21838894.7034                   21838892.1724
  22731619.66846  17725901.67642  24275539.5164                   24275536.8444
 -21240277.80548 -16525843.17746  21273593.6254                   21273590.4304
  -9103772.96147  -7078636.88745  22073333.1484                   22073333.6294
   9162540.19547   7152880.91445  22548499.4304                   22548496.7384
  17852848.46946  13921019.59943  24324205.8364                   24324203.9304
 11  8 14  3 35  0.0000000  0  9G29G12G02G26G18G05G25G15G21
  -7583426.16847  -5896770.12446  20885106.9534                   20885104.3794
 -16369146.39847 -12730798.00244  23027099.3594                   23027097.3984
 -32565044.63347 -25349800.85544  22402386.1414                   22402382.1764
    805601.39147    641018.44545  21815954.9844                   21815953.0044
  22591518.22746  17616731.90642  24248879.4064                   24248876.2974
 -21223534.96948 -16512796.80746  21276779.7114                   21276776.8634
  -9100981.72347  -7076461.88445  22073863.9534                   22073864.6374
   9018020.01247   7040267.82545  22520998.3054                   22520996.0634
  17742385.45346  13834944.64343  24303184.9384                   24303182.7234
 11  8 14  3 35 30.0000000  0  9G29G12G02G26G18G05G25G15G21
  -6120540.78947  -4756859.41346  21163484.7114                   21163482.3524
 -14754024.79747 -11472261.72044  23334446.3674                   23334444.0204
 -30993427.77347 -24125164.35645  22701454.8204                   22701451.1884
   2260941.83647   1775049.98745  22092897.1094                   22092895.6604
  24027038.83646  18735319.55343  24522050.3834                   24522047.1844
 -19631077.80148 -15271921.08646  21579814.0474                   21579811.2624
  -7522366.22747  -5846371.91245  22374264.7664                   22374264.8524
  10449121.47347   8155411.84945  22793327.9694                   22793325.5044
  19207339.28146  14976467.09943  24581956.4224                   24581954.6414
 11  8 14  3 36  0.0000000  0  9G29G12G02G26G18G05G25G15G21
  -6232740.16847  -4844287.46746  21142133.5784                   21142131.6524
 -14714202.59047 -11441231.42544  23342024.3754                   23342022.2114
 -30997111.40647 -24128034.73845  22700754.0234                   22700750.1214
   2141327.95747   1681844.39945  22070135.0314                   22070132.6374
  23887332.98046  18626457.92543  24495464.6484                   24495462.5944
 -19613748.24248 -15258417.52846  21583111.9224                   21583109.3984
  -7518769.30547  -5843569.10645  22374949.4924                   22374949.3054
  10304998.00847   8043107.89745  22765901.6024                   22765899.0664
  19096861.89846  14890380.97743  24560932.9614                   24560931.5864
 11  8 14  3 36 30.0000000  0  9G29G12G02G26G18G05G25G15G21
  -6344597.10947  -4931448.69146  21120848.0634                   21120845.9884
 -14674263.32047 -11410109.91244  23349624.6484                   23349621.9774
 -31000674.16847 -24130810.93345  22700076.1024                   22700071.9144
   2022187.44547   1589007.64245  22047463.5084                   22047461.7504
  23747827.57446  18517752.58543  24468917.4614                   24468915.6254
 -19596128.33648 -15244687.72946  21586464.7424                   21586461.9614
  -7514772.96947  -5840455.08945  22375709.5864                   22375709.9964
  10161077.80147   7930962.31845  22738514.4304                   22738512.5004
  18986376.99646  14804289.00243  24539909.0554                   24539906.2624
 11  8 14  3 37  0.0000000  0  9G29G12G02G26G18G05G25G15G21
  -6456109.85547  -5018341.70546  21099628.1024                   21099626.0314
 -14634210.53946 -11378899.97244  23357246.2814                   23357244.4414
 -31004116.25047 -24133493.06544  22699420.8524                   22699416.8244
   1903523.45747   1496542.21045  22024882.6024                   22024880.1644
  23608523.14546  18409203.79343  24442409.4534                   24442406.5044
 -19578221.19148 -15230734.10346  21589872.0394                   21589869.8014
  -7510380.59047  -5837032.46945  22376545.8444                   22376546.5744
  10017363.41047   7818977.13145  22711166.3284                   22711164.8284
  18875883.90645  14718190.52143  24518882.7034                   24518879.3954
 11  8 14  3 37 30.0000000  0  9G29G12G02G26G18G05G25G15G21
  -6567276.85947  -5104965.30946  21078473.2814                   21078471.3284
 -14594047.87146 -11347604.41744  23364889.3674                   23364887.5084
 -31007437.85247 -24136081.33645  22698788.9534                   22698783.8054
   1785338.35547   1404449.95045  22002392.7584                   22002389.6684
  23469420.03146  18300811.81143  24415938.6954                   24415936.1684
 -19560030.06248 -15216559.20746  21593334.0164                   21593331.3714
  -7505595.59847  -5833303.91245  22377456.2814                   22377456.5084
   9873857.55547   7707154.43045  22683858.2734                   22683856.2584
  18765381.52746  14632084.92343  24497855.0944                   24497851.9454
 11  8 14  3 38  0.0000000  0  9G29G12G02G26G18G05G25G15G21
  -6678093.00447  -5191315.52146  21057386.2034                   21057383.5744
 -14553775.35946 -11316223.21144  23372553.4774                   23372551.0004
 -31010635.47747 -24138573.02244  22698180.1644                   22698175.9104
   1667638.63747   1312735.89545  21979994.8914                   21979992.9844
  23330522.53946  18192580.12243  24389507.2424                   24389505.0744
 -19541554.25048 -15202162.45446  21596849.8674                   21596847.3014
  -7500417.64547  -5829269.16145  22378441.7664                   22378442.2854
   9730566.32447   7595498.93145  22656591.0864                   22656588.8594
  18654872.52046  14545974.06143  24476825.6334                   24476822.9454
 11  8 14  3 38 30.0000000  0  9G29G12G02G26G18G05G25G15G21
  -6788558.23847  -5277392.29846  21036364.9224                   21036362.8404
 -14513398.10246 -11284760.41844  23380236.4614                   23380234.7034
 -31013711.23847 -24140969.73244  22697595.1564                   22697590.7934
   1550425.20747   1221400.76745  21957689.8834                   21957687.8164
  23191829.47346  18084507.78943  24363114.5704                   24363112.2974
 -19522798.44548 -15187547.54446  21600418.9304                   21600416.2894
  -7494851.87947  -5824932.20445  22379500.7584                   22379501.2344
   9587490.62947   7484011.43045  22629364.5004                   22629362.0434
  18544354.22746  14459855.98743  24455793.9304                   24455791.7274
 11  8 14  3 39  0.0000000  0  9G29G12G02G26G18G05G25G15G21
  -6898669.77347  -5363193.45946  21015411.4144                   21015409.1454
 -14472918.96546 -11253218.26444  23387940.0394                   23387937.3714
 -31016664.36347 -24143270.85245  22697032.7894                   22697029.3324
   1433701.53147   1130447.27845  21935478.2974                   21935475.8054
  23053342.28946  17976595.84043  24336761.1884                   24336758.8134
 -19503764.89548 -15172716.19846  21604040.7664                   21604037.9924
  -7488900.74247  -5820294.96045  22380633.2034                   22380633.3984
   9444633.53947   7372694.26445  22602179.5394                   22602177.3164
  18433826.48045  14373730.54743  24434761.8204                   24434758.9884
 11  8 14  3 39 30.0000000  0  9G29G12G02G26G18G05G25G15G21
  -7008426.71147  -5448718.32046  20994525.3364                   20994523.3634
 -14432342.91046 -11221600.56944  23395661.0784                   23395658.6414
 -31019496.09447 -24145477.42245  22696493.9774                   22696490.4384
   1317469.32847   1039876.72845  21913359.9144                   21913357.8484
  22915060.34046  17868843.77643  24310447.3524                   24310445.0044
 -19484457.66048 -15157671.59146  21607714.2274                   21607712.0744
  -7482568.80147  -5815360.97645  22381837.9144                   22381838.8204
   9301997.12947   7261549.02945  22575036.7974                   22575034.7424
  18323287.30946  14287596.23243  24413727.3834                   24413724.2234
 11  8 14  3 40  0.0000000  0  9G29G12G02G26G18G05G25G15G21
  -7117827.55947  -5533965.70046  20973707.0704                   20973704.9224
 -14391673.32446 -11189909.97944  23403400.7894                   23403397.5634
 -31022206.56247 -24147589.48645  22695978.3674                   22695974.5514
   1201731.12547    949691.16745  21891335.4454                   21891333.4734
  22776984.31646  17761252.18743  24284172.4064                   24284170.4414
 -19464879.62947 -15142415.97446  21611440.3134                   21611437.9144
  -7475859.39547  -5810132.84645  22383115.0474                   22383115.4184
   9159583.45347   7150577.38145  22547936.3204                   22547934.0704
  18212735.67246  14201452.12843  24392689.6564                   24392687.3324
 11  8 14  3 40 30.0000000  0  9G29G12G02G26G18G05G25G15G21
  -7226869.44547  -5618933.38946  20952956.9694                   20952954.9064
 -14350912.62146 -11158148.42244  23411156.7734                   23411154.6954
 -31024794.90647 -24149606.37344  22695485.8594                   22695482.0394
   1086490.81347    859893.53645  21869405.7814                   21869403.5594
  22639115.92646  17653822.44943  24257935.3444                   24257934.3914
 -19445032.92247 -15126951.01046  21615216.7114                   21615214.6884
  -7468774.82447  -5804612.41545  22384463.2034                   22384463.3794
   9017396.45347   7039782.37145  22520878.4304                   22520876.3754
  18102171.51246  14115298.24143  24371650.4064                   24371646.7894
